Date StartTime U_cm/s V_cm/s W_cm/s Ustd_cm/s Vstd_cm/s Wstd_cm/s Uvar_(cm/s)^2 Vvar_(cm/s)^2 Wvar_(cm/s)^2 KE_(m/s)^2 TurbulentKE_(m/s)^2 HorizWindSpeed_cm/s FrictionSpeec_cm/s DragCoef SpeedOfSound_m/s SonicTemperature_C Pressure_mb 
03/19/2014  00:00:00      -72.933      -44.331      -19.238       29.340       30.884       25.412      860.854      953.850      645.755        0.506        0.123       85.350       13.957        0.027      333.128        2.241      863.085
03/19/2014  00:01:00      -80.037      -34.127      -21.055       24.405       21.878       19.225      595.593      478.643      369.618        0.473        0.072       87.009        9.391        0.012      333.041        2.097      863.086
03/19/2014  00:02:00      -84.520      -50.656      -27.629       21.129       20.298       14.344      446.418      412.009      205.750        0.577        0.053       98.538        5.041        0.003      333.102        2.198      863.091
03/19/2014  00:03:00      -99.596      -15.702      -19.679       24.195       21.100       17.319      585.415      445.203      299.946        0.594        0.067      100.826       10.783        0.011      333.037        2.090      863.086
03/19/2014  00:04:00      -89.883       -6.338      -10.152       26.428       20.411       23.063      698.454      416.627      531.881        0.493        0.082       90.106       17.413        0.037      333.057        2.122      863.078
03/19/2014  00:05:00     -103.791       -5.820      -17.274       21.157       15.876       16.294      447.609      252.033      265.490        0.603        0.048      103.954       13.180        0.016      333.044        2.100      863.070
03/19/2014  00:06:00      -81.570       -8.341      -13.420       14.401       15.022       11.408      207.399      225.662      130.140        0.373        0.028       81.995        7.219        0.008      333.324        2.565      863.058
03/19/2014  00:07:00      -83.658      -19.436      -15.111       14.696       11.182       12.404      215.985      125.036      153.861        0.405        0.025       85.886        3.971        0.002      333.214        2.382      863.042
03/19/2014  00:08:00      -69.639      -21.333      -14.989       10.444       10.679        9.375      109.072      114.034       87.899        0.292        0.016       72.833        4.494        0.004      333.242        2.427      863.037
03/19/2014  00:09:00      -50.414      -21.278      -13.385       11.079       10.436        8.276      122.742      108.912       68.496        0.174        0.015       54.720        4.446        0.007      333.415        2.715      863.020
03/19/2014  00:10:00      -32.346      -16.267       -6.662       16.068       17.203       11.264      258.184      295.935      126.885        0.102        0.034       36.206        7.381        0.042      333.525        2.897      863.007
03/19/2014  00:11:00      -30.246       -8.561       -8.810       16.356       14.902       13.007      267.510      222.065      169.180        0.086        0.033       31.434        5.910        0.035      333.580        2.989      863.004
03/19/2014  00:12:00       -8.649      -10.045      -10.402       21.984       16.489       16.174      483.295      271.895      261.591        0.065        0.051       13.256        5.838        0.194      333.728        3.234      862.984
03/19/2014  00:13:00      -36.006      -17.893       -0.821       17.022       14.754       12.303      289.738      217.677      151.366        0.114        0.033       40.207       11.149        0.077      333.721        3.224      862.984
03/19/2014  00:14:00      -56.910      -29.905       -4.107       14.486       12.609       10.369      209.850      158.990      107.510        0.231        0.024       64.289        6.350        0.010      333.491        2.840      862.978
03/19/2014  00:15:00      -68.528      -20.765      -13.699       11.470       16.584        8.986      131.553      275.025       80.740        0.290        0.024       71.605        7.092        0.010      333.196        2.352      862.975
03/19/2014  00:16:00      -64.466      -29.460       -8.237       12.664       15.573       12.008      160.389      242.513      144.195        0.282        0.027       70.879        9.163        0.017      333.183        2.331      862.996
03/19/2014  00:17:00      -59.181      -40.332      -13.466       14.706       16.167       11.076      216.262      261.362      122.669        0.296        0.030       71.617        5.589        0.006      333.303        2.529      863.021
03/19/2014  00:18:00      -63.094      -30.945      -16.056       12.157       16.057       10.438      147.797      257.819      108.961        0.286        0.026       70.274        8.272        0.014      333.208        2.371      863.039
03/19/2014  00:19:00      -64.583      -22.905      -12.242       17.374       20.661       12.724      301.867      426.861      161.901        0.287        0.045       68.525        9.680        0.020      333.320        2.555      863.049
03/19/2014  00:20:00      -41.071       -8.252      -15.135       27.571       18.685       12.137      760.159      349.116      147.300        0.162        0.063       41.892        9.695        0.054      333.424        2.728      863.060
03/19/2014  00:21:00      -24.768      104.541      -15.944       26.897       38.029       16.499      723.470     1446.230      272.219        0.712        0.122      107.435       20.720        0.037      334.257        4.109      863.068
03/19/2014  00:22:00      -15.804      148.409      -22.218       17.065       16.864       11.164      291.205      284.383      124.634        1.173        0.035      149.249        4.991        0.001      334.499        4.512      863.060
03/19/2014  00:23:00       -3.213      140.334      -21.186       18.244       21.323       10.873      332.839      454.665      118.224        1.053        0.045      140.371        8.715        0.004      334.467        4.461      863.039
03/19/2014  00:24:00       -4.168      155.281      -20.048       22.892       17.204       10.603      524.059      295.990      112.414        1.273        0.047      155.337        7.806        0.003      334.519        4.543      863.019
03/19/2014  00:25:00       17.071      162.480      -17.819       27.305       23.685       13.707      745.553      560.972      187.893        1.425        0.075      163.374       12.118        0.006      334.517        4.540      863.004
03/19/2014  00:26:00       31.384      165.632      -20.305       28.204       34.844       16.408      795.477     1214.134      269.231        1.555        0.114      168.579       11.212        0.004      334.472        4.466      862.979
03/19/2014  00:27:00       35.689      166.228      -23.159       27.993       28.494       22.651      783.597      811.881      513.063        1.577        0.105      170.016       17.687        0.011      334.478        4.475      862.963
03/19/2014  00:28:00       26.747      180.878      -24.046       24.134       21.544       10.853      582.440      464.144      117.778        1.759        0.058      182.845        9.413        0.003      334.526        4.555      862.949
03/19/2014  00:29:00       13.258      173.415      -23.884       24.057       22.925       12.420      578.749      525.570      154.251        1.604        0.063      173.921        9.072        0.003      334.418        4.376      862.948
03/19/2014  00:30:00      -21.806      155.066      -21.804       20.982       20.451       11.342      440.250      418.241      128.647        1.299        0.049      156.591        8.238        0.003      334.320        4.214      862.936
03/19/2014  00:31:00      -32.908      156.652      -18.875       24.949       32.360       21.699      622.451     1047.148      470.859        1.406        0.107      160.071       16.915        0.011      334.326        4.225      862.935
03/19/2014  00:32:00      -13.494      160.260      -19.221       26.291       20.397       11.668      691.195      416.026      136.138        1.374        0.062      160.827        4.669        0.001      334.261        4.117      862.929
03/19/2014  00:33:00      -11.677      149.220      -22.194       26.495       22.706       13.269      702.008      515.569      176.074        1.214        0.070      149.676        8.942        0.004      334.212        4.035      862.918
03/19/2014  00:34:00      -10.249      135.551      -22.075       17.240       21.439       12.032      297.218      459.649      144.779        0.993        0.045      135.938        6.825        0.003      334.132        3.904      862.907
03/19/2014  00:35:00      -10.475      135.933      -18.925       24.730       17.580       12.847      611.598      309.056      165.051        1.002        0.054      136.336        7.776        0.003      334.078        3.813      862.898
03/19/2014  00:36:00      -10.755      128.539      -20.237       20.643       14.525       10.827      426.140      210.978      117.215        0.890        0.038      128.988        6.052        0.002      334.054        3.774      862.894
03/19/2014  00:37:00      -16.413      122.598      -18.429       30.903       52.726       17.609      955.008     2780.035      310.074        0.984        0.202      123.691       18.506        0.022      334.141        3.919      862.885
03/19/2014  00:38:00      -12.189       72.961       -6.945       29.524       36.171       18.755      871.670     1308.348      351.738        0.403        0.127       73.972       14.266        0.037      333.896        3.511      862.893
03/19/2014  00:39:00       11.158       76.907       -5.241       27.438       26.631       18.350      752.856      709.204      336.711        0.393        0.090       77.712       15.186        0.038      333.950        3.601      862.896
03/19/2014  00:40:00        5.504       34.512       -5.545       31.905       47.033       16.742     1017.919     2212.148      280.311        0.238        0.176       34.948       20.709        0.351      333.742        3.256      862.897
03/19/2014  00:41:00      -46.639      -31.627       -6.591       16.453       13.388        9.818      270.711      179.232       96.394        0.188        0.027       56.351        8.128        0.021      333.245        2.432      862.900
03/19/2014  00:42:00      -53.811      -14.622      -15.865       16.723        7.581        8.631      279.664       57.472       74.501        0.189        0.021       55.763        6.553        0.014      333.247        2.437      862.898
03/19/2014  00:43:00      -52.131       -3.643      -15.444       10.970        7.117        6.946      120.342       50.650       48.246        0.159        0.011       52.259        2.451        0.002      333.215        2.382      862.895
03/19/2014  00:44:00      -26.709        4.619       -4.588       15.754       11.726        8.193      248.204      137.492       67.129        0.060        0.023       27.106        8.775        0.105      333.421        2.724      862.883
03/19/2014  00:45:00       11.746       20.674        3.686        8.858       14.028        5.657       78.472      196.780       32.000        0.044        0.015       23.778        6.396        0.072      333.930        3.567      862.873
03/19/2014  00:46:00       20.934       18.878        2.879       12.173        9.373        7.332      148.183       87.851       53.751        0.055        0.014       28.189        4.850        0.030      333.946        3.595      862.855
03/19/2014  00:47:00       13.923        8.002        0.295        9.040        9.471        6.048       81.719       89.707       36.574        0.023        0.010       16.058        6.467        0.162      333.920        3.552      862.842
03/19/2014  00:48:00       -1.434       13.645       -1.246        6.060        7.910        5.462       36.728       62.561       29.839        0.016        0.006       13.720        4.543        0.110      333.946        3.595      862.827
03/19/2014  00:49:00      -19.524       -5.269        0.658       10.335       13.706        6.421      106.808      187.863       41.232        0.037        0.017       20.222        5.747        0.081      333.618        3.051      862.819
03/19/2014  00:50:00      -30.865      -17.717       -0.924        8.534       10.893        7.293       72.832      118.668       53.184        0.076        0.012       35.589        4.005        0.013      333.480        2.821      862.815
03/19/2014  00:51:00      -26.452      -12.419       -6.966       10.440        7.264        5.980      108.996       52.772       35.764        0.055        0.010       29.222        4.818        0.027      333.550        2.936      862.824
03/19/2014  00:52:00      -36.939      -13.874       -8.211       11.790       10.690        6.175      139.006      114.266       38.137        0.096        0.015       39.459        5.160        0.017      333.472        2.809      862.825
03/19/2014  00:53:00      -38.355      -11.628       -9.452        7.792       10.463        6.313       60.723      109.464       39.854        0.095        0.011       40.079        1.964        0.002      333.432        2.742      862.824
03/19/2014  00:54:00      -52.812      -15.345       -5.020       10.889       13.538       10.478      118.566      183.289      109.783        0.173        0.021       54.996        8.425        0.023      333.371        2.643      862.824
03/19/2014  00:55:00      -69.018      -20.007       -9.882        8.073       10.424        7.356       65.169      108.650       54.106        0.274        0.011       71.860        4.008        0.003      333.118        2.223      862.825
03/19/2014  00:56:00      -69.060      -36.926       -9.948       10.727       10.899        9.326      115.078      118.798       86.980        0.328        0.016       78.312        4.395        0.003      333.060        2.127      862.826
03/19/2014  00:57:00      -70.263      -28.941       -8.013       15.682       12.179        9.698      245.912      148.319       94.058        0.316        0.024       75.990        5.510        0.005      333.014        2.052      862.834
03/19/2014  00:58:00      -75.043      -37.663       -4.146       13.956       11.250        9.501      194.772      126.555       90.261        0.374        0.021       83.964        4.022        0.002      333.011        2.046      862.842
03/19/2014  00:59:00      -27.101      -15.647       -4.224       14.828       12.647       10.160      219.861      159.950      103.225        0.074        0.024       31.294        9.274        0.088      333.020        2.062      862.846
03/19/2014  01:00:00      -72.727        6.789       -3.079       14.047       11.575        9.468      197.327      133.974       89.646        0.288        0.021       73.043        5.777        0.006      333.115        2.220      862.846
03/19/2014  01:01:00      -59.816      -12.504       -6.925       23.008       17.056       10.592      529.384      290.915      112.187        0.236        0.047       61.109        8.805        0.021      333.068        2.141      862.838
03/19/2014  01:02:00      -59.116      -18.345       -5.358       25.497       14.626       14.521      650.100      213.910      210.849        0.247        0.054       61.897       13.270        0.046      333.026        2.073      862.838
03/19/2014  01:03:00      -84.055       -6.828      -11.171       19.211       13.956       11.268      369.058      194.779      126.970        0.396        0.035       84.332       11.004        0.017      332.979        1.994      862.851
03/19/2014  01:04:00      -89.221       -2.486      -14.726       18.332       11.500        7.854      336.076      132.253       61.681        0.436        0.027       89.256        5.527        0.004      332.841        1.768      862.876
03/19/2014  01:05:00      -86.583       -8.832      -14.497       14.839       10.904       11.513      220.196      118.895      132.544        0.413        0.024       87.033        9.123        0.011      332.758        1.630      862.895
03/19/2014  01:06:00      -61.326       -4.093       -8.871       17.730       14.617       13.865      314.358      213.661      192.229        0.229        0.036       61.462       13.499        0.048      332.676        1.494      862.908
03/19/2014  01:07:00      -69.973      -16.312      -17.691       13.717       13.961       11.343      188.143      194.897      128.653        0.299        0.026       71.849        9.520        0.018      332.772        1.653      862.917
03/19/2014  01:08:00     -120.712      -36.557      -21.070       14.591       28.429       11.067      212.888      808.233      122.486        0.875        0.057      126.126       11.907        0.009      332.784        1.672      862.922
03/19/2014  01:09:00     -103.900      -67.695      -15.696       32.486       28.302       19.420     1055.344      801.024      377.136        0.893        0.112      124.007       17.837        0.021      332.671        1.485      862.923
03/19/2014  01:10:00     -139.306      -58.525      -10.065       26.645       24.229       17.606      709.948      587.038      309.986        1.227        0.080      151.101       16.728        0.012      332.670        1.484      862.926
03/19/2014  01:11:00     -103.387      -46.300       -0.813       17.849       24.321       16.397      318.584      591.494      268.869        0.701        0.059      113.281       12.493        0.012      332.694        1.524      862.932
03/19/2014  01:12:00      -95.031      -22.044      -13.985       10.188       11.868        7.249      103.786      140.858       52.541        0.500        0.015       97.555        6.121        0.004      332.819        1.730      862.940
03/19/2014  01:13:00      -79.336      -16.884      -12.208       13.634       12.327        9.689      185.895      151.948       93.876        0.358        0.022       81.113        6.393        0.006      332.952        1.949      862.954
03/19/2014  01:14:00      -52.649      -15.327       -5.570       13.662       14.478        7.132      186.639      209.620       50.869        0.174        0.022       54.834        4.340        0.006      332.990        2.013      862.957
03/19/2014  01:15:00      -39.354        5.531       -8.707        9.565        8.768        8.738       91.483       76.873       76.355        0.095        0.012       39.741        6.228        0.025      333.018        2.059      862.957
03/19/2014  01:16:00       13.240       24.142       -0.776       28.875       13.802       12.476      833.781      190.485      155.655        0.097        0.059       27.534        4.911        0.032      333.369        2.638      862.959
03/19/2014  01:17:00       24.212       39.719       -0.287       14.860       23.364       13.486      220.827      545.888      181.860        0.156        0.047       46.517       13.573        0.085      333.578        2.984      862.967
03/19/2014  01:18:00       33.189       50.442       -4.904       22.522       29.768       15.550      507.238      886.146      241.793        0.265        0.082       60.381       17.782        0.087      333.528        2.902      862.980
03/19/2014  01:19:00       26.974       48.302       -5.556       19.991       22.047       13.407      399.636      486.075      179.751        0.208        0.053       55.323       12.429        0.050      333.555        2.944      862.983
03/19/2014  01:20:00        9.164       60.744       -6.110        8.744       11.247        6.681       76.453      126.486       44.639        0.203        0.012       61.432        5.127        0.007      333.645        3.097      862.993
03/19/2014  01:21:00        6.173       60.530       -7.319       16.018       19.062       11.531      256.582      363.355      132.972        0.225        0.038       60.844        9.676        0.025      333.666        3.130      863.004
03/19/2014  01:22:00      -28.085        6.412        0.078       20.803       19.003       11.540      432.747      361.117      133.168        0.088        0.046       28.808        8.520        0.087      333.277        2.485      862.998
03/19/2014  01:23:00        0.354       28.042       -0.427       13.607       17.744       10.457      185.142      314.841      109.342        0.070        0.030       28.044       10.253        0.134      333.399        2.689      863.003
03/19/2014  01:24:00       -1.583       95.195      -15.840       20.102       21.218       11.833      404.087      450.199      140.020        0.515        0.050       95.208       10.101        0.011      333.643        3.092      863.004
03/19/2014  01:25:00       -3.409       97.881      -10.348       15.500       21.016       11.532      240.263      441.667      132.997        0.526        0.041       97.940       11.711        0.014      333.517        2.882      863.012
03/19/2014  01:26:00        0.770      106.769      -15.812       28.780       18.634       11.981      828.277      347.238      143.553        0.648        0.066      106.771        8.481        0.006      333.510        2.871      863.028
03/19/2014  01:27:00       16.628      129.890      -17.420       27.879       21.353       12.557      777.223      455.967      157.681        0.942        0.070      130.950       12.791        0.010      333.590        3.004      863.033
03/19/2014  01:28:00       15.952      134.708      -18.988       19.163       19.580       10.776      367.235      383.394      116.129        0.981        0.043      135.650       10.608        0.006      333.588        3.000      863.024
03/19/2014  01:29:00       27.814       85.348       -9.677       23.327       39.199       17.177      544.132     1536.553      295.054        0.526        0.119       89.765       17.269        0.037      333.447        2.768      863.024
03/19/2014  01:30:00       30.218       69.328       -4.866       22.269       34.675       20.177      495.896     1202.377      407.103        0.392        0.105       75.627       21.893        0.084      333.419        2.720      863.020
03/19/2014  01:31:00       24.721       52.818       -6.463       24.130       26.654       16.955      582.270      710.438      287.475        0.251        0.079       58.317       12.558        0.046      333.431        2.742      863.016
03/19/2014  01:32:00       28.885       77.067       -7.354       18.610       29.009       15.099      346.324      841.516      227.992        0.412        0.071       82.302       10.469        0.016      333.457        2.783      863.014
03/19/2014  01:33:00       38.177      111.721       -9.188       17.871       26.417       16.704      319.382      697.877      279.008        0.766        0.065      118.064       10.398        0.008      333.615        3.047      863.000
03/19/2014  01:34:00       24.114       80.543       -4.503       28.137       39.046       26.021      791.670     1524.604      677.098        0.504        0.150       84.075       24.803        0.087      333.589        3.003      862.986
03/19/2014  01:35:00       40.967      102.443      -15.635       20.559       27.850       16.268      422.683      775.599      264.636        0.694        0.073      110.330       14.716        0.018      333.591        3.004      862.973
03/19/2014  01:36:00       39.156      116.885      -14.625       23.378       28.159       20.354      546.540      792.919      414.266        0.858        0.088      123.269       16.783        0.019      333.656        3.113      862.965
03/19/2014  01:37:00       30.384       99.704       -7.488       26.420       37.527       22.908      698.005     1408.265      524.777        0.678        0.132      104.230       18.559        0.032      333.648        3.100      862.966
03/19/2014  01:38:00       31.995      109.672      -17.507       27.277       32.902       19.830      744.030     1082.533      393.232        0.779        0.111      114.243       19.096        0.028      333.668        3.134      862.964
03/19/2014  01:39:00       29.191      138.662      -22.652       22.146       19.522       12.317      490.464      381.110      151.715        1.081        0.051      141.701        6.935        0.002      333.804        3.359      862.971
03/19/2014  01:40:00       12.930      154.794      -21.049       26.476       22.186       12.482      700.999      492.239      155.788        1.296        0.067      155.334        7.047        0.002      333.746        3.262      862.976
03/19/2014  01:41:00       -0.790      160.466      -23.758       14.655       17.861        9.721      214.780      319.008       94.499        1.347        0.031      160.468        8.769        0.003      333.725        3.228      862.980
03/19/2014  01:42:00       -0.551      164.491      -20.479       18.310       17.184        9.443      335.238      295.291       89.161        1.410        0.036      164.492        6.054        0.001      333.621        3.055      862.978
03/19/2014  01:43:00       17.160      173.833      -25.939       18.785       23.060       11.325      352.888      531.772      128.260        1.610        0.051      174.678       10.030        0.003      333.704        3.192      862.985
03/19/2014  01:44:00        9.901      171.881      -24.495       21.288       27.787       11.569      453.176      772.122      133.847        1.580        0.068      172.166        8.159        0.002      333.729        3.233      862.998
03/19/2014  01:45:00      -15.600      161.382      -20.773       14.251       24.047       10.841      203.102      578.247      117.521        1.381        0.045      162.134        7.751        0.002      333.676        3.146      863.021
03/19/2014  01:46:00      -21.822      133.496      -15.680       19.334       26.127       14.938      373.807      682.619      223.157        0.991        0.064      135.268       12.400        0.008      333.730        3.236      863.046
03/19/2014  01:47:00      -44.594       49.248      -14.708       30.185       57.969       19.097      911.136     3360.436      364.697        0.463        0.232       66.438       20.007        0.091      332.997        2.025      863.065
03/19/2014  01:48:00      -39.145        0.642       -2.082       23.559       27.525       17.355      555.048      757.640      301.206        0.158        0.081       39.151       13.892        0.126      332.686        1.508      863.078
03/19/2014  01:49:00      -43.607       -6.999       -8.839       21.995       12.598       10.970      483.786      158.721      120.343        0.140        0.038       44.165        8.517        0.037      332.616        1.394      863.086
03/19/2014  01:50:00      -33.996      -13.397       -1.996       17.631       19.515       12.576      310.845      380.837      158.146        0.109        0.042       36.541        9.851        0.073      332.831        1.750      863.081
03/19/2014  01:51:00      -50.156      -13.981      -12.630       20.776       12.537       10.120      431.663      157.178      102.411        0.178        0.035       52.068       10.817        0.043      332.710        1.549      863.086
03/19/2014  01:52:00      -36.834      -30.370      -12.147       18.326       12.894       12.797      335.848      166.249      163.762        0.155        0.033       47.740        9.097        0.036      332.827        1.743      863.089
03/19/2014  01:53:00      -51.024      -34.821      -13.032       14.769       13.817       11.337      218.129      190.915      128.520        0.226        0.027       61.773        6.637        0.012      332.646        1.444      863.084
03/19/2014  01:54:00      -68.985      -17.265      -15.835       11.069       12.435       11.245      122.524      154.620      126.439        0.286        0.020       71.112        6.736        0.009      332.576        1.329      863.077
03/19/2014  01:55:00      -15.235       -9.641        2.214       25.717       17.327       11.340      661.369      300.209      128.593        0.071        0.055       18.029       10.641        0.348      333.217        2.386      863.054
03/19/2014  01:56:00      -48.330      -39.002       -6.533       13.881       13.395       13.296      192.675      179.414      176.776        0.222        0.027       62.105        6.413        0.011      332.839        1.762      863.046
03/19/2014  01:57:00      -41.569       -7.088       -9.542       26.522       13.448       12.226      703.423      180.854      149.482        0.145        0.052       42.169       12.119        0.083      332.942        1.933      863.031
03/19/2014  01:58:00      -30.552      -13.531        6.149       14.684       15.179       14.383      215.607      230.412      206.879        0.090        0.033       33.415       11.294        0.114      333.027        2.073      863.012
03/19/2014  01:59:00        1.665       16.165       -6.084       21.376       15.009       13.616      456.950      225.270      185.404        0.058        0.043       16.250       11.344        0.487      333.195        2.351      863.002
03/19/2014  02:00:00        4.487       54.513       -9.210       13.447        9.282        6.738      180.811       86.158       45.400        0.169        0.016       54.697        4.913        0.008      333.534        2.911      862.996
03/19/2014  02:01:00        7.685       61.274       -6.103       13.187       14.500        8.018      173.909      210.243       64.289        0.215        0.022       61.754        7.343        0.014      333.612        3.040      863.008
03/19/2014  02:02:00       -7.043       44.384       -4.167       13.061        8.348        5.919      170.589       69.691       35.036        0.116        0.014       44.939        4.555        0.010      333.645        3.097      863.015
03/19/2014  02:03:00       -3.542       49.986       -3.741       14.369       10.867        7.035      206.467      118.085       49.491        0.145        0.019       50.111        6.942        0.019      333.663        3.124      863.035
03/19/2014  02:04:00       -1.985       51.135       -5.186        9.477       10.312        5.659       89.817      106.330       32.030        0.144        0.011       51.173        5.505        0.012      333.692        3.175      863.035
03/19/2014  02:05:00      -24.346        6.416       -0.944       14.799       23.423        7.523      219.017      548.660       56.603        0.073        0.041       25.177        7.048        0.078      333.109        2.208      863.029
03/19/2014  02:06:00      -23.733       -7.446        3.049       17.811       13.145        8.820      317.224      172.781       77.788        0.060        0.028       24.874        7.529        0.092      332.949        1.944      863.022
03/19/2014  02:07:00      -55.541      -23.447      -14.851       13.685       13.341       10.880      187.274      177.989      118.364        0.217        0.024       60.287        6.204        0.011      332.673        1.489      863.018
03/19/2014  02:08:00      -86.633      -27.451      -15.710       22.913       12.841        9.579      525.001      164.902       91.758        0.464        0.039       90.878        5.294        0.003      332.449        1.118      863.022
03/19/2014  02:09:00     -112.174      -41.321      -24.051       17.391       24.836       12.738      302.454      616.809      162.253        0.798        0.054      119.543        9.092        0.006      332.315        0.898      863.038
03/19/2014  02:10:00      -55.835      -51.351       -7.419       31.964       21.440       27.559     1021.721      459.660      759.484        0.402        0.112       75.859       20.523        0.073      332.316        0.898      863.052
03/19/2014  02:11:00     -105.024      -44.482      -21.567       26.771       31.358       17.901      716.713      983.354      320.448        0.775        0.101      114.056        5.927        0.003      332.167        0.654      863.057
03/19/2014  02:12:00     -101.741      -30.742      -21.974       26.547       25.392       19.672      704.762      644.776      386.995        0.676        0.087      106.284       10.998        0.011      332.231        0.759      863.043
03/19/2014  02:13:00     -114.783      -20.154      -14.808       33.009       31.492       21.791     1089.572      991.770      474.840        0.818        0.128      116.539       15.432        0.018      332.208        0.722      863.024
03/19/2014  02:14:00     -115.756      -24.856      -15.760       38.979       18.891       14.952     1519.349      356.867      223.557        0.818        0.105      118.394       12.063        0.010      332.261        0.810      863.012
03/19/2014  02:15:00     -100.167      -45.730      -17.509       20.106       20.479       19.663      404.257      419.392      386.641        0.682        0.061      110.112        6.395        0.003      332.293        0.862      863.017
03/19/2014  02:16:00      -96.753      -29.890      -20.891       31.479       21.259       18.082      990.897      451.953      326.947        0.623        0.088      101.264       11.141        0.012      332.401        1.039      863.030
03/19/2014  02:17:00      -23.222      -15.242        5.571       39.359       32.003       32.708     1549.168     1024.195     1069.795        0.222        0.182       27.777       27.367        0.971      332.303        0.878      863.023
03/19/2014  02:18:00      -90.491      -46.840       -9.441       28.477       23.447       14.402      810.925      549.774      207.409        0.602        0.078      101.895       12.546        0.015      332.225        0.750      863.003
03/19/2014  02:19:00      -56.527      -62.432       -8.196       22.773       25.283       22.364      518.615      639.254      500.155        0.441        0.083       84.221       12.178        0.021      332.289        0.854      862.974
03/19/2014  02:20:00      -73.930      -32.055      -21.514       25.052       18.745       14.936      627.594      351.367      223.092        0.408        0.060       80.581       15.583        0.037      332.345        0.948      862.944
03/19/2014  02:21:00      -77.722        4.153       -8.504       21.476       17.321       12.605      461.219      300.003      158.889        0.353        0.046       77.833        8.950        0.013      332.751        1.618      862.930
03/19/2014  02:22:00      -80.612        8.913       -4.158       20.922       18.911       14.055      437.733      357.633      197.544        0.379        0.050       81.103        8.384        0.011      332.599        1.366      862.921
03/19/2014  02:23:00      -78.614      -38.840      -12.136       24.444       19.727       18.226      597.491      389.152      332.171        0.458        0.066       87.686       15.274        0.030      332.324        0.912      862.920
03/19/2014  02:24:00      -82.546      -38.468      -18.291       18.349       16.404       13.349      336.695      269.105      178.209        0.471        0.039       91.069        7.093        0.006      332.265        0.815      862.935
03/19/2014  02:25:00      -79.463      -56.543      -18.552       18.462       18.461       12.911      340.863      340.825      166.690        0.535        0.042       97.527        4.762        0.002      332.276        0.834      862.936
03/19/2014  02:26:00     -110.900      -40.143      -18.235       17.357       24.906       10.623      301.282      620.297      112.844        0.764        0.052      117.941       10.833        0.008      332.142        0.613      862.929
03/19/2014  02:27:00     -116.581      -23.972      -17.687       15.287       13.795        9.870      233.684      190.292       97.409        0.750        0.026      119.020        6.183        0.003      332.175        0.666      862.932
03/19/2014  02:28:00     -118.239      -20.950      -14.535       18.641       14.318       15.246      347.503      204.996      232.431        0.771        0.039      120.081       12.177        0.010      332.192        0.696      862.930
03/19/2014  02:29:00      -94.504      -39.415      -18.318       16.686       15.269       11.730      278.429      233.139      137.600        0.573        0.032      102.394        7.999        0.006      332.286        0.849      862.921
03/19/2014  02:30:00     -101.739      -32.660      -13.555       14.270       13.958        8.392      203.621      194.827       70.425        0.603        0.023      106.853        3.989        0.001      332.226        0.750      862.917
03/19/2014  02:31:00     -119.792      -32.712      -17.654       11.820       11.698        9.626      139.706      136.851       92.660        0.805        0.018      124.178        3.576        0.001      332.256        0.803      862.921
03/19/2014  02:32:00     -109.977      -41.882       -7.721       19.071       19.882       13.871      363.714      395.291      192.411        0.743        0.048      117.682        7.792        0.004      332.309        0.889      862.905
03/19/2014  02:33:00      -87.026      -43.032      -14.625       24.426       22.074       17.009      596.614      487.264      289.291        0.551        0.069       97.084        8.120        0.007      332.255        0.800      862.896
03/19/2014  02:34:00     -120.806      -55.886       -8.281       14.248       11.849       10.852      203.012      140.402      117.758        0.912        0.023      133.106        7.165        0.003      332.226        0.752      862.896
03/19/2014  02:35:00     -136.026      -59.124      -11.245       18.296       15.952       12.366      334.738      254.470      152.915        1.143        0.037      148.319        6.832        0.002      332.345        0.949      862.896
03/19/2014  02:36:00     -139.223      -60.337       -8.279       25.715       28.094       16.335      661.284      789.256      266.831        1.240        0.086      151.736       13.535        0.008      332.290        0.856      862.896
03/19/2014  02:37:00     -155.112      -43.886      -13.784       15.627       15.509       12.865      244.214      240.532      165.507        1.341        0.033      161.201        5.072        0.001      332.202        0.713      862.910
03/19/2014  02:38:00     -163.819      -49.540      -13.033       22.953       18.976       19.881      526.849      360.077      395.259        1.537        0.064      171.145       14.366        0.007      332.194        0.700      862.926
03/19/2014  02:39:00     -170.271      -46.841       -8.920       28.003       25.263       19.280      784.184      638.201      371.726        1.653        0.090      176.596       17.995        0.010      332.124        0.584      862.936
03/19/2014  02:40:00     -160.716      -52.857       -4.856       31.681       26.608       20.055     1003.669      708.005      402.218        1.538        0.106      169.185       15.962        0.009      332.134        0.600      862.948
03/19/2014  02:41:00     -157.806      -59.677       -2.553       26.588       20.341       16.626      706.927      413.776      276.411        1.493        0.070      168.713       14.005        0.007      332.139        0.607      862.968
03/19/2014  02:42:00     -122.373      -53.923        1.421       38.274       30.247       18.715     1464.923      914.899      350.242        1.031        0.137      133.726       17.738        0.018      332.113        0.564      862.971
03/19/2014  02:43:00     -130.575      -55.757       -3.107       36.072       29.161       23.279     1301.164      850.390      541.903        1.143        0.135      141.982       21.469        0.023      332.075        0.501      862.967
03/19/2014  02:44:00     -136.615      -60.256       -4.631       37.070       26.113       22.636     1374.193      681.899      512.407        1.244        0.128      149.313       21.899        0.022      332.026        0.421      862.967
03/19/2014  02:45:00     -142.692      -64.344      -11.121       26.964       27.250       20.264      727.044      742.580      410.613        1.325        0.094      156.528       14.277        0.008      331.963        0.317      862.970
03/19/2014  02:46:00     -155.861      -60.474       -2.592       23.488       31.621       20.421      551.677      999.912      417.012        1.496        0.098      167.182       11.610        0.005      332.109        0.557      862.988
03/19/2014  02:47:00     -141.090      -54.082       -4.646       24.319       24.020       16.483      591.393      576.969      271.681        1.215        0.072      151.100       12.034        0.006      332.013        0.398      862.997
03/19/2014  02:48:00      -96.943      -53.700      -16.204       29.496       22.595       15.364      869.992      510.543      236.042        0.708        0.081      110.822        8.850        0.006      332.049        0.459      863.000
03/19/2014  02:49:00      -90.224      -32.640      -15.825       21.166       15.116       19.375      448.020      228.507      375.403        0.525        0.053       95.946       10.647        0.012      332.040        0.445      862.996
03/19/2014  02:50:00      -92.783      -38.295      -10.690       18.250       22.090       14.341      333.046      487.953      205.667        0.561        0.051      100.375       13.818        0.019      332.188        0.689      862.973
03/19/2014  02:51:00      -97.473      -14.903      -11.008       18.545       24.867       18.011      343.931      618.378      324.403        0.557        0.064       98.606       11.506        0.014      332.124        0.582      862.964
03/19/2014  02:52:00     -110.909      -48.711       -9.809       25.934       25.920       17.357      672.588      671.821      301.269        0.821        0.082      121.135        9.528        0.006      332.045        0.453      862.983
03/19/2014  02:53:00     -146.680      -49.442      -19.432       11.726       16.472       11.611      137.491      271.316      134.811        1.244        0.027      154.789        7.333        0.002      331.880        0.181      862.979
03/19/2014  02:54:00     -101.427      -54.612      -13.644       35.277       16.730       15.138     1244.483      279.901      229.165        0.760        0.088      115.195       15.562        0.018      331.860        0.146      862.978
03/19/2014  02:55:00      -68.835      -19.032       -0.880       27.109       20.330       14.544      734.897      413.301      211.532        0.323        0.068       71.417        9.506        0.018      331.963        0.315      862.974
03/19/2014  02:56:00     -111.103      -41.007      -14.091       23.043       19.427       18.204      530.974      377.424      331.381        0.773        0.062      118.429       10.952        0.009      331.910        0.229      862.971
03/19/2014  02:57:00      -99.979      -24.953       -8.942       29.667       26.270       17.970      880.117      690.128      322.938        0.630        0.095      103.046       13.664        0.018      331.823        0.087      862.963
03/19/2014  02:58:00      -92.375      -38.104      -12.123       26.317       21.207       18.812      692.586      449.728      353.901        0.581        0.075       99.926        8.728        0.008      331.885        0.188      862.939
03/19/2014  02:59:00     -109.022      -50.172      -11.682       28.062       27.387       14.095      787.482      750.057      198.676        0.814        0.087      120.013       10.872        0.008      331.930        0.262      862.919
03/19/2014  03:00:00     -114.300      -41.646      -12.743       20.190       15.082       14.146      407.634      227.480      200.120        0.790        0.042      121.650        7.628        0.004      331.968        0.325      862.894
03/19/2014  03:01:00     -101.025      -57.094      -15.025       19.204       15.525       17.861      368.811      241.015      319.024        0.731        0.046      116.042        4.310        0.001      331.991        0.362      862.872
03/19/2014  03:02:00     -126.541      -54.533      -16.297       12.390       18.569       12.240      153.524      344.808      149.811        0.995        0.032      137.792        7.394        0.003      331.972        0.330      862.877
03/19/2014  03:03:00     -124.880      -42.261       -8.651       17.975       17.631       13.942      323.097      310.850      194.386        0.914        0.041      131.837        9.230        0.005      332.051        0.462      862.898
03/19/2014  03:04:00     -127.944      -47.942      -10.113       16.751       13.401       10.530      280.595      179.595      110.884        0.967        0.029      136.631        5.126        0.001      332.023        0.416      862.899
03/19/2014  03:05:00     -125.120      -41.242       -7.041       14.419       13.380       10.939      207.912      179.012      119.669        0.896        0.025      131.742        5.047        0.001      332.056        0.471      862.890
03/19/2014  03:06:00     -120.153      -53.981      -10.620       16.034       14.890        9.147      257.098      221.698       83.660        0.901        0.028      131.722        4.044        0.001      332.061        0.479      862.883
03/19/2014  03:07:00     -130.420      -37.797      -11.298       10.951       15.425        9.828      119.915      237.932       96.585        0.951        0.023      135.787        2.110        0.000      332.005        0.385      862.880
03/19/2014  03:08:00     -120.055      -53.737       -9.032       13.923       20.644       14.943      193.845      426.173      223.288        0.911        0.042      131.533        8.329        0.004      332.008        0.390      862.864
03/19/2014  03:09:00     -100.559      -50.294      -11.104       19.296       17.341       12.879      372.320      300.718      165.869        0.680        0.042      112.435        3.904        0.001      332.047        0.455      862.843
03/19/2014  03:10:00     -115.210      -30.420      -11.657       18.014       20.441       13.251      324.508      417.837      175.593        0.763        0.046      119.158        8.999        0.006      331.937        0.275      862.835
03/19/2014  03:11:00      -66.302      -36.289        7.145       34.849       29.135       19.399     1214.426      848.865      376.332        0.410        0.122       75.583       19.455        0.066      332.013        0.400      862.835
03/19/2014  03:12:00     -100.349      -38.613      -14.000       27.280       21.889       16.781      744.193      479.142      281.603        0.663        0.075      107.521       10.042        0.009      332.053        0.465      862.846
03/19/2014  03:13:00      -58.626      -19.658       -4.446       56.277       27.276       26.699     3167.147      743.962      712.847        0.423        0.231       61.834       32.814        0.282      332.063        0.483      862.843
03/19/2014  03:14:00      -44.518      -35.537        7.472       60.886       32.182       19.936     3707.070     1035.679      397.446        0.422        0.257       56.962       28.841        0.256      332.009        0.393      862.836
03/19/2014  03:15:00     -118.854      -71.455       -2.716       54.607       32.872       18.575     2981.936     1080.586      345.020        1.182        0.220      138.680       23.149        0.028      331.946        0.288      862.847
03/19/2014  03:16:00      -62.699      -64.409       -4.426       46.999       31.807       24.742     2208.923     1011.676      612.184        0.597        0.192       89.887       12.228        0.019      332.008        0.391      862.858
03/19/2014  03:17:00      -84.032      -99.719       -4.747       30.478       43.172       23.168      928.896     1863.804      536.767        1.018        0.166      130.404       16.325        0.016      331.983        0.350      862.845
03/19/2014  03:18:00      -91.064      -43.823        1.150       31.797       18.557       19.552     1011.020      344.378      382.274        0.598        0.087      101.060       15.267        0.023      332.025        0.420      862.824
03/19/2014  03:19:00      -70.438      -68.571        4.733       59.987       58.581       25.131     3598.432     3431.703      631.556        0.867        0.383       98.303       26.670        0.074      332.041        0.446      862.804
03/19/2014  03:20:00     -138.645     -137.187      -16.266       62.008       52.224       36.961     3844.933     2727.315     1366.096        2.312        0.397      195.045       27.481        0.020      331.841        0.114      862.775
03/19/2014  03:21:00     -113.538     -110.824       -6.909       60.298       57.220       35.247     3635.789     3274.149     1242.331        1.668        0.408      158.659       40.036        0.064      331.852        0.133      862.768
03/19/2014  03:22:00     -141.413      -90.065        0.588       47.952       36.401       28.316     2299.374     1325.059      801.792        1.627        0.221      167.658       23.415        0.020      331.917        0.241      862.756
03/19/2014  03:23:00     -168.178     -131.972      -10.552       76.650       53.325       38.287     5875.205     2843.507     1465.883        2.800        0.509      213.777       38.551        0.033      331.715       -0.094      862.760
03/19/2014  03:24:00     -164.507     -137.397      -14.095       55.343       56.707       37.308     3062.807     3215.719     1391.857        2.690        0.384      214.337       29.136        0.018      331.759       -0.020      862.772
03/19/2014  03:25:00     -119.583      -83.672        2.923       62.747       42.120       34.155     3937.194     1774.095     1166.593        1.409        0.344      145.949       30.489        0.044      331.772        0.002      862.787
03/19/2014  03:26:00     -132.037     -114.890        0.144       45.190       42.865       31.013     2042.143     1837.408      961.795        1.774        0.242      175.024       27.906        0.025      331.731       -0.064      862.792
03/19/2014  03:27:00     -115.465      -81.703        3.258       62.506       44.911       28.412     3907.031     2016.991      807.268        1.337        0.337      141.448       28.870        0.042      331.731       -0.064      862.779
03/19/2014  03:28:00     -132.565      -94.405        5.048       59.359       40.005       32.046     3523.492     1600.398     1026.933        1.633        0.308      162.745       31.386        0.037      331.697       -0.121      862.756
03/19/2014  03:29:00     -159.291      -61.122        4.440       59.325       47.136       26.018     3519.507     2221.777      676.919        1.777        0.321      170.615       20.464        0.014      331.712       -0.095      862.733
03/19/2014  03:30:00     -141.103      -89.920        3.594       66.372       51.852       29.023     4405.243     2688.642      842.331        1.797        0.397      167.320       35.778        0.046      331.686       -0.139      862.719
03/19/2014  03:31:00     -115.514      -88.639        5.188       64.325       48.840       27.678     4137.752     2385.394      766.064        1.426        0.364      145.604       22.874        0.025      331.693       -0.126      862.708
03/19/2014  03:32:00     -102.506      -66.808        5.715       55.231       41.657       29.343     3050.493     1735.335      861.014        1.032        0.282      122.355       26.379        0.046      331.742       -0.047      862.693
03/19/2014  03:33:00     -104.562      -53.370        4.126       48.895       37.130       24.668     2390.704     1378.616      608.496        0.909        0.219      117.395       24.711        0.044      331.786        0.027      862.668
03/19/2014  03:34:00     -110.853      -85.461       -9.236       43.935       34.267       21.803     1930.300     1174.240      475.350        1.163        0.179      139.971       12.310        0.008      331.893        0.202      862.641
03/19/2014  03:35:00     -155.323      -50.852      -10.376       36.351       30.155       18.784     1321.364      909.297      352.844        1.470        0.129      163.435       15.337        0.009      331.758       -0.019      862.639
03/19/2014  03:36:00     -120.692      -73.006       -0.913       28.295       36.934       21.861      800.593     1364.107      477.915        1.127        0.132      141.055       19.776        0.020      331.961        0.314      862.638
03/19/2014  03:37:00     -142.966      -31.503       -5.056       38.577       32.381       24.049     1488.158     1048.546      578.373        1.229        0.156      146.396       21.975        0.023      331.906        0.223      862.630
03/19/2014  03:38:00     -129.624      -57.262       -3.797       24.409       23.981       19.232      595.788      575.092      369.873        1.082        0.077      141.708       15.699        0.012      331.890        0.199      862.626
03/19/2014  03:39:00      -99.404      -52.076       -1.371       41.168       33.783       23.386     1694.826     1141.271      546.897        0.799        0.169      112.218       22.679        0.041      332.040        0.443      862.626
03/19/2014  03:40:00      -87.766      -54.295        2.309       44.525       22.191       21.571     1982.462      492.442      465.316        0.680        0.147      103.203       18.908        0.034      332.046        0.454      862.617
03/19/2014  03:41:00      -64.805      -40.903       -7.305       53.046       28.456       22.102     2813.925      809.746      488.520        0.502        0.206       76.634       20.944        0.075      331.941        0.282      862.602
03/19/2014  03:42:00      -57.126      -48.839       -3.564       34.794       26.170       17.158     1210.620      684.882      294.412        0.393        0.109       75.157       10.799        0.021      331.915        0.238      862.590
03/19/2014  03:43:00      -90.669      -56.093       -3.587       29.352       22.107       17.095      861.562      488.731      292.233        0.651        0.082      106.617       12.020        0.013      331.857        0.142      862.571
03/19/2014  03:44:00      -81.695      -45.524       -0.622       34.439       23.592       22.236     1186.070      556.565      494.457        0.549        0.112       93.523       18.449        0.039      331.707       -0.104      862.545
03/19/2014  03:45:00      -48.893      -33.167        7.747       47.934       33.475       25.290     2297.626     1120.569      639.599        0.380        0.203       59.081       25.001        0.179      331.794        0.040      862.539
03/19/2014  03:46:00      -87.718      -62.751       -0.493       45.870       33.270       19.668     2104.066     1106.904      386.816        0.761        0.180      107.852       20.904        0.038      331.693       -0.127      862.544
03/19/2014  03:47:00     -110.604      -73.186        2.002       35.641       32.782       18.481     1270.266     1074.631      341.550        1.014        0.134      132.625       12.937        0.010      331.705       -0.108      862.537
03/19/2014  03:48:00     -112.741      -46.196       -7.756       33.872       25.332       18.256     1147.316      641.709      333.287        0.851        0.106      121.838       18.116        0.022      331.633       -0.228      862.511
03/19/2014  03:49:00     -122.462      -66.997      -21.160       23.799       20.165       14.093      566.389      406.633      198.611        1.055        0.059      139.590        8.423        0.004      331.561       -0.345      862.493
03/19/2014  03:50:00     -105.568      -71.825       -6.210       35.440       25.455       26.546     1256.020      647.934      704.666        0.947        0.130      127.685       20.475        0.026      331.638       -0.217      862.494
03/19/2014  03:51:00     -130.583      -76.144       -5.527       37.053       28.866       20.918     1372.933      833.253      437.560        1.276        0.132      151.162       15.797        0.011      331.557       -0.350      862.503
03/19/2014  03:52:00     -164.725      -56.975       -9.509       19.794       26.887       16.192      391.820      722.888      262.189        1.592        0.069      174.300       12.416        0.005      331.538       -0.383      862.517
03/19/2014  03:53:00     -158.037      -79.669       -4.139       29.481       25.613       19.074      869.138      656.039      363.820        1.661        0.094      176.982       16.154        0.008      331.561       -0.344      862.525
03/19/2014  03:54:00     -145.436      -72.495       -0.887       31.560       23.311       15.945      996.019      543.380      254.237        1.410        0.090      162.503       16.471        0.010      331.567       -0.333      862.529
03/19/2014  03:55:00     -140.471      -72.982      -11.105       25.101       22.693       17.695      630.054      514.992      313.119        1.332        0.073      158.298       10.848        0.005      331.582       -0.310      862.538
03/19/2014  03:56:00     -139.294      -37.551      -12.445       20.852       31.336       16.781      434.820      981.937      281.597        1.133        0.085      144.267        9.440        0.004      331.685       -0.140      862.547
03/19/2014  03:57:00     -116.487      -54.556       -7.273       24.264       25.043       16.181      588.725      627.153      261.825        0.904        0.074      128.630       10.846        0.007      331.672       -0.161      862.553
03/19/2014  03:58:00     -120.114      -32.784      -10.251       22.141       33.231       18.374      490.239     1104.281      337.619        0.877        0.097      124.508       11.733        0.009      331.612       -0.261      862.562
03/19/2014  03:59:00     -105.502      -52.120       -6.126       37.019       33.657       21.065     1370.375     1132.805      443.729        0.842        0.147      117.674       16.702        0.020      331.602       -0.276      862.560
03/19/2014  04:00:00     -106.740      -53.796       -3.081       32.969       27.746       21.411     1086.977      769.823      458.415        0.831        0.116      119.530       15.125        0.016      331.592       -0.292      862.541
03/19/2014  04:01:00      -93.101      -56.218        0.063       49.296       28.954       25.144     2430.076      838.358      632.229        0.786        0.195      108.758       23.106        0.045      331.631       -0.229      862.522
03/19/2014  04:02:00     -112.497      -54.244       -8.756       31.346       23.013       13.037      982.541      529.577      169.961        0.868        0.084      124.892        3.436        0.001      331.698       -0.119      862.506
03/19/2014  04:03:00      -94.024      -58.496       -2.672       35.872       24.194       18.777     1286.780      585.358      352.565        0.725        0.111      110.735       14.147        0.016      331.640       -0.215      862.495
03/19/2014  04:04:00      -39.580      -36.062       10.740       55.013       34.371       24.438     3026.382     1181.393      597.225        0.389        0.240       53.544       32.105        0.360      331.628       -0.236      862.483
03/19/2014  04:05:00      -74.151      -18.714       -3.817       38.652       18.400       11.022     1493.946      338.551      121.493        0.391        0.098       76.476        6.374        0.007      331.650       -0.197      862.486
03/19/2014  04:06:00      -38.602      -33.660        0.120       44.034       30.457       20.380     1938.952      927.605      415.337        0.295        0.164       51.216       19.890        0.151      331.723       -0.080      862.504
03/19/2014  04:07:00     -105.667      -55.224       -3.691       51.003       31.693       21.710     2601.344     1004.429      471.337        0.915        0.204      119.228       25.820        0.047      331.613       -0.259      862.532
03/19/2014  04:08:00     -138.255      -63.703      -11.144       36.427       31.234       18.962     1326.949      975.557      359.550        1.298        0.133      152.225       18.410        0.015      331.492       -0.458      862.554
03/19/2014  04:09:00     -153.964      -38.427      -11.705       26.284       37.216       21.554      690.825     1385.042      464.587        1.393        0.127      158.687       15.409        0.009      331.444       -0.539      862.548
03/19/2014  04:10:00      -96.426      -15.466       -2.786       38.819       26.301       21.604     1506.922      691.729      466.715        0.610        0.133       97.658       21.937        0.050      331.413       -0.589      862.530
03/19/2014  04:11:00      -58.063      -27.814        3.287       21.640       25.960       16.361      468.298      673.906      267.687        0.278        0.070       64.381       13.970        0.047      331.488       -0.464      862.502
03/19/2014  04:12:00      -72.436      -37.497        2.039       31.817       22.257       15.193     1012.321      495.388      230.841        0.420        0.087       81.566       16.109        0.039      331.513       -0.425      862.487
03/19/2014  04:13:00      -50.063      -38.187        6.153       41.467       28.857       21.812     1719.545      832.735      475.757        0.351        0.151       62.964       21.470        0.116      331.566       -0.337      862.482
03/19/2014  04:14:00      -52.030      -60.657       11.654       37.258       30.889       29.201     1388.188      954.128      852.700        0.486        0.160       79.915       24.275        0.092      331.581       -0.311      862.484
03/19/2014  04:15:00     -115.700      -64.859        2.297       44.910       29.859       25.416     2016.897      891.582      645.961        1.058        0.178      132.639       24.386        0.034      331.465       -0.504      862.492
03/19/2014  04:16:00     -115.746      -63.693        5.074       44.683       30.920       25.700     1996.592      956.025      660.513        1.055        0.181      132.114       27.030        0.042      331.416       -0.583      862.490
03/19/2014  04:17:00      -93.317      -39.806      -10.553       31.699       21.780       17.182     1004.857      474.366      295.223        0.609        0.089      101.452       11.188        0.012      331.420       -0.576      862.486
03/19/2014  04:18:00      -91.287      -45.068      -12.119       30.142       21.053       20.521      908.568      443.213      421.097        0.614        0.089      101.806       11.081        0.012      331.478       -0.482      862.478
03/19/2014  04:19:00      -75.257      -50.281       -4.018       34.307       21.385       20.343     1176.944      457.319      413.831        0.513        0.102       90.508       18.125        0.040      331.450       -0.528      862.478
03/19/2014  04:20:00      -69.529      -56.592      -13.325       26.000       21.653       16.502      676.007      468.838      272.330        0.482        0.071       89.649       11.556        0.017      331.467       -0.500      862.492
03/19/2014  04:21:00      -88.505      -68.871       -5.056       25.470       23.694       18.179      648.717      561.387      330.472        0.707        0.077      112.144        8.839        0.006      331.448       -0.529      862.502
03/19/2014  04:22:00     -111.795      -50.808        1.140       33.500       23.363       18.241     1122.261      545.830      332.718        0.854        0.100      122.799       14.845        0.015      331.386       -0.632      862.492
03/19/2014  04:23:00     -128.691      -62.612       -9.183       18.477       22.301       14.260      341.387      497.352      203.341        1.080        0.052      143.114       10.504        0.005      331.328       -0.727      862.475
03/19/2014  04:24:00     -133.476      -52.010      -13.562       16.706       18.129       13.640      279.095      328.646      186.058        1.075        0.040      143.251        7.385        0.003      331.288       -0.792      862.468
03/19/2014  04:25:00     -141.035      -54.448       -8.100       23.674       26.850       17.328      560.478      720.922      300.248        1.225        0.079      151.180       12.852        0.007      331.236       -0.878      862.469
03/19/2014  04:26:00      -73.072      -43.306        6.858       52.432       40.472       28.210     2749.111     1637.978      795.777        0.622        0.259       84.941       28.929        0.116      331.308       -0.762      862.482
03/19/2014  04:27:00      -89.134      -65.564        7.612       55.587       35.832       26.846     3089.863     1283.944      720.702        0.870        0.255      110.650       29.238        0.070      331.256       -0.846      862.494
03/19/2014  04:28:00     -109.960      -48.145       -0.674       43.406       26.604       18.435     1884.080      707.798      339.832        0.867        0.147      120.038       10.869        0.008      331.266       -0.827      862.506
03/19/2014  04:29:00      -66.918      -49.715       -2.231       49.657       36.405       19.276     2465.834     1325.317      371.546        0.556        0.208       83.364       22.545        0.073      331.283       -0.800      862.521
03/19/2014  04:30:00      -66.409      -49.035       10.040       46.223       34.054       23.626     2136.610     1159.704      558.185        0.538        0.193       82.550       24.261        0.086      331.345       -0.700      862.531
03/19/2014  04:31:00      -43.138      -68.364       13.215       39.627       49.983       22.368     1570.264     2498.306      500.315        0.564        0.228       80.836       26.502        0.107      331.393       -0.621      862.531
03/19/2014  04:32:00      -98.283      -86.171       -5.641       35.138       29.684       14.629     1234.686      881.116      214.015        0.972        0.116      130.709       11.725        0.008      331.336       -0.714      862.513
03/19/2014  04:33:00      -96.040      -45.191        0.909       63.963       35.911       21.976     4091.238     1289.587      482.941        0.856        0.293      106.141       20.861        0.039      331.353       -0.686      862.514
03/19/2014  04:34:00     -103.368      -57.742       -0.944       46.583       34.927       25.480     2169.975     1219.866      649.213        0.903        0.202      118.402       24.720        0.044      331.254       -0.848      862.521
03/19/2014  04:35:00     -106.733      -85.597       -8.387       39.999       31.567       21.763     1599.920      996.497      473.613        1.093        0.154      136.816       20.109        0.022      331.333       -0.719      862.524
03/19/2014  04:36:00      -78.590      -71.343        7.057       43.977       38.826       23.806     1934.005     1507.427      566.727        0.766        0.200      106.142       22.062        0.043      331.339       -0.711      862.504
03/19/2014  04:37:00     -128.917      -76.468       -2.202       51.824       29.030       25.230     2685.695      842.730      636.531        1.332        0.208      149.890       26.320        0.031      331.350       -0.691      862.484
03/19/2014  04:38:00     -100.791      -49.612        9.945       60.195       20.853       24.987     3623.460      434.835      624.370        0.870        0.234      112.340       28.099        0.063      331.407       -0.598      862.463
03/19/2014  04:39:00     -100.463      -76.062        5.413       37.619       32.744       20.958     1415.204     1072.183      439.219        0.942        0.146      126.009       18.407        0.021      331.485       -0.472      862.465
03/19/2014  04:40:00      -87.150      -93.196       -5.533       26.233       36.439       23.173      688.165     1327.786      537.007        0.943        0.128      127.596       20.446        0.026      331.439       -0.545      862.475
03/19/2014  04:41:00      -98.362     -109.130       -1.785       53.041       41.600       30.826     2813.393     1730.589      950.217        1.354        0.275      146.917       24.838        0.029      331.449       -0.529      862.474
03/19/2014  04:42:00     -136.490     -128.177       -6.550       37.144       48.718       27.654     1379.657     2373.444      764.732        1.981        0.226      187.240       26.982        0.021      331.411       -0.592      862.462
03/19/2014  04:43:00     -162.661     -129.443      -19.426       48.009       37.838       28.765     2304.872     1431.677      827.403        2.408        0.228      207.880       20.077        0.009      331.392       -0.624      862.455
03/19/2014  04:44:00     -160.543      -77.831       -1.121       55.556       44.873       32.308     3086.464     2013.574     1043.836        1.899        0.307      178.415       28.086        0.025      331.420       -0.578      862.463
03/19/2014  04:45:00     -128.762      -70.882       10.542       59.215       44.632       32.372     3506.470     1992.049     1047.942        1.413        0.327      146.983       30.222        0.042      331.441       -0.542      862.457
03/19/2014  04:46:00     -130.113      -61.388       -2.416       62.417       34.790       24.364     3895.891     1210.333      593.582        1.320        0.285      143.867       28.478        0.039      331.420       -0.577      862.469
03/19/2014  04:47:00      -56.439      -47.683        0.683       46.425       27.171       22.977     2155.317      738.265      527.948        0.444        0.171       73.885       19.997        0.073      331.471       -0.493      862.487
03/19/2014  04:48:00      -65.394      -92.006        4.531       57.726       36.795       28.862     3332.244     1353.873      833.012        0.914        0.276      112.879       32.604        0.083      331.481       -0.478      862.497
03/19/2014  04:49:00     -135.988     -125.505      -11.689       45.564       39.965       26.381     2076.099     1597.241      695.943        1.937        0.218      185.052       10.235        0.003      331.358       -0.678      862.486
03/19/2014  04:50:00     -123.169     -129.287       -3.017       50.485       49.130       31.325     2548.764     2413.779      981.233        1.892        0.297      178.566       25.435        0.020      331.293       -0.786      862.458
03/19/2014  04:51:00      -83.644      -63.658       10.317       59.393       44.944       33.931     3527.484     2019.980     1151.319        0.893        0.335      105.112       29.668        0.080      331.340       -0.708      862.440
03/19/2014  04:52:00      -93.109      -86.318        7.111       55.744       48.222       35.796     3107.343     2325.405     1281.347        1.144        0.336      126.965       37.011        0.085      331.298       -0.777      862.437
03/19/2014  04:53:00     -134.177      -98.653       -7.832       45.900       36.984       26.814     2106.826     1367.836      719.009        1.599        0.210      166.541       24.766        0.022      331.347       -0.697      862.438
03/19/2014  04:54:00     -130.884      -43.664       -2.953       39.250       46.915       20.953     1540.560     2201.061      439.044        1.161        0.209      137.976       18.024        0.017      331.293       -0.784      862.430
03/19/2014  04:55:00     -151.699      -42.247       -6.325       15.480       20.876       15.088      239.629      435.815      227.654        1.287        0.045      157.472       10.309        0.004      331.285       -0.797      862.421
03/19/2014  04:56:00     -131.609      -28.350       -7.417       45.523       25.164       22.164     2072.317      633.223      491.228        1.069        0.160      134.628       21.728        0.026      331.306       -0.763      862.415
03/19/2014  04:57:00     -141.815      -23.857       -3.914       40.698       29.600       21.091     1656.303      876.172      444.846        1.184        0.149      143.808       16.769        0.014      331.280       -0.807      862.420
03/19/2014  04:58:00     -151.217      -20.314        1.724       51.523       34.111       27.609     2654.589     1163.594      762.254        1.393        0.229      152.575       31.398        0.042      331.192       -0.951      862.420
03/19/2014  04:59:00     -152.805      -55.700       -1.771       44.613       43.127       26.269     1990.311     1859.903      690.070        1.550        0.227      162.641       21.922        0.018      331.059       -1.171      862.426
03/19/2014  05:00:00     -170.750      -76.566        2.418       39.929       35.276       28.398     1594.323     1244.402      806.451        1.933        0.182      187.131       25.409        0.018      331.051       -1.184      862.429
03/19/2014  05:01:00     -114.857      -62.521       -9.419       42.081       25.967       22.156     1770.783      674.294      490.882        1.006        0.147      130.771       19.038        0.021      331.161       -1.001      862.447
03/19/2014  05:02:00     -145.505      -31.247      -11.057       33.283       27.895       23.759     1107.748      778.127      564.503        1.236        0.123      148.822       22.916        0.024      331.189       -0.957      862.465
03/19/2014  05:03:00     -107.497      -44.320       -2.296       35.261       33.172       23.033     1243.305     1100.399      530.521        0.820        0.144      116.275       21.591        0.034      331.235       -0.879      862.474
03/19/2014  05:04:00     -122.044      -36.392      -11.034       21.433       25.491       16.153      459.367      649.786      260.924        0.886        0.069      127.355       11.896        0.009      331.289       -0.792      862.465
03/19/2014  05:05:00      -94.767      -45.842      -12.872       29.609       18.036       13.035      876.703      325.308      169.915        0.631        0.069      105.272       11.303        0.012      331.463       -0.506      862.455
03/19/2014  05:06:00      -84.539      -59.343       -9.128       15.049       19.237       10.379      226.466      370.076      107.733        0.573        0.035      103.288        8.211        0.006      331.489       -0.465      862.451
03/19/2014  05:07:00      -49.005      -32.469        3.648       31.567       21.325       16.871      996.504      454.769      284.629        0.260        0.087       58.785       17.646        0.090      331.545       -0.370      862.433
03/19/2014  05:08:00      -62.540      -30.821       -1.696       16.707       14.911       10.976      279.111      222.326      120.473        0.274        0.031       69.722        8.735        0.016      331.576       -0.321      862.417
03/19/2014  05:09:00      -76.721      -23.427       -5.561       11.880       11.948        8.022      141.143      142.761       64.345        0.341        0.017       80.219        3.127        0.002      331.484       -0.472      862.423
03/19/2014  05:10:00      -86.343      -24.406      -12.558       12.405       13.535        8.804      153.878      183.186       77.517        0.431        0.021       89.726        3.254        0.001      331.508       -0.432      862.434
03/19/2014  05:11:00      -71.184      -10.333       -5.878       17.471       10.635        9.116      305.251      113.094       83.093        0.285        0.025       71.930        6.889        0.009      331.452       -0.524      862.459
03/19/2014  05:12:00      -36.026      -14.416        2.703       31.227       12.733       11.592      975.132      162.141      134.367        0.139        0.064       38.803       13.361        0.119      331.485       -0.470      862.490
03/19/2014  05:13:00      -72.429      -18.140       -3.969       26.668       20.498       14.889      711.169      420.184      221.683        0.347        0.068       74.666       16.022        0.046      331.412       -0.590      862.536
03/19/2014  05:14:00      -71.382      -14.597       -9.092       23.917       13.984       11.645      572.011      195.559      135.599        0.315        0.045       72.860       13.100        0.032      331.392       -0.622      862.575
03/19/2014  05:15:00      -53.926      -21.405       -1.780       24.489       17.515       12.460      599.698      306.791      155.247        0.222        0.053       58.019        5.112        0.008      331.299       -0.774      862.602
03/19/2014  05:16:00      -16.340        0.676        2.453       20.567       19.290       12.664      422.983      372.109      160.375        0.061        0.048       16.354       12.325        0.568      331.355       -0.683      862.623
03/19/2014  05:17:00       18.992       46.991       -7.180       10.041       13.689       11.006      100.827      187.390      121.135        0.151        0.020       50.684        9.428        0.035      331.232       -0.884      862.645
03/19/2014  05:18:00       17.180       73.109      -12.725       10.821       10.705        7.676      117.094      114.601       58.923        0.305        0.015       75.101        3.784        0.003      331.281       -0.805      862.667
03/19/2014  05:19:00       16.452       55.074       -5.148        9.651       16.188        7.165       93.137      262.056       51.332        0.187        0.020       57.479        6.401        0.012      331.340       -0.707      862.697
03/19/2014  05:20:00       -5.586        5.778       -2.808       16.201       16.530        6.793      262.456      273.240       46.143        0.033        0.029        8.036        7.973        0.984      331.307       -0.763      862.721
03/19/2014  05:21:00      -55.329       -9.797       -5.795        8.474        9.691        7.230       71.801       93.919       52.276        0.170        0.011       56.189        2.657        0.002      331.264       -0.832      862.737
03/19/2014  05:22:00      -61.398      -18.235       -6.669       16.255       12.326       11.082      264.212      151.919      122.814        0.234        0.027       64.048        6.260        0.010      331.266       -0.830      862.743
03/19/2014  05:23:00      -52.826      -17.998       -9.800       15.832       11.372       12.247      250.667      129.325      149.992        0.187        0.026       55.808       10.134        0.033      331.297       -0.778      862.748
03/19/2014  05:24:00       -6.435      -27.834        8.172       15.242       21.555       11.327      232.326      464.632      128.290        0.085        0.041       28.568        9.884        0.120      331.343       -0.702      862.756
03/19/2014  05:25:00       -6.684      -23.524       -1.241       16.144       16.492       13.636      260.613      271.977      185.941        0.066        0.036       24.455       11.372        0.216      331.517       -0.419      862.782
03/19/2014  05:26:00      -30.388      -19.261       -4.782       17.110       13.224        8.365      292.738      174.875       69.974        0.093        0.027       35.978        3.966        0.012      331.498       -0.448      862.803
03/19/2014  05:27:00      -32.543       -6.989        2.221       15.565       15.857       12.558      242.264      251.458      157.707        0.088        0.033       33.285       11.293        0.115      331.351       -0.690      862.824
03/19/2014  05:28:00      -58.542      -19.253       -6.480       15.102       12.855        7.660      228.083      165.253       58.672        0.215        0.023       61.626        4.473        0.005      331.347       -0.696      862.853
03/19/2014  05:29:00      -15.170      -17.985        0.749       22.984       16.514       16.313      528.270      272.715      266.103        0.081        0.053       23.528       15.042        0.409      331.284       -0.800      862.891
03/19/2014  05:30:00      -58.314      -26.294        1.413       21.285       17.207       16.983      453.042      296.079      288.417        0.257        0.052       63.968       13.975        0.048      331.186       -0.960      862.923
03/19/2014  05:31:00      -26.255      -36.218       -0.530       17.845       18.063       15.326      318.442      326.281      234.876        0.144        0.044       44.733       11.262        0.063      331.343       -0.703      862.944
03/19/2014  05:32:00      -54.975      -25.247       -3.366       19.705       10.394       13.359      388.269      108.040      178.463        0.217        0.034       60.495       11.457        0.036      331.339       -0.711      862.950
03/19/2014  05:33:00      -58.034      -48.659       -9.105       26.081       23.001       14.647      680.233      529.025      214.546        0.362        0.071       75.734        3.993        0.003      331.399       -0.611      862.961
03/19/2014  05:34:00      -28.466      -35.066        6.604       27.307       25.892       19.393      745.674      670.387      376.093        0.194        0.090       45.165       16.889        0.140      331.379       -0.642      862.961
03/19/2014  05:35:00      -76.497      -42.761       -1.071       26.533       21.436       17.031      703.989      459.524      290.057        0.457        0.073       87.638       15.678        0.032      331.401       -0.608      862.947
03/19/2014  05:36:00      -52.929       -4.710        7.721       23.970       21.993       17.862      574.546      483.691      319.036        0.213        0.069       53.139        9.620        0.033      331.365       -0.667      862.916
03/19/2014  05:37:00      -40.537      -34.748       -6.084       32.104       23.860       16.552     1030.644      569.304      273.962        0.238        0.094       53.392       12.233        0.052      331.437       -0.549      862.886
03/19/2014  05:38:00      -42.324      -21.703        5.006       27.966       22.867       15.181      782.101      522.910      230.474        0.191        0.077       47.564       12.765        0.072      331.433       -0.556      862.872
03/19/2014  05:39:00      -55.881      -20.397        7.744       46.670       31.960       28.117     2178.053     1021.451      790.563        0.379        0.200       59.487       23.085        0.151      331.353       -0.687      862.867
03/19/2014  05:40:00      -55.966      -11.786        3.223       45.497       26.867       21.087     2069.999      721.830      444.659        0.326        0.162       57.193       11.880        0.043      331.274       -0.815      862.878
03/19/2014  05:41:00      -16.885       -0.890       -2.031       22.480       23.752       12.585      505.366      564.144      158.371        0.076        0.061       16.908        6.091        0.130      331.339       -0.708      862.888
03/19/2014  05:42:00      -26.470      -23.771        2.070       37.686       30.272       24.850     1420.224      916.399      617.515        0.211        0.148       35.577       15.094        0.180      331.300       -0.774      862.896
03/19/2014  05:43:00      -51.699      -36.113       11.875       65.254       40.291       28.281     4258.045     1623.336      799.805        0.540        0.334       63.063       26.127        0.172      331.237       -0.876      862.902
03/19/2014  05:44:00      -48.407      -65.919       19.205       63.645       38.394       33.358     4050.680     1474.074     1112.773        0.685        0.332       81.784       33.884        0.172      331.175       -0.979      862.918
03/19/2014  05:45:00      -64.040      -67.654        8.182       50.769       43.857       27.006     2577.502     1923.431      729.311        0.699        0.262       93.157       23.672        0.065      331.178       -0.975      862.928
03/19/2014  05:46:00     -106.944      -89.615       -1.669       43.113       32.728       29.907     1858.699     1071.146      894.448        1.165        0.191      139.527       28.346        0.041      331.158       -1.007      862.918
03/19/2014  05:47:00      -94.445      -93.825       -1.112       43.906       42.006       30.222     1927.755     1764.543      913.369        1.116        0.230      133.128       30.499        0.052      331.162       -1.001      862.910
03/19/2014  05:48:00      -91.358      -89.185       -4.913       46.825       31.241       28.812     2192.565      976.013      830.114        1.016        0.200      127.672       22.324        0.031      331.156       -1.011      862.909
03/19/2014  05:49:00      -49.373      -35.998       -4.176       45.753       33.358       28.778     2093.346     1112.746      828.177        0.389        0.202       61.103       20.356        0.111      331.218       -0.910      862.903
03/19/2014  05:50:00      -63.136      -43.026        5.158       43.929       31.556       24.828     1929.769      995.776      616.440        0.470        0.177       76.403       19.157        0.063      331.226       -0.894      862.887
03/19/2014  05:51:00      -53.928      -56.793        6.998       41.146       30.396       26.936     1692.969      923.936      725.524        0.476        0.167       78.318       19.361        0.061      331.317       -0.747      862.864
03/19/2014  05:52:00      -68.018      -46.345       14.231       56.199       46.301       40.159     3158.317     2143.828     1612.713        0.694        0.346       82.306       34.647        0.177      331.221       -0.903      862.821
03/19/2014  05:53:00      -93.438      -91.844       -1.594       68.321       44.791       30.494     4667.749     2006.221      929.861        1.238        0.380      131.019       28.467        0.047      331.106       -1.092      862.783
03/19/2014  05:54:00     -126.084      -90.197        2.873       51.741       47.576       27.678     2677.119     2263.482      766.076        1.487        0.285      155.024       22.589        0.021      330.998       -1.270      862.754
03/19/2014  05:55:00     -120.343     -112.488       -1.085       62.881       42.869       29.381     3954.044     1837.745      863.240        1.689        0.333      164.730       27.770        0.028      330.960       -1.333      862.722
03/19/2014  05:56:00     -130.188      -83.775       -1.281       67.009       46.754       27.183     4490.228     2185.927      738.919        1.569        0.371      154.813       27.082        0.031      330.931       -1.381      862.709
03/19/2014  05:57:00     -118.011     -102.984      -10.621       31.937       33.135       16.996     1019.996     1097.930      288.874        1.353        0.120      156.628       15.997        0.010      330.965       -1.325      862.709
03/19/2014  05:58:00     -124.176      -76.246       -6.203       49.782       39.627       26.214     2478.218     1570.276      687.168        1.300        0.237      145.716       19.709        0.018      330.995       -1.275      862.711
03/19/2014  05:59:00      -88.127      -58.903        5.155       57.601       41.090       27.530     3317.925     1688.384      757.884        0.851        0.288      105.999       24.089        0.052      331.018       -1.237      862.712
03/19/2014  06:00:00      -98.781      -49.068       -1.997       44.260       37.025       21.044     1958.983     1370.841      442.853        0.797        0.189      110.296       20.163        0.033      330.997       -1.272      862.705
03/19/2014  06:01:00      -87.336      -74.834        0.414       42.773       33.260       21.232     1829.512     1106.236      450.782        0.831        0.169      115.012       17.083        0.022      330.952       -1.345      862.701
03/19/2014  06:02:00      -87.846      -49.198        3.469       51.915       46.388       27.496     2695.181     2151.874      756.008        0.788        0.280      100.685       27.738        0.076      331.009       -1.252      862.692
03/19/2014  06:03:00      -65.864      -48.815        6.852       53.882       53.935       28.843     2903.277     2908.935      831.922        0.670        0.332       81.982       25.074        0.094      330.977       -1.304      862.689
03/19/2014  06:04:00     -117.602      -66.000       -0.124       50.351       38.983       27.028     2535.229     1519.636      730.519        1.148        0.239      134.857       20.111        0.022      331.043       -1.196      862.704
03/19/2014  06:05:00     -127.764      -86.462       -9.253       51.240       54.327       30.541     2625.531     2951.429      932.726        1.520        0.325      154.270       18.940        0.015      330.964       -1.326      862.718
03/19/2014  06:06:00     -125.788      -80.895       -0.532       50.385       35.984       28.017     2538.624     1294.821      784.949        1.349        0.231      149.555       29.521        0.039      330.942       -1.363      862.742
03/19/2014  06:07:00     -108.710      -48.264      -10.816       51.405       55.027       25.719     2642.437     3027.949      661.450        1.030        0.317      118.942       21.284        0.032      330.897       -1.436      862.778
03/19/2014  06:08:00     -134.106        4.173       -3.483       45.636       46.974       29.970     2082.631     2206.511      898.173        1.160        0.259      134.171       27.673        0.043      330.726       -1.717      862.795
03/19/2014  06:09:00     -175.646      -41.459      -10.482       45.548       36.761       25.994     2074.635     1351.346      675.684        1.839        0.205      180.472       26.379        0.021      330.679       -1.795      862.811
03/19/2014  06:10:00     -194.650      -47.971      -19.338       45.022       47.069       25.106     2027.012     2215.508      630.329        2.272        0.244      200.474       21.466        0.011      330.619       -1.894      862.842
03/19/2014  06:11:00     -180.198      -68.261      -10.055       61.437       51.298       30.605     3774.478     2631.525      936.659        2.229        0.367      192.694       22.957        0.014      330.649       -1.845      862.864
03/19/2014  06:12:00     -198.872      -80.758        0.099       50.271       45.615       27.371     2527.124     2080.719      749.176        2.571        0.268      214.644       28.421        0.018      330.551       -2.007      862.860
03/19/2014  06:13:00     -139.590      -77.031        4.914       46.946       34.211       27.156     2203.942     1170.417      737.424        1.478        0.206      159.434       24.744        0.024      330.481       -2.118      862.836
03/19/2014  06:14:00     -160.178      -62.255       -0.265       47.674       30.787       22.898     2272.784      947.855      524.336        1.664        0.187      171.851       22.744        0.018      330.584       -1.950      862.814
03/19/2014  06:15:00     -114.299      -78.230        1.409       51.108       33.560       24.804     2612.008     1126.275      615.255        1.177        0.218      138.507       23.744        0.029      330.651       -1.839      862.835
03/19/2014  06:16:00     -117.992      -47.441       -2.571       38.505       41.812       24.504     1482.622     1748.282      600.448        1.000        0.192      127.173       21.970        0.030      330.693       -1.770      862.853
03/19/2014  06:17:00     -117.506       -1.400       -6.194       54.848       48.740       20.453     3008.347     2375.629      418.337        0.982        0.290      117.514       22.984        0.038      330.635       -1.866      862.859
03/19/2014  06:18:00     -128.803       74.419      -22.668       49.542       35.767       18.916     2454.459     1279.277      357.799        1.337        0.205      148.756       13.633        0.008      330.698       -1.762      862.857
03/19/2014  06:19:00      -59.641        1.597       -5.919       30.156       19.645       19.511      909.380      385.936      380.692        0.263        0.084       59.662       15.378        0.066      330.754       -1.672      862.843
03/19/2014  06:20:00     -112.028       15.893      -15.012       18.594       41.260       21.092      345.732     1702.375      444.860        0.776        0.125      113.150        8.415        0.006      330.811       -1.578      862.814
03/19/2014  06:21:00     -114.973      -20.446      -10.737       39.178       36.460       31.393     1534.915     1329.349      985.537        0.880        0.192      116.777       31.702        0.074      330.810       -1.580      862.742
03/19/2014  06:22:00      -91.696        6.065       -9.227       25.325       28.228       21.158      641.367      796.812      447.641        0.521        0.094       91.896       18.605        0.041      330.782       -1.625      862.678
03/19/2014  06:23:00      -71.006      -13.359       -8.201       50.524       27.957       19.579     2552.712      781.617      383.343        0.450        0.186       72.251       25.172        0.121      330.848       -1.516      862.631
03/19/2014  06:24:00      -85.309      -36.897       -2.087       60.057       24.593       24.030     3606.835      604.831      577.426        0.672        0.239       92.947       34.056        0.134      330.787       -1.616      862.615
03/19/2014  06:25:00      -95.253      -37.265       -6.541       21.685       33.789       17.168      470.237     1141.694      294.739        0.621        0.095      102.283        8.276        0.007      330.767       -1.650      862.616
03/19/2014  06:26:00      -81.740      -51.547        5.800       39.025       30.393       20.867     1522.948      923.737      435.440        0.613        0.144       96.636       22.629        0.055      330.694       -1.768      862.630
03/19/2014  06:27:00      -74.125      -42.530       -5.950       29.820       21.636       15.131      889.257      468.133      228.949        0.446        0.079       85.460       12.927        0.023      330.849       -1.514      862.647
03/19/2014  06:28:00      -77.473      -16.058       -3.848       26.122       19.907       17.477      682.364      396.306      305.450        0.383        0.069       79.120       13.018        0.027      330.853       -1.508      862.633
03/19/2014  06:29:00      -58.300      -33.270       -6.357       28.894       20.981       11.866      834.863      440.213      140.808        0.298        0.071       67.125       12.530        0.035      330.968       -1.318      862.623
03/19/2014  06:30:00      -54.257      -10.309       -5.602       13.524       16.581       12.658      182.886      274.921      160.219        0.185        0.031       55.227       11.718        0.045      331.023       -1.229      862.604
03/19/2014  06:31:00      -53.369      -11.089       -2.643       15.998       17.065       10.482      255.929      291.207      109.862        0.182        0.033       54.509        7.440        0.019      331.022       -1.232      862.597
03/19/2014  06:32:00      -58.387      -19.151      -12.202       20.914       15.756       12.598      437.393      248.237      158.698        0.238        0.042       61.448        7.164        0.014      331.100       -1.104      862.627
03/19/2014  06:33:00      -69.753      -28.365       -1.214       23.274       19.651       13.244      541.692      386.180      175.404        0.339        0.055       75.300        7.625        0.010      331.101       -1.101      862.667
03/19/2014  06:34:00      -86.839       -5.538       -2.636       32.542       21.114       13.236     1058.949      445.812      175.181        0.463        0.084       87.015       14.720        0.029      330.945       -1.357      862.702
03/19/2014  06:35:00     -111.529      -10.224      -11.441       14.269        9.569        8.336      203.604       91.574       69.486        0.652        0.018      111.997        5.353        0.002      330.920       -1.398      862.746
03/19/2014  06:36:00      -84.062      -13.594       -4.557       24.678       18.217       16.432      608.996      331.847      270.013        0.424        0.061       85.154       16.809        0.039      330.757       -1.666      862.779
03/19/2014  06:37:00      -78.997       -8.708        0.512       35.715       27.062       20.326     1275.577      732.333      413.146        0.437        0.121       79.476       19.038        0.057      330.670       -1.809      862.783
03/19/2014  06:38:00     -150.790       15.208      -17.387       49.708       31.260       20.441     2470.927      977.215      417.855        1.357        0.193      151.555       16.997        0.013      330.605       -1.915      862.792
03/19/2014  06:39:00     -160.287      -25.356      -19.254       23.805       28.799       18.546      566.668      829.383      343.965        1.422        0.087      162.280       12.367        0.006      330.578       -1.961      862.798
03/19/2014  06:40:00     -144.172      -47.234      -13.286       22.726       24.839       15.381      516.450      616.977      236.585        1.228        0.069      151.713        9.001        0.004      330.586       -1.947      862.801
03/19/2014  06:41:00     -125.397      -51.178       -8.137       44.352       20.720       15.566     1967.062      429.319      242.306        1.052        0.132      135.439       18.013        0.018      330.637       -1.864      862.809
03/19/2014  06:42:00     -109.629      -49.430       -2.798       36.545       23.271       23.234     1335.565      541.542      539.835        0.844        0.121      120.257       22.830        0.036      330.704       -1.752      862.830
03/19/2014  06:43:00     -135.519      -38.325      -11.919       21.196       25.092       15.582      449.286      629.587      242.803        1.065        0.066      140.834        4.097        0.001      330.784       -1.622      862.855
03/19/2014  06:44:00     -126.301      -53.887        2.920       34.510       27.449       18.528     1190.974      753.440      343.272        1.058        0.114      137.317       14.688        0.011      330.760       -1.660      862.879
03/19/2014  06:45:00      -96.066      -60.055       -2.760       39.866       29.941       27.011     1589.264      896.475      729.607        0.803        0.161      113.293       25.309        0.050      330.761       -1.659      862.894
03/19/2014  06:46:00      -65.562      -48.297      -11.319       30.496       18.138       18.904      930.018      328.998      357.346        0.419        0.081       81.431       11.097        0.019      330.824       -1.556      862.906
03/19/2014  06:47:00      -75.279      -71.432       -6.223       37.769       23.471       21.097     1426.510      550.905      445.062        0.661        0.121      103.776       19.748        0.036      330.882       -1.461      862.910
03/19/2014  06:48:00      -65.504      -37.829        1.260       34.020       28.261       19.796     1157.328      798.685      391.895        0.404        0.117       75.642       11.457        0.023      330.969       -1.318      862.921
03/19/2014  06:49:00      -73.791      -51.701       -1.097       38.535       31.373       16.807     1484.951      984.269      282.467        0.543        0.138       90.100       14.639        0.026      330.987       -1.289      862.951
03/19/2014  06:50:00      -63.302      -59.180        0.702       37.573       37.274       20.878     1411.732     1389.322      435.895        0.537        0.162       86.657       19.000        0.048      331.074       -1.146      862.972
03/19/2014  06:51:00      -47.831      -64.760        7.134       43.852       41.241       25.054     1923.007     1700.837      627.697        0.539        0.213       80.509       23.729        0.087      331.034       -1.210      862.985
03/19/2014  06:52:00     -126.107      -81.744       -9.683       25.658       28.140       20.137      658.329      791.861      405.482        1.227        0.093      150.283       15.534        0.011      330.967       -1.321      862.986
03/19/2014  06:53:00     -109.908      -67.269       -5.834       45.697       29.235       23.837     2088.252      854.691      568.194        1.007        0.176      128.860       14.946        0.013      330.954       -1.342      862.976
03/19/2014  06:54:00     -123.070      -81.115       -1.235       39.436       37.486       23.600     1555.182     1405.203      556.948        1.262        0.176      147.397       20.987        0.020      330.937       -1.370      862.968
03/19/2014  06:55:00     -151.161      -36.362       -3.535       36.706       43.788       24.067     1347.327     1917.345      579.219        1.401        0.192      155.473       22.718        0.021      330.881       -1.462      862.979
03/19/2014  06:56:00     -102.657      -24.532       -0.780       56.791       41.574       24.419     3225.202     1728.400      596.263        0.834        0.277      105.547       30.984        0.086      330.842       -1.526      863.008
03/19/2014  06:57:00     -126.560        0.255       -5.202       54.712       34.016       27.966     2993.402     1157.107      782.079        1.049        0.247      126.561       27.063        0.046      330.664       -1.817      863.027
03/19/2014  06:58:00     -153.812      -40.374       -4.664       51.152       39.222       27.375     2616.503     1538.354      749.365        1.511        0.245      159.023       27.397        0.030      330.549       -2.006      863.042
03/19/2014  06:59:00     -126.748      -58.565        3.697       47.896       42.263       31.999     2294.037     1786.149     1023.919        1.231        0.255      139.624       21.254        0.023      330.599       -1.925      863.049
03/19/2014  07:00:00      -88.073      -34.154        2.016       60.451       38.503       28.784     3654.360     1482.507      828.546        0.745        0.298       94.463       26.625        0.079      330.633       -1.869      863.052
03/19/2014  07:01:00      -86.897      -32.658       -6.209       40.622       44.453       18.764     1650.149     1976.104      352.075        0.632        0.199       92.831       13.180        0.020      330.587       -1.946      863.047
03/19/2014  07:02:00      -76.816      -38.657       -4.782       24.744       27.213       17.857      612.263      740.556      318.880        0.454        0.084       85.995       13.598        0.025      330.645       -1.849      863.025
03/19/2014  07:03:00      -72.616      -11.388       -8.768       43.711       23.822       21.147     1910.621      567.505      447.182        0.420        0.146       73.503       21.456        0.085      330.577       -1.961      863.024
03/19/2014  07:04:00     -107.402      -16.792       -6.540       25.730       26.487       18.484      662.030      701.555      341.665        0.678        0.085      108.707       16.075        0.022      330.608       -1.911      863.037
03/19/2014  07:05:00     -117.592      -15.056       -7.678       36.771       28.456       19.336     1352.083      809.716      373.871        0.832        0.127      118.552       18.714        0.025      330.573       -1.967      863.069
03/19/2014  07:06:00     -117.026      -39.306       -6.207       34.443       37.853       15.621     1186.326     1432.867      244.013        0.907        0.143      123.451       14.054        0.013      330.714       -1.737      863.092
03/19/2014  07:07:00     -144.473      -31.793       -9.673       40.841       41.083       22.658     1668.000     1687.802      513.398        1.292        0.193      147.930       21.528        0.021      330.695       -1.767      863.100
03/19/2014  07:08:00     -133.360      -54.869      -10.077       27.846       29.299       17.197      775.382      858.428      295.736        1.141        0.096      144.206       10.286        0.005      330.765       -1.653      863.103
03/19/2014  07:09:00     -135.416      -55.792      -12.398       23.567       26.816       15.529      555.402      719.091      241.138        1.156        0.076      146.459       11.757        0.006      330.733       -1.705      863.100
03/19/2014  07:10:00     -113.756      -48.096      -10.210       24.550       21.312       13.568      602.703      454.192      184.092        0.830        0.062      123.506        9.518        0.006      330.862       -1.494      863.100
03/19/2014  07:11:00      -65.212      -45.225       -9.838       41.621       20.076       13.458     1732.319      403.057      181.122        0.436        0.116       79.359       13.817        0.030      330.845       -1.522      863.100
03/19/2014  07:12:00      -87.027      -57.240       -4.202       59.868       40.027       27.878     3584.154     1602.190      777.197        0.841        0.298      104.164       32.828        0.099      330.929       -1.383      863.102
03/19/2014  07:13:00      -96.545      -61.435       -0.770       35.859       29.722       18.694     1285.880      883.412      349.470        0.781        0.126      114.434       16.647        0.021      330.962       -1.330      863.107
03/19/2014  07:14:00      -85.032      -59.588        3.836       30.658       24.886       21.147      939.899      619.335      447.192        0.640        0.100      103.832       17.489        0.028      331.022       -1.230      863.117
03/19/2014  07:15:00      -66.298      -41.476        0.694       40.050       24.843       19.604     1603.963      617.151      384.299        0.436        0.130       78.203       10.338        0.017      331.015       -1.242      863.115
03/19/2014  07:16:00      -57.713      -36.258       -1.794       30.112       15.691       18.438      906.742      246.203      339.951        0.307        0.075       68.157       17.852        0.069      331.082       -1.132      863.100
03/19/2014  07:17:00      -51.601      -45.618       -5.477       22.139       17.887       10.502      490.126      319.944      110.294        0.285        0.046       68.874        7.120        0.011      331.178       -0.974      863.087
03/19/2014  07:18:00        2.993      -16.110       12.101       16.098       11.672       12.915      259.144      136.228      166.787        0.049        0.028       16.386       10.568        0.416      331.330       -0.725      863.089
03/19/2014  07:19:00       -0.374       -1.237       15.226       21.370       11.872       12.665      456.695      140.956      160.399        0.050        0.038        1.292       11.816       83.591      331.337       -0.712      863.105
03/19/2014  07:20:00      -58.333      -20.592       -8.927       15.101       14.833       10.816      228.053      220.010      116.991        0.224        0.028       61.861        7.333        0.014      331.233       -0.881      863.105
03/19/2014  07:21:00      -41.645      -11.493      -14.273       11.188       13.703        6.998      125.169      187.761       48.977        0.122        0.018       43.202        4.970        0.013      331.268       -0.825      863.097
03/19/2014  07:22:00      -56.099      -18.340       -4.783       15.204       12.129        7.408      231.168      147.107       54.885        0.197        0.022       59.021        5.406        0.008      331.285       -0.798      863.102
03/19/2014  07:23:00      -41.586      -40.135       -3.719       24.400       19.750       10.101      595.340      390.043      102.028        0.222        0.054       57.794        9.883        0.029      331.314       -0.750      863.124
03/19/2014  07:24:00      -41.314      -35.444        2.834       35.387       29.775       17.556     1252.258      886.522      308.219        0.271        0.122       54.435       15.622        0.082      331.258       -0.842      863.144
03/19/2014  07:25:00     -108.075      -70.135        1.070       34.499       24.379       17.684     1190.173      594.326      312.712        0.935        0.105      128.838        9.298        0.005      331.158       -1.008      863.168
03/19/2014  07:26:00     -103.598      -63.725        5.407       49.096       33.184       25.363     2410.394     1101.180      643.289        0.949        0.208      121.628       20.173        0.028      331.190       -0.954      863.186
03/19/2014  07:27:00     -121.036      -70.845       -0.960       49.883       30.151       25.518     2488.319      909.092      651.177        1.186        0.202      140.245       22.347        0.025      331.126       -1.061      863.199
03/19/2014  07:28:00      -83.033      -57.021        2.188       59.140       36.938       27.597     3497.495     1364.443      761.575        0.789        0.281      100.727       28.483        0.080      331.092       -1.117      863.230
03/19/2014  07:29:00      -98.745      -51.365        0.997       40.440       46.260       22.648     1635.416     2139.947      512.935        0.834        0.214      111.305       19.860        0.032      331.097       -1.108      863.243
03/19/2014  07:30:00     -131.420      -36.625      -16.403       21.522       23.832       13.649      463.182      567.965      186.288        1.005        0.061      136.428        6.535        0.002      331.161       -1.003      863.230
03/19/2014  07:31:00     -100.794      -59.438      -11.293       41.068       26.233       15.668     1686.600      688.161      245.484        0.822        0.131      117.014       16.189        0.019      331.207       -0.926      863.214
03/19/2014  07:32:00     -158.064      -13.903      -15.325       40.456       23.478       23.393     1636.689      551.219      547.223        1.407        0.137      158.674       23.458        0.022      331.124       -1.064      863.216
03/19/2014  07:33:00     -138.363        6.516      -22.080       23.306       21.688       18.589      543.164      470.385      345.541        1.052        0.068      138.517        9.284        0.004      331.123       -1.066      863.213
03/19/2014  07:34:00     -115.803        2.984      -10.949       35.035       25.670       20.612     1227.437      658.967      424.872        0.792        0.116      115.841       15.188        0.017      331.117       -1.076      863.221
03/19/2014  07:35:00      -72.653       -1.159       -5.437       30.337       19.779       14.027      920.334      391.199      196.754        0.341        0.075       72.663       14.243        0.038      331.180       -0.970      863.236
03/19/2014  07:36:00      -71.964        2.873       -4.748       26.114       24.021       15.333      681.944      577.022      235.095        0.335        0.075       72.021       11.707        0.026      331.258       -0.842      863.257
03/19/2014  07:37:00      -44.570        5.780       -7.047       15.205       20.605        8.376      231.193      424.586       70.165        0.140        0.036       44.943        7.175        0.025      331.364       -0.666      863.278
03/19/2014  07:38:00      -21.079      -18.693        5.019       15.787       20.796       17.345      249.243      432.456      300.850        0.090        0.049       28.174       16.615        0.348      331.571       -0.328      863.286
03/19/2014  07:39:00       17.808       17.965       19.887       19.475       16.697       12.425      379.268      278.794      154.382        0.092        0.041       25.295       10.214        0.163      331.740       -0.049      863.278
03/19/2014  07:40:00       41.785       28.856        8.502       20.149       22.315       17.022      405.973      497.955      289.747        0.192        0.060       50.780       10.757        0.045      331.577       -0.318      863.281
03/19/2014  07:41:00       16.616       18.714       31.020       17.682       13.510       17.445      312.656      182.514      304.339        0.119        0.040       25.026       13.087        0.273      331.661       -0.179      863.274
03/19/2014  07:42:00       29.831        8.444       -0.559       18.571        9.433       11.941      344.878       88.984      142.577        0.077        0.029       31.003        4.972        0.026      331.566       -0.336      863.267
03/19/2014  07:43:00       10.252       -4.091       -1.144        8.004       10.986        8.256       64.067      120.685       68.161        0.019        0.013       11.038        4.674        0.179      331.814        0.071      863.255
03/19/2014  07:44:00       32.869       23.395        7.835       22.168       16.355       16.660      491.399      267.473      277.572        0.136        0.052       40.345        8.868        0.048      331.786        0.025      863.275
03/19/2014  07:45:00       29.823       28.068       27.271       19.116       16.406       18.724      365.418      269.160      350.574        0.170        0.049       40.954       12.126        0.088      331.819        0.079      863.296
03/19/2014  07:46:00       29.698       31.857       31.156       33.772       32.097       24.173     1140.568     1030.213      584.350        0.281        0.138       43.553       23.393        0.288      331.778        0.014      863.318
03/19/2014  07:47:00        0.307       26.470       37.829       10.722       22.249       12.125      114.965      495.027      147.023        0.144        0.038       26.472        7.678        0.084      332.050        0.462      863.344
03/19/2014  07:48:00       29.027       30.490       41.823       32.656       22.091       21.301     1066.409      487.997      453.747        0.276        0.100       42.098       12.055        0.082      331.867        0.160      863.362
03/19/2014  07:49:00       21.398        9.460        4.849       24.603       12.931       19.730      605.305      167.211      389.267        0.087        0.058       23.396        9.892        0.179      331.711       -0.098      863.369
03/19/2014  07:50:00       30.400       15.195       15.322       22.972       15.272       20.762      527.702      233.247      431.069        0.129        0.060       33.986       14.914        0.193      331.838        0.110      863.369
03/19/2014  07:51:00       45.609       27.284        3.718       15.798       15.139       14.886      249.580      229.175      221.583        0.177        0.035       53.147        9.715        0.033      331.604       -0.273      863.379
03/19/2014  07:52:00       53.197       33.474        4.307       14.463       14.797       11.136      209.165      218.951      124.004        0.226        0.028       62.853        7.966        0.016      331.697       -0.120      863.378
03/19/2014  07:53:00       62.881       66.587        8.778       21.431       21.311       18.773      459.303      454.171      352.434        0.487        0.063       91.586        8.653        0.009      331.774        0.005      863.384
03/19/2014  07:54:00       70.385       60.491        2.848       31.729       20.926       25.414     1006.715      437.914      645.866        0.536        0.105       92.808       16.866        0.033      331.693       -0.128      863.402
03/19/2014  07:55:00       68.834       59.606       18.458       22.418       25.572       22.684      502.548      653.943      514.574        0.515        0.084       91.055       15.703        0.030      331.695       -0.124      863.441
03/19/2014  07:56:00       63.113       46.697        3.817       21.893       22.691       19.136      479.320      514.890      366.203        0.377        0.068       78.511        9.903        0.016      331.808        0.062      863.482
03/19/2014  07:57:00       63.024       63.113       -0.492       23.857       18.677       20.804      569.176      348.848      432.811        0.465        0.068       89.192       14.673        0.027      331.690       -0.132      863.518
03/19/2014  07:58:00       61.209       52.678        4.882       15.373       15.560       20.696      236.320      242.111      428.312        0.373        0.045       80.756       10.522        0.017      331.590       -0.297      863.536
03/19/2014  07:59:00       90.358       42.185        6.301       25.661       24.031       23.010      658.484      577.487      529.442        0.587        0.088       99.720       13.999        0.020      331.689       -0.133      863.543
03/19/2014  08:00:00      115.716       71.798       -1.244       22.373       24.654       17.596      500.532      607.803      309.618        0.998        0.071      136.181       13.305        0.010      331.611       -0.264      863.551
03/19/2014  08:01:00      107.757       71.600       13.076       25.139       21.731       21.373      631.975      472.225      456.822        0.923        0.078      129.376       12.818        0.010      331.533       -0.391      863.569
03/19/2014  08:02:00      100.360       82.334       19.522       24.783       19.041       22.278      614.213      362.546      496.311        0.935        0.074      129.812       18.238        0.020      331.472       -0.489      863.580
03/19/2014  08:03:00       96.094       58.862       16.711       22.751       21.987       23.792      517.626      483.424      566.050        0.727        0.078      112.688       10.036        0.008      331.478       -0.482      863.577
03/19/2014  08:04:00       86.066       48.301        1.023       31.682       20.759       24.502     1003.745      430.922      600.355        0.589        0.102       98.693       18.836        0.036      331.617       -0.251      863.563
03/19/2014  08:05:00       61.600       24.641       21.358       22.955       37.980       22.706      526.920     1442.507      515.568        0.367        0.124       66.346       14.518        0.048      331.758       -0.021      863.566
03/19/2014  08:06:00       53.860       14.421       25.462       35.929       39.173       27.607     1290.891     1534.507      762.150        0.367        0.179       55.757       22.219        0.159      331.887        0.191      863.544
03/19/2014  08:07:00       37.618       56.904       55.981       48.882       28.688       24.620     2389.424      822.996      606.147        0.580        0.191       68.214       16.901        0.061      332.095        0.534      863.509
03/19/2014  08:08:00        2.961        9.015       49.320       20.538       41.263       17.107      421.802     1702.628      292.640        0.247        0.121        9.489       16.233        2.927      332.237        0.769      863.484
03/19/2014  08:09:00       12.255        6.707       23.575       25.235       31.193       22.859      636.796      973.025      522.537        0.144        0.107       13.970       13.473        0.930      332.264        0.813      863.486
03/19/2014  08:10:00       18.276      -47.100       -3.206       41.167       51.717       29.264     1694.683     2674.614      856.377        0.389        0.261       50.521       26.090        0.267      332.322        0.909      863.502
03/19/2014  08:11:00        7.543       10.440       47.851       23.927       23.503       23.878      572.509      552.381      570.173        0.207        0.085       12.880       15.098        1.374      332.518        1.233      863.508
03/19/2014  08:12:00       45.431      -23.829       36.061       42.563       32.643       29.879     1811.637     1065.565      892.778        0.385        0.188       51.301       29.273        0.326      332.416        1.065      863.508
03/19/2014  08:13:00        7.661       43.618       64.102       31.483       28.900       25.159      991.200      835.228      632.986        0.426        0.123       44.285       24.745        0.312      332.447        1.116      863.502
03/19/2014  08:14:00        7.864       32.044       43.808       25.721       38.199       29.400      661.578     1459.142      864.350        0.300        0.149       32.995       27.644        0.702      332.610        1.386      863.497
03/19/2014  08:15:00       17.775       13.601       53.710       28.159       28.797       25.593      792.926      829.270      655.000        0.283        0.114       22.382       16.564        0.548      332.652        1.455      863.474
03/19/2014  08:16:00       24.716      -22.028       17.583       32.613       55.672       34.718     1063.577     3099.403     1205.325        0.339        0.268       33.108       37.428        1.278      332.687        1.511      863.457
03/19/2014  08:17:00       10.815       23.433       60.440       24.865       33.600       20.883      618.250     1128.930      436.092        0.325        0.109       25.808       20.532        0.633      332.688        1.513      863.467
03/19/2014  08:18:00       22.024       15.336       39.213       31.198       38.208       31.894      973.307     1459.889     1017.254        0.285        0.173       26.838       22.821        0.723      332.818        1.729      863.484
03/19/2014  08:19:00        5.475       40.392       64.341       24.956       26.680       21.083      622.822      711.834      444.510        0.379        0.089       40.761       21.198        0.270      332.806        1.710      863.505
03/19/2014  08:20:00        8.820       56.552       67.416       24.611       26.576       16.633      605.685      706.269      276.665        0.470        0.079       57.236       16.331        0.081      332.673        1.488      863.532
03/19/2014  08:21:00        6.591       42.497       61.159       28.834       42.279       26.523      831.398     1787.474      703.464        0.446        0.166       43.005       26.126        0.369      332.682        1.504      863.557
03/19/2014  08:22:00       12.593       16.415       43.576       28.685       30.335       28.005      822.833      920.232      784.301        0.243        0.126       20.689       24.538        1.407      332.968        1.977      863.567
03/19/2014  08:23:00       15.913        0.484       38.415       29.687       52.868       38.353      881.325     2795.032     1470.970        0.344        0.257       15.920       38.374        5.810      332.944        1.936      863.581
03/19/2014  08:24:00       52.746       40.459       39.620       42.708       46.455       27.462     1824.015     2158.086      754.188        0.536        0.237       66.476       27.188        0.167      332.617        1.395      863.575
03/19/2014  08:25:00       16.543        8.182       40.732       20.017       33.775       19.687      400.693     1140.784      387.565        0.196        0.096       18.456       16.173        0.768      333.090        2.180      863.565
03/19/2014  08:26:00       15.324       -6.862       52.990       23.068       59.037       21.244      532.133     3485.412      451.304        0.378        0.223       16.790       29.454        3.077      332.981        1.995      863.558
03/19/2014  08:27:00        8.153        6.308       41.947       21.046       29.707       16.586      442.919      882.507      275.099        0.173        0.080       10.309       12.647        1.505      333.350        2.607      863.565
03/19/2014  08:28:00       -8.311       -2.370       30.117       18.052       32.721       21.027      325.891     1070.676      442.142        0.141        0.092        8.642       12.329        2.035      333.263        2.464      863.571
03/19/2014  08:29:00      -14.601       20.247       26.788       15.292       18.650       21.775      233.859      347.835      474.132        0.120        0.053       24.963       13.502        0.293      333.134        2.251      863.579
03/19/2014  08:30:00      -25.546       11.068       13.356       39.688       18.267       17.901     1575.123      333.681      320.441        0.159        0.111       27.840       19.381        0.485      333.030        2.078      863.604
03/19/2014  08:31:00      -59.004        0.988       -5.193       17.916       25.229       16.692      320.993      636.479      278.637        0.237        0.062       59.012       13.317        0.051      332.618        1.398      863.625
03/19/2014  08:32:00      -31.024      -26.563       -3.119       22.723       15.468       18.374      516.351      239.251      337.602        0.139        0.055       40.842       18.439        0.204      332.742        1.603      863.657
03/19/2014  08:33:00      -51.099      -16.997        2.670       23.050       20.214       15.334      531.300      408.624      235.137        0.204        0.059       53.851        6.471        0.014      332.731        1.585      863.684
03/19/2014  08:34:00      -83.880      -54.386       -2.150       34.585       39.094       20.813     1196.089     1528.351      433.195        0.658        0.158       99.969       18.402        0.034      332.632        1.421      863.692
03/19/2014  08:35:00     -100.267      -78.756       -8.197       46.967       36.054       26.240     2205.912     1299.923      688.551        1.026        0.210      127.499       25.963        0.041      332.615        1.391      863.683
03/19/2014  08:36:00      -75.789      -36.424       11.833       50.934       37.809       24.514     2594.240     1429.525      600.934        0.592        0.231       84.088       22.276        0.070      332.802        1.702      863.671
03/19/2014  08:37:00      -80.371      -48.197        5.947       60.949       43.791       26.788     3714.731     1917.654      717.597        0.758        0.317       93.715       24.268        0.067      332.765        1.640      863.681
03/19/2014  08:38:00      -96.103      -91.069       -1.366       48.949       39.330       28.949     2396.013     1546.880      838.031        1.116        0.239      132.398       22.554        0.029      332.601        1.369      863.703
03/19/2014  08:39:00      -82.398      -94.704       -2.978       26.455       39.366       19.437      699.865     1549.661      377.778        0.920        0.131      125.533       23.575        0.035      332.528        1.248      863.724
03/19/2014  08:40:00     -119.250      -82.164       -2.748       39.617       34.689       28.672     1569.535     1203.306      822.065        1.229        0.180      144.815       18.933        0.017      332.660        1.466      863.728
03/19/2014  08:41:00      -83.402      -23.397       -3.122       43.775       32.737       19.418     1916.273     1071.741      377.076        0.544        0.168       86.622       13.887        0.026      332.735        1.590      863.734
03/19/2014  08:42:00     -112.690      -72.935        1.791       50.454       49.712       28.724     2545.654     2471.266      825.087        1.193        0.292      134.233       28.137        0.044      332.691        1.518      863.743
03/19/2014  08:43:00      -95.755      -87.671      -14.641       34.208       24.057       25.854     1170.172      578.741      668.417        0.974        0.121      129.828       15.998        0.015      332.642        1.438      863.737
03/19/2014  08:44:00      -33.985      -59.131        2.017       28.701       38.620       24.639      823.760     1491.541      607.100        0.379        0.146       68.201       23.973        0.124      332.847        1.777      863.732
03/19/2014  08:45:00      -62.945      -64.354       -8.285       28.421       27.312       17.806      807.726      745.949      317.054        0.502        0.094       90.020       13.773        0.023      332.714        1.557      863.731
03/19/2014  08:46:00      -59.063      -46.462       -9.221       15.912       22.402       11.701      253.187      501.866      136.917        0.331        0.045       75.147        9.130        0.015      332.694        1.523      863.732
03/19/2014  08:47:00      -50.472      -35.900       -6.451       17.034       22.250       11.637      290.157      495.040      135.410        0.240        0.046       61.937       12.816        0.043      332.746        1.610      863.736
03/19/2014  08:48:00      -61.686      -42.137       -6.126       29.829       21.292       14.881      889.747      453.369      221.456        0.359        0.078       74.704       13.763        0.034      332.847        1.777      863.755
03/19/2014  08:49:00      -63.496      -75.419       -9.184       31.627       17.768       18.916     1000.295      315.691      357.815        0.574        0.084       98.589       18.454        0.035      332.758        1.630      863.760
03/19/2014  08:50:00      -41.898      -46.865       -8.866       18.306       21.878        6.428      335.127      478.636       41.323        0.244        0.043       62.863        5.662        0.008      332.791        1.684      863.755
03/19/2014  08:51:00      -34.064      -31.455       -5.150       28.005       11.838       11.241      784.274      140.131      126.362        0.161        0.053       46.366        8.832        0.036      332.912        1.883      863.743
03/19/2014  08:52:00      -57.124      -27.672        2.174       25.845       20.238       13.134      667.966      409.561      172.497        0.264        0.063       63.474        6.811        0.012      332.968        1.976      863.737
03/19/2014  08:53:00      -41.072      -50.537       -5.211       28.411       30.867       16.548      807.193      952.791      273.852        0.315        0.102       65.122       15.720        0.058      332.938        1.927      863.747
03/19/2014  08:54:00      -24.822      -25.625        9.153       33.677       23.860       20.131     1134.144      569.316      405.245        0.173        0.105       35.676       19.517        0.299      333.184        2.332      863.764
03/19/2014  08:55:00      -33.204      -38.028        6.439       35.268       29.395       17.437     1243.830      864.071      304.036        0.250        0.121       50.484       17.562        0.121      333.114        2.217      863.763
03/19/2014  08:56:00       -9.634      -15.480        1.628       18.523       18.536       19.356      343.095      343.584      374.646        0.070        0.053       18.233       15.744        0.746      333.348        2.604      863.762
03/19/2014  08:57:00      -22.214      -42.357        6.854       22.544       33.718       13.834      508.243     1136.893      191.366        0.209        0.092       47.829        7.978        0.028      333.172        2.312      863.762
03/19/2014  08:58:00      -37.401      -20.800        2.697       28.290       21.888       14.128      800.305      479.069      199.595        0.166        0.074       42.796       10.494        0.060      333.171        2.311      863.766
03/19/2014  08:59:00      -89.005      -47.055       -0.785       44.239       29.875       16.610     1957.107      892.523      275.887        0.663        0.156      100.678       13.494        0.018      333.080        2.162      863.778
03/19/2014  09:00:00      -76.018      -45.972        0.317       48.996       37.155       22.215     2400.650     1380.519      493.493        0.608        0.214       88.838       20.387        0.053      333.255        2.450      863.793
03/19/2014  09:01:00      -49.261      -27.238       12.969       39.568       38.089       23.362     1565.615     1450.790      545.793        0.345        0.178       56.290       27.425        0.237      333.530        2.905      863.806
03/19/2014  09:02:00      -37.520      -47.065        6.535       33.506       26.920       17.975     1122.663      724.702      323.104        0.292        0.109       60.190       11.103        0.034      333.380        2.656      863.816
03/19/2014  09:03:00      -27.340      -35.925        7.744       29.847       19.659       21.041      890.830      386.476      442.709        0.191        0.086       45.145       18.669        0.171      333.467        2.800      863.823
03/19/2014  09:04:00      -38.353      -13.346       -3.555       23.005       20.671       12.680      529.218      427.277      160.784        0.139        0.056       40.608        5.840        0.021      333.417        2.718      863.834
03/19/2014  09:05:00      -17.900       -1.474       -2.814       14.515       13.006       10.393      210.679      169.147      108.020        0.041        0.024       17.960        7.658        0.182      333.761        3.287      863.858
03/19/2014  09:06:00       -6.529        2.127       13.354       13.204       13.454       19.041      174.337      181.016      362.564        0.047        0.036        6.866        9.534        1.928      334.160        3.950      863.866
03/19/2014  09:07:00       -7.736        6.955       33.205       15.041       18.015       17.028      226.227      324.526      289.954        0.103        0.042       10.403       11.157        1.150      334.340        4.249      863.867
03/19/2014  09:08:00      -22.269       17.336       23.491       37.711       14.451       16.792     1422.088      208.817      281.956        0.163        0.096       28.221       18.373        0.424      333.902        3.522      863.873
03/19/2014  09:09:00      -42.372       14.538        3.741       18.933       17.694        9.800      358.443      313.064       96.039        0.139        0.038       44.797        9.405        0.044      333.669        3.135      863.886
03/19/2014  09:10:00       -1.192       13.096       22.846       11.476       18.851       18.131      131.696      355.353      328.733        0.076        0.041       13.150       11.828        0.809      334.607        4.690      863.901
03/19/2014  09:11:00        4.105       28.811       26.238       15.686       21.694       27.244      246.052      470.651      742.218        0.150        0.073       29.102        8.238        0.080      334.133        3.905      863.918
03/19/2014  09:12:00      -32.894        1.486       11.045       20.216        9.670        9.795      408.675       93.504       95.934        0.090        0.030       32.927        9.215        0.078      334.003        3.689      863.921
03/19/2014  09:13:00      -15.127        0.232      -14.280       15.484       12.033        8.400      239.746      144.786       70.565        0.044        0.023       15.129        7.810        0.267      333.901        3.521      863.917
03/19/2014  09:14:00      -27.626      -17.344       -3.172       13.365       15.738       13.731      178.614      247.700      188.530        0.084        0.031       32.619        8.990        0.076      333.823        3.389      863.910
03/19/2014  09:15:00      -20.142      -38.421       11.009       12.071       19.782       13.517      145.715      391.345      182.720        0.136        0.036       43.381        8.430        0.038      333.801        3.355      863.912
03/19/2014  09:16:00      -19.948      -20.444        5.769       21.850       14.481       13.291      477.401      209.693      176.658        0.086        0.043       28.563        9.082        0.101      334.080        3.818      863.913
03/19/2014  09:17:00      -21.518       -3.066       -5.304       10.094       13.879        7.593      101.885      192.639       57.649        0.043        0.018       21.736        3.808        0.031      333.989        3.665      863.909
03/19/2014  09:18:00      -39.525      -14.184       -2.077       14.406       20.035       11.149      207.532      401.404      124.289        0.125        0.037       41.993        8.447        0.040      333.946        3.595      863.902
03/19/2014  09:19:00      -23.945       -2.712       10.429       24.835       12.900       23.601      616.793      166.406      557.009        0.101        0.067       24.098       19.720        0.670      334.255        4.108      863.910
03/19/2014  09:20:00      -45.226        7.099       -5.296       14.802        9.026        9.800      219.090       81.473       96.045        0.126        0.020       45.780        3.858        0.007      333.928        3.567      863.905
03/19/2014  09:21:00      -20.741       -5.325        6.389       20.454       19.229       20.049      418.368      369.745      401.971        0.084        0.060       21.414       15.581        0.529      334.489        4.496      863.907
03/19/2014  09:22:00      -46.964       -9.533        6.569       33.796       23.631       17.190     1142.180      558.426      295.495        0.217        0.100       47.922       17.195        0.129      334.314        4.205      863.886
03/19/2014  09:23:00      -52.913      -24.224       -3.304       28.530       20.999       16.729      813.936      440.948      279.865        0.247        0.077       58.194       13.808        0.056      334.056        3.777      863.867
03/19/2014  09:24:00      -37.657       -6.942        7.228       27.993       17.229       15.410      783.599      296.853      237.464        0.142        0.066       38.291       16.428        0.184      334.317        4.209      863.851
03/19/2014  09:25:00      -22.287        2.375       11.538       24.761       13.159       14.927      613.122      173.157      222.828        0.082        0.050       22.413       14.231        0.403      334.566        4.623      863.841
03/19/2014  09:26:00      -32.929      -85.987        0.884       29.960       51.809       22.469      897.614     2684.219      504.855        0.628        0.204       92.076       25.724        0.078      334.150        3.933      863.849
03/19/2014  09:27:00      -52.535      -82.036       -0.986       34.489       30.115       20.388     1189.522      906.916      415.669        0.600        0.126       97.416       16.513        0.029      333.965        3.626      863.849
03/19/2014  09:28:00      -54.117      -56.552        8.928       42.469       44.815       23.868     1803.647     2008.419      569.666        0.529        0.219       78.274       27.848        0.127      334.216        4.042      863.859
03/19/2014  09:29:00      -70.420      -59.775       -0.148       37.355       28.565       16.822     1395.410      815.971      282.990        0.551        0.125       92.369       20.681        0.050      334.005        3.694      863.873
03/19/2014  09:30:00      -73.086      -47.117       -4.949       27.360       23.611       16.876      748.557      557.468      284.815        0.459        0.080       86.957        9.716        0.012      334.034        3.741      863.894
03/19/2014  09:31:00      -15.302      -10.465        8.091       29.446       20.372       21.394      867.069      415.036      457.713        0.107        0.087       18.538       21.628        1.361      334.668        4.794      863.914
03/19/2014  09:32:00       -2.193       29.174       44.679       18.831       26.269       24.419      354.609      690.038      596.295        0.225        0.082       29.256       19.179        0.430      335.076        5.471      863.933
03/19/2014  09:33:00        7.457       21.088        7.363       18.601       19.721       16.695      345.997      388.900      278.710        0.078        0.051       22.368       10.886        0.237      334.733        4.901      863.938
03/19/2014  09:34:00      -20.392        2.075       21.937       20.447       27.153       29.619      418.070      737.296      877.262        0.147        0.102       20.498       22.996        1.259      334.968        5.292      863.945
03/19/2014  09:35:00       -4.174       20.813       54.790       20.903       29.842       19.743      436.929      890.554      389.802        0.258        0.086       21.227       17.067        0.646      335.324        5.882      863.947
03/19/2014  09:36:00       -2.903       38.567       67.753       26.249       31.930       25.721      689.035     1019.496      661.560        0.423        0.119       38.676       18.473        0.228      335.263        5.780      863.943
03/19/2014  09:37:00       27.975       43.414       40.290       57.378       39.396       36.937     3292.201     1552.028     1364.355        0.525        0.310       51.647       30.767        0.355      334.786        4.988      863.948
03/19/2014  09:38:00      116.382       63.597       21.832       75.528       44.305       40.545     5704.449     1962.924     1643.860        1.369        0.466      132.625       25.826        0.038      334.555        4.604      863.963
03/19/2014  09:39:00       90.388       88.758       54.815       70.034       45.897       44.422     4904.737     2106.499     1973.329        1.402        0.449      126.681       33.642        0.071      334.781        4.980      863.979
03/19/2014  09:40:00       19.577       82.893       78.867       54.751       56.210       46.264     2997.717     3159.544     2140.380        1.088        0.415       85.174       32.468        0.145      334.962        5.280      863.997
03/19/2014  09:41:00      107.422       85.386        6.718       46.038       39.174       39.665     2119.498     1534.615     1573.289        1.205        0.261      137.223       14.606        0.011      334.307        4.193      864.003
03/19/2014  09:42:00       73.830      103.666       -2.997       60.146       55.437       42.167     3617.549     3073.224     1778.054        1.234        0.423      127.269       32.061        0.063      334.472        4.466      864.000
03/19/2014  09:43:00      106.587       81.826        6.254       46.179       32.132       24.601     2132.464     1032.468      605.207        1.093        0.189      134.374       14.631        0.012      334.281        4.151      863.993
03/19/2014  09:44:00       21.427       15.786       15.165       33.843       31.129       28.653     1145.317      969.025      821.017        0.194        0.147       26.614        4.060        0.023      335.062        5.447      863.986
03/19/2014  09:45:00       16.274       17.381       37.317       33.221       40.229       25.132     1103.653     1618.339      631.628        0.266        0.168       23.811       23.378        0.964      335.078        5.474      863.973
03/19/2014  09:46:00       62.685       55.152       30.350       43.372       43.684       37.571     1881.134     1908.283     1411.611        0.655        0.260       83.493       25.974        0.097      334.890        5.160      863.973
03/19/2014  09:47:00       73.353       85.761       59.857       56.632       46.101       49.155     3207.219     2125.343     2416.192        1.203        0.387      112.853       25.092        0.049      334.894        5.168      863.974
03/19/2014  09:48:00       -3.491       76.459      105.460       41.641       67.068       52.869     1733.989     4498.108     2795.082        1.300        0.451       76.538       53.355        0.486      335.477        6.138      863.984
03/19/2014  09:49:00       64.791       94.985       73.542       65.521       68.230       77.177     4292.959     4655.355     5956.301        1.676        0.745      114.978       57.485        0.250      334.861        5.113      864.007
03/19/2014  09:50:00      124.725       83.303       57.989       52.796       40.567       50.498     2787.368     1645.710     2550.005        1.642        0.349      149.986       17.448        0.014      334.592        4.666      864.022
03/19/2014  09:51:00       49.914       69.169       75.809       41.598       56.621       39.982     1730.395     3205.932     1598.536        0.978        0.327       85.298       21.008        0.061      334.832        5.066      864.012
03/19/2014  09:52:00       34.878       37.210       43.520       40.021       43.643       36.375     1601.705     1904.684     1323.142        0.466        0.241       51.000       30.440        0.356      335.090        5.494      864.010
03/19/2014  09:53:00       32.637       85.836       88.570       75.873       63.726       47.928     5756.744     4061.026     2297.133        1.419        0.606       91.831       46.463        0.256      335.326        5.886      864.011
03/19/2014  09:54:00       74.158      118.408      115.522       64.252       62.245       43.949     4128.352     3874.421     1931.474        2.140        0.497      139.714       36.659        0.069      334.969        5.290      864.018
03/19/2014  09:55:00      157.993      136.907       95.609       69.159       49.790       48.312     4782.922     2479.063     2334.084        3.122        0.480      209.058       34.544        0.027      334.448        4.422      864.039
03/19/2014  09:56:00      106.743      109.948       73.689       53.133       36.784       41.029     2823.112     1353.068     1683.356        1.738        0.293      153.241       24.932        0.026      334.554        4.602      864.062
03/19/2014  09:57:00      122.434       92.267       35.147       31.970       25.428       38.485     1022.072      646.606     1481.090        1.394        0.157      153.308       20.569        0.018      334.441        4.416      864.083
03/19/2014  09:58:00      111.772       71.241       53.944       60.306       50.199       45.265     3636.864     2519.938     2048.881        1.434        0.410      132.546       43.464        0.108      334.698        4.843      864.083
03/19/2014  09:59:00       93.732       52.463       40.982       59.543       49.698       46.508     3545.414     2469.903     2163.034        1.070        0.409      107.416       35.956        0.112      334.774        4.967      864.071
03/19/2014  10:00:00       -4.960      -36.065       35.472       41.439       83.150       43.422     1717.201     6914.003     1885.463        0.655        0.526       36.405       39.580        1.182      335.290        5.826      864.066
03/19/2014  10:01:00       39.724       57.729       76.864       46.537       45.584       36.166     2165.700     2077.893     1308.000        0.818        0.278       70.076       25.726        0.135      334.968        5.291      864.069
03/19/2014  10:02:00      118.600       89.102       55.021       66.577       61.747       48.571     4432.499     3812.673     2359.119        1.782        0.530      148.341       39.279        0.070      334.937        5.238      864.054
03/19/2014  10:03:00       77.298       87.554       79.936       76.938       53.689       43.801     5919.497     2882.550     1918.503        1.537        0.536      116.793       33.860        0.084      334.974        5.300      864.042
03/19/2014  10:04:00      124.849       80.078       17.169       52.115       42.589       42.540     2715.926     1813.846     1809.671        1.432        0.317      148.323       27.406        0.034      334.637        4.740      864.053
03/19/2014  10:05:00       22.281       31.589       20.071       31.312       36.507       23.547      980.417     1332.753      554.455        0.238        0.143       38.656       16.834        0.190      335.236        5.737      864.072
03/19/2014  10:06:00       56.392       73.121       -4.746       64.293       49.056       30.678     4133.614     2406.519      941.146        0.801        0.374       92.341       19.685        0.045      335.089        5.493      864.080
03/19/2014  10:07:00       32.683       57.902       74.911       62.894       52.002       72.613     3955.688     2704.198     5272.694        1.098        0.597       66.490       57.665        0.752      335.466        6.118      864.085
03/19/2014  10:08:00       50.782      -46.082        9.254       52.671       99.488       64.385     2774.286     9897.899     4145.461        1.080        0.841       68.574       71.507        1.087      335.319        5.876      864.091
03/19/2014  10:09:00       36.268       40.917       35.180       37.882       45.352       44.396     1435.046     2056.788     1971.026        0.484        0.273       54.677       29.470        0.290      335.352        5.929      864.094
03/19/2014  10:10:00       53.991       82.375       54.994       42.216       19.491       32.013     1782.221      379.892     1024.814        0.796        0.159       98.492       26.714        0.074      335.016        5.371      864.089
03/19/2014  10:11:00       57.369       50.153       11.199       37.912       33.840       37.609     1437.321     1145.143     1414.418        0.496        0.200       76.200       24.767        0.106      335.264        5.782      864.079
03/19/2014  10:12:00      136.822      104.923       17.919       57.892       29.229       38.411     3351.470      854.332     1475.394        1.786        0.284      172.421       13.976        0.007      335.062        5.446      864.088
03/19/2014  10:13:00      110.033       73.887        9.102       51.925       32.796       35.922     2696.167     1075.545     1290.402        1.135        0.253      132.539       36.403        0.075      334.768        4.959      864.107
03/19/2014  10:14:00       38.848       35.781       13.063       31.759       29.719       28.503     1008.629      883.221      812.433        0.283        0.135       52.816       16.457        0.097      335.177        5.638      864.122
03/19/2014  10:15:00       56.585       53.346       15.347       51.386       39.315       32.718     2640.539     1545.639     1070.488        0.577        0.263       77.767       19.973        0.066      335.423        6.047      864.127
03/19/2014  10:16:00       -4.935       32.999       78.203       33.138       85.409       54.836     1098.108     7294.728     3007.036        0.931        0.570       33.366       59.252        3.154      335.885        6.817      864.128
03/19/2014  10:17:00       55.290       14.103       61.893       87.621       56.403       43.268     7677.430     3181.264     1872.099        0.991        0.637       57.060       39.131        0.470      335.874        6.798      864.126
03/19/2014  10:18:00        4.959      -34.788       41.628       44.251       75.553       46.987     1958.145     5708.302     2207.810        0.642        0.494       35.140       42.931        1.493      336.066        7.119      864.133
03/19/2014  10:19:00      101.839       87.671       62.869       67.951       82.958       51.148     4617.296     6882.014     2616.147        1.806        0.706      134.378       44.007        0.107      335.398        6.005      864.133
03/19/2014  10:20:00       73.718       76.303       94.942       80.783       66.953       53.429     6525.917     4482.647     2854.637        1.706        0.693      106.097       37.300        0.124      335.734        6.565      864.132
03/19/2014  10:21:00      101.160      150.404      127.976       53.700       53.920       42.064     2883.657     2907.342     1769.392        2.839        0.378      181.259       31.272        0.030      335.242        5.744      864.127
03/19/2014  10:22:00       72.244       42.410       28.117       60.182       53.706       46.705     3621.883     2884.290     2181.325        0.825        0.434       83.773       35.693        0.182      335.370        5.959      864.144
03/19/2014  10:23:00       88.127       37.443       21.454       37.724       51.375       40.164     1423.072     2639.405     1613.137        0.765        0.284       95.752       26.533        0.077      335.273        5.797      864.141
03/19/2014  10:24:00       -2.132       41.289       87.299       63.563       94.409       70.910     4040.253     8913.128     5028.179        1.365        0.899       41.344       72.528        3.077      335.787        6.652      864.103
03/19/2014  10:25:00      -36.911      -69.540      -25.347       55.813       63.450       37.890     3115.040     4025.923     1435.639        0.771        0.429       78.729       32.942        0.175      335.702        6.511      864.105
03/19/2014  10:26:00      -38.363      -57.937       -0.680       57.048       50.125       28.672     3254.441     2512.547      822.079        0.571        0.329       69.487       19.796        0.081      335.668        6.455      864.099
03/19/2014  10:27:00       -3.039      -18.188       17.873       26.222       39.287       35.382      687.580     1543.473     1251.906        0.207        0.174       18.440       24.583        1.777      336.204        7.350      864.092
03/19/2014  10:28:00      -20.018      -17.628       43.061       44.961       49.369       40.610     2021.522     2437.336     1649.147        0.434        0.305       26.674       33.646        1.591      336.454        7.768      864.083
03/19/2014  10:29:00       93.261     -181.324      -19.829       84.055       80.569       46.679     7065.197     6491.310     2178.931        2.885        0.787      203.902       56.766        0.078      335.730        6.555      864.081
03/19/2014  10:30:00       71.567     -143.383       -9.712       80.183      108.188       67.975     6429.346    11704.571     4620.627        2.426        1.138      160.252       61.516        0.147      335.768        6.621      864.075
03/19/2014  10:31:00       40.441      -65.213       11.783       76.832       93.809       54.185     5903.142     8800.092     2936.033        1.183        0.882       76.734       62.775        0.669      336.007        7.020      864.066
03/19/2014  10:32:00      -17.013       35.290       72.171       24.573       33.949       20.369      603.818     1152.537      414.911        0.446        0.109       39.177       18.716        0.228      336.345        7.585      864.072
03/19/2014  10:33:00       48.793       71.073       89.124       61.621       48.378       31.645     3797.096     2340.440     1001.399        1.126        0.357       86.210       24.018        0.078      335.900        6.842      864.084
03/19/2014  10:34:00       25.756        8.531       16.306       53.251       71.916       34.234     2835.632     5171.888     1171.967        0.509        0.459       27.132       23.258        0.735      335.778        6.639      864.077
03/19/2014  10:35:00       27.580        3.419       18.913       58.626       35.478       26.337     3437.022     1258.666      693.639        0.326        0.269       27.791       15.575        0.314      336.171        7.294      864.075
03/19/2014  10:36:00       54.646       52.768       52.297       51.224       45.077       33.535     2623.848     2031.911     1124.604        0.714        0.289       75.965       25.937        0.117      336.084        7.149      864.072
03/19/2014  10:37:00       23.274       15.893       22.646       45.671       40.663       35.114     2085.828     1653.486     1232.982        0.314        0.249       28.183       13.515        0.230      336.122        7.212      864.083
03/19/2014  10:38:00       40.810       35.667       33.646       38.909       38.642       37.913     1513.947     1493.206     1437.367        0.426        0.222       54.199       15.862        0.086      336.398        7.674      864.088
03/19/2014  10:39:00       71.036       92.215      100.387       66.062       57.167       44.476     4364.224     3268.091     1978.101        1.662        0.481      116.403       39.169        0.113      336.025        7.050      864.063
03/19/2014  10:40:00       11.882      -40.989       54.841       63.220       78.114       56.959     3996.789     6101.815     3244.337        0.908        0.667       42.677       53.374        1.564      336.406        7.688      864.056
03/19/2014  10:41:00      -44.094        8.447       29.249       30.977       42.313       33.035      959.596     1790.414     1091.332        0.336        0.192       44.896       29.016        0.418      336.338        7.572      864.055
03/19/2014  10:42:00      -16.866       19.674       33.850       37.769       36.328       27.113     1426.476     1319.754      735.095        0.265        0.174       25.914       22.775        0.772      336.451        7.761      864.065
03/19/2014  10:43:00        5.495      -30.099       35.315       47.458       73.020       50.689     2252.247     5331.985     2569.387        0.617        0.508       30.597       44.745        2.139      336.637        8.072      864.089
03/19/2014  10:44:00       46.158     -138.712        4.969       58.781       74.276       60.855     3455.215     5516.876     3703.298        1.703        0.634      146.191       45.720        0.098      335.881        6.809      864.110
03/19/2014  10:45:00       12.404      -80.536       16.901       41.395       57.041       42.921     1713.545     3253.669     1842.196        0.687        0.340       81.486       35.550        0.190      336.500        7.844      864.120
03/19/2014  10:46:00       21.829     -100.186      -15.702       52.432       71.830       34.686     2749.072     5159.559     1203.110        0.993        0.456      102.537       34.059        0.110      336.275        7.466      864.135
03/19/2014  10:47:00      -75.882      -19.361        7.940       54.307       32.984       29.106     2949.259     1087.929      847.147        0.554        0.244       78.313       21.660        0.076      336.329        7.557      864.140
03/19/2014  10:48:00        2.818       -0.365       56.267       32.583       44.982       30.858     1061.658     2023.373      952.228        0.360        0.202        2.842       28.387       99.765      336.820        8.379      864.139
03/19/2014  10:49:00        0.743        2.267       38.796       59.580       76.218       40.730     3549.724     5809.177     1658.908        0.626        0.551        2.386       44.098      341.703      336.163        7.280      864.142
03/19/2014  10:50:00       20.284     -111.443      -18.544       67.266       65.562       38.977     4524.754     4298.397     1519.202        1.176        0.517      113.274       42.317        0.140      336.279        7.474      864.158
03/19/2014  10:51:00       39.253     -128.516      -15.638       51.727       59.899       39.498     2675.693     3587.915     1560.083        1.306        0.391      134.377       13.283        0.010      336.224        7.382      864.150
03/19/2014  10:52:00       34.607      -18.815       45.163       48.419      123.031       62.732     2344.398    15136.737     3935.310        1.250        1.071       39.391       83.786        4.524      336.422        7.712      864.163
03/19/2014  10:53:00       37.236       48.736       25.767       36.859       34.258       35.899     1358.614     1173.594     1288.719        0.412        0.191       61.333       29.899        0.238      336.003        7.014      864.161
03/19/2014  10:54:00       25.975       54.618       13.979       44.893       35.898       43.518     2015.415     1288.675     1893.848        0.452        0.260       60.480       39.256        0.421      336.057        7.104      864.159
03/19/2014  10:55:00       43.236       66.214       69.183       50.824       54.996       50.983     2583.118     3024.587     2599.256        0.962        0.410       79.080       41.661        0.278      336.312        7.530      864.154
03/19/2014  10:56:00       36.850     -114.001      -14.759       45.348       46.645       31.741     2056.434     2175.771     1007.463        0.990        0.262      119.809       35.302        0.087      336.166        7.286      864.158
03/19/2014  10:57:00        1.590      -46.365      -18.679       18.544       51.312       18.511      343.896     2632.950      342.665        0.291        0.166       46.393       11.894        0.066      336.086        7.152      864.140
03/19/2014  10:58:00       57.343      -63.446       10.434       46.295       79.404       45.546     2143.203     6305.054     2074.456        0.897        0.526       85.519       43.996        0.265      336.290        7.493      864.135
03/19/2014  10:59:00       29.845       65.678       90.350       68.151       78.466       48.826     4644.583     6156.846     2383.958        1.327        0.659       72.141       53.263        0.545      336.632        8.064      864.121
03/19/2014  11:00:00       99.795      -64.333       21.256       55.183       93.474       44.078     3045.117     8737.440     1942.831        1.413        0.686      118.734       46.730        0.155      336.142        7.245      864.109
03/19/2014  11:01:00       83.210       60.208       29.500       29.335       29.880       30.435      860.520      892.803      926.274        0.705        0.134      102.708       19.178        0.035      335.982        6.979      864.091
03/19/2014  11:02:00       56.952       84.074       72.183       53.640       42.767       47.717     2877.232     1829.031     2276.925        1.125        0.349      101.548       39.500        0.151      336.618        8.040      864.056
03/19/2014  11:03:00       42.419       86.945      109.715       52.978       58.165       55.548     2806.680     3383.163     3085.529        1.533        0.464       96.741       45.777        0.224      336.546        7.920      864.060
03/19/2014  11:04:00       53.768       51.900       44.512       53.525       35.431       38.055     2864.912     1255.335     1448.199        0.657        0.278       74.730       27.790        0.138      336.732        8.232      864.075
03/19/2014  11:05:00       42.067      157.511      150.035       70.434       82.851       75.965     4961.001     6864.357     5770.684        3.334        0.880      163.032       72.201        0.196      336.414        7.698      864.071
03/19/2014  11:06:00       81.252      109.971      116.296       86.575       90.139       69.994     7495.290     8125.055     4899.116        2.637        1.026      136.732       69.626        0.259      336.437        7.735      864.075
03/19/2014  11:07:00      126.146       71.915       26.567       62.813       63.114       42.848     3945.466     3983.405     1835.935        1.578        0.488      145.205       24.786        0.029      336.384        7.648      864.080
03/19/2014  11:08:00       47.020       55.422       40.916       61.974       54.608       44.092     3840.747     2982.031     1944.128        0.786        0.438       72.680       25.132        0.120      336.783        8.315      864.070
03/19/2014  11:09:00      140.174      114.713       95.415      104.317       84.391       92.058    10881.976     7121.863     8474.654        3.419        1.324      181.129       70.767        0.153      336.535        7.898      864.053
03/19/2014  11:10:00       42.659       77.727      130.130       66.985      112.345       70.321     4486.951    12621.505     4945.047        2.342        1.103       88.664       73.772        0.692      336.916        8.537      864.053
03/19/2014  11:11:00       84.610      101.033      110.938       67.957       69.266       43.020     4618.103     4797.743     1850.712        2.047        0.563      131.782       30.436        0.053      336.678        8.139      864.063
03/19/2014  11:12:00       96.973       60.281       42.342       44.248       46.508       47.618     1957.906     2163.020     2267.481        1.061        0.319      114.182       29.870        0.068      336.279        7.473      864.079
03/19/2014  11:13:00       95.748       84.118       86.065       58.614       65.944       45.132     3435.629     4348.610     2036.886        1.673        0.491      127.450       31.934        0.063      336.519        7.876      864.065
03/19/2014  11:14:00       97.748       70.995       11.002       61.935       38.307       44.336     3835.912     1467.449     1965.715        1.099        0.363      120.809       18.777        0.024      336.659        8.110      864.068
03/19/2014  11:15:00       93.969       48.053        9.754       34.295       38.220       30.740     1176.155     1460.769      944.939        0.741        0.179      105.543       17.744        0.028      336.807        8.356      864.065
03/19/2014  11:16:00       54.591       53.397       21.802       80.106       39.803       37.169     6417.043     1584.261     1381.499        0.784        0.469       76.364       38.128        0.249      337.293        9.168      864.073
03/19/2014  11:17:00      -21.634      -31.556       53.279       53.766       63.092       46.505     2890.744     3980.555     2162.681        0.667        0.452       38.260       36.808        0.926      337.498        9.514      864.077
03/19/2014  11:18:00       52.847      101.335       99.995       42.787       40.776       42.871     1830.757     1662.643     1837.923        1.419        0.267      114.287       28.146        0.061      336.685        8.153      864.108
03/19/2014  11:19:00       16.759       -2.442       27.358       39.509       75.870       29.652     1560.931     5756.190      879.269        0.461        0.410       16.936       25.892        2.337      336.924        8.553      864.114
03/19/2014  11:20:00      -38.305        7.072      -21.000       33.077       55.767       22.972     1094.066     3109.947      527.713        0.334        0.237       38.952       16.938        0.189      336.588        7.991      864.116
03/19/2014  11:21:00      -81.909       40.081      -11.206       29.169       25.407       25.669      850.802      645.522      658.895        0.530        0.108       91.190       19.718        0.047      336.513        7.867      864.118
03/19/2014  11:22:00      -15.423      -27.584       -5.047       30.421       25.282       26.876      925.420      639.192      722.322        0.166        0.114       31.603       20.627        0.426      336.972        8.632      864.106
03/19/2014  11:23:00       50.151       44.336       25.445       47.237       42.498       40.268     2231.349     1806.108     1621.540        0.539        0.283       66.938       31.369        0.220      336.858        8.443      864.108
03/19/2014  11:24:00       42.124       65.389        3.104       51.168       57.433       31.905     2618.206     3298.525     1017.908        0.650        0.347       77.783       25.551        0.108      337.025        8.721      864.095
03/19/2014  11:25:00       53.472      -30.532      -15.081       36.492       58.043       33.665     1331.700     3368.996     1133.337        0.493        0.292       61.575       26.725        0.188      336.638        8.075      864.108
03/19/2014  11:26:00       -5.967       45.173      -15.574       21.742       35.384       24.378      472.717     1252.029      594.295        0.232        0.116       45.565       10.982        0.058      336.854        8.435      864.098
03/19/2014  11:27:00       32.682       70.015       -3.841       43.453       38.042       34.303     1888.166     1447.192     1176.690        0.525        0.226       77.268       27.023        0.122      336.985        8.653      864.103
03/19/2014  11:28:00       83.219       67.056       42.798       58.107       55.067       48.670     3376.373     3032.367     2368.744        1.101        0.439      106.873       23.436        0.048      337.188        8.993      864.094
03/19/2014  11:29:00      139.173      100.633       72.470       86.802       51.965       52.794     7534.519     2700.406     2787.225        2.388        0.651      171.744       39.907        0.054      336.920        8.543      864.092
03/19/2014  11:30:00       70.281       98.447       90.862       61.557       65.874       46.435     3789.280     4339.435     2156.252        1.658        0.514      120.959       35.400        0.086      337.053        8.767      864.087
03/19/2014  11:31:00       39.359      -26.730       24.331       43.500       50.213       40.963     1892.220     2521.341     1677.999        0.447        0.305       47.577       23.273        0.239      337.245        9.089      864.088
03/19/2014  11:32:00       24.005       84.617       11.921       65.238       34.533       45.114     4255.983     1192.512     2035.242        0.768        0.374       87.956       32.490        0.136      337.114        8.871      864.066
03/19/2014  11:33:00       47.209       93.315       91.385       58.652       55.854       34.034     3440.080     3119.695     1158.331        1.350        0.386      104.577       26.728        0.065      337.294        9.171      864.055
03/19/2014  11:34:00      117.415       96.400       43.282       26.573       26.784       28.868      706.120      717.371      833.349        1.360        0.113      151.919       21.187        0.019      336.558        7.941      864.034
03/19/2014  11:35:00       79.662       78.035       43.718       35.363       18.205       30.825     1250.518      331.428      950.200        0.844        0.127      111.515       18.021        0.026      336.628        8.058      864.025
03/19/2014  11:36:00       50.596       68.687       45.534       37.485       43.103       46.004     1405.151     1857.861     2116.337        0.736        0.269       85.311       26.133        0.094      337.262        9.118      863.998
03/19/2014  11:37:00       37.272       79.804       91.649       47.995       43.636       35.223     2303.535     1904.144     1240.625        1.080        0.272       88.079       34.305        0.152      337.381        9.316      863.989
03/19/2014  11:38:00       77.701       65.514       54.761       34.778       19.997       28.257     1209.509      399.864      798.454        0.787        0.120      101.634       10.839        0.011      336.966        8.622      863.982
03/19/2014  11:39:00      -19.224       19.357        0.934       33.597       35.182       21.062     1128.731     1237.771      443.616        0.178        0.141       27.281       13.087        0.230      337.302        9.185      863.982
03/19/2014  11:40:00      -13.107        2.009      -31.497       46.092       53.932       18.885     2124.470     2908.701      356.658        0.328        0.269       13.260       22.709        2.933      336.815        8.370      863.984
03/19/2014  11:41:00      -16.889       49.360      -19.922       29.108       73.985       27.331      847.289     5473.723      746.980        0.509        0.353       52.169       34.216        0.430      336.927        8.558      863.971
03/19/2014  11:42:00      -35.020       -1.573      -24.905       28.025       43.962       15.528      785.385     1932.652      241.109        0.240        0.148       35.056       22.470        0.411      336.841        8.413      863.950
03/19/2014  11:43:00      -61.025       18.210        8.267       39.685       43.820       30.384     1574.864     1920.163      923.174        0.427        0.221       63.684       28.754        0.204      337.451        9.433      863.922
03/19/2014  11:44:00      -62.990       50.400       -4.452       32.960       35.083       39.750     1086.332     1230.845     1580.049        0.521        0.195       80.672       25.137        0.097      337.310        9.197      863.905
03/19/2014  11:45:00      -11.497       44.179       47.125       22.200       37.731       45.067      492.837     1423.598     2030.996        0.413        0.197       45.651       28.925        0.401      338.178       10.654      863.891
03/19/2014  11:46:00      -13.567        8.750       37.782       39.114       57.973       32.748     1529.943     3360.841     1072.411        0.382        0.298       16.144       19.466        1.454      338.225       10.732      863.892
03/19/2014  11:47:00      115.695       57.766       27.501       73.926       61.449       49.646     5465.100     3775.922     2464.684        1.459        0.585      129.314       31.793        0.060      337.674        9.807      863.877
03/19/2014  11:48:00       83.200       85.148       88.330       82.072       64.581       63.943     6735.762     4170.760     4088.749        1.848        0.750      119.048       53.537        0.202      337.628        9.729      863.872
03/19/2014  11:49:00       34.523       67.707       79.373       48.945       54.186       36.622     2395.573     2936.130     1341.207        0.937        0.334       76.001       40.151        0.279      337.801       10.020      863.862
03/19/2014  11:50:00       99.001       81.688       87.423       72.452       70.640       63.726     5249.325     4990.064     4061.055        1.921        0.715      128.351       56.343        0.193      337.581        9.650      863.839
03/19/2014  11:51:00      -10.416      -78.355       13.251       85.330       75.715       44.458     7281.125     5732.722     1976.537        1.070        0.750       79.044       31.591        0.160      338.043       10.427      863.838
03/19/2014  11:52:00       59.057       30.260       79.176       62.105       82.758       66.970     3857.022     6848.837     4484.948        1.293        0.760       66.358       58.930        0.789      338.107       10.534      863.837
03/19/2014  11:53:00       13.199       34.104       71.652       35.198       49.880       42.464     1238.920     2487.979     1803.188        0.600        0.277       36.569       40.045        1.199      337.963       10.291      863.846
03/19/2014  11:54:00       16.798       71.210       82.492       39.581       49.561       36.563     1566.685     2456.251     1336.849        0.876        0.268       73.164       34.786        0.226      337.819       10.051      863.826
03/19/2014  11:55:00       43.362      -31.250       17.189       48.454       71.710       40.337     2347.812     5142.290     1627.076        0.613        0.456       53.449       45.686        0.731      337.917       10.214      863.823
03/19/2014  11:56:00       47.875      -84.235      -10.254       53.804       81.580       35.887     2894.916     6655.288     1287.891        1.016        0.542       96.889       31.595        0.106      337.679        9.816      863.809
03/19/2014  11:57:00       31.248      -69.805       -5.201       62.194       60.074       42.737     3868.114     3608.940     1826.418        0.759        0.465       76.480       42.616        0.310      338.053       10.443      863.794
03/19/2014  11:58:00       69.954       71.823       41.864       58.612       35.571       40.106     3435.349     1265.266     1608.525        0.906        0.315      100.260       38.782        0.150      338.018       10.386      863.775
03/19/2014  11:59:00       20.491       80.840       97.875       48.334       62.994       49.499     2336.205     3968.279     2450.154        1.264        0.438       83.397       44.843        0.289      338.527       11.239      863.760
03/19/2014  12:00:00       53.754       84.776      120.152       82.342       85.537       63.669     6780.142     7316.538     4053.789        2.133        0.908      100.381       60.333        0.361      338.019       10.385      863.727
03/19/2014  12:01:00      120.365      110.280       81.057       70.885       78.739       63.458     5024.669     6199.836     4026.958        2.423        0.763      163.247       54.811        0.113      337.715        9.874      863.723
03/19/2014  12:02:00       51.154       41.871       14.934       51.203       36.074       32.670     2621.794     1301.321     1067.322        0.479        0.250       66.105       24.667        0.139      337.836       10.080      863.726
03/19/2014  12:03:00       88.108       61.668       81.784       75.204       68.419       59.192     5655.611     4681.123     3503.720        1.604        0.692      107.545       59.386        0.305      337.918       10.216      863.709
03/19/2014  12:04:00      145.267       77.506       13.707       48.259       45.298       42.966     2328.950     2051.908     1846.096        1.676        0.311      164.650       17.547        0.011      337.535        9.575      863.708
03/19/2014  12:05:00      119.841       95.031       45.676       52.110       32.729       46.527     2715.475     1071.158     2164.725        1.571        0.298      152.947       38.587        0.064      337.827       10.063      863.703
03/19/2014  12:06:00       18.512       33.846       -8.931       33.692       26.477       27.837     1135.185      701.016      774.913        0.209        0.131       38.577       18.206        0.223      337.858       10.117      863.695
03/19/2014  12:07:00       49.257       43.890       54.306       37.129       29.927       37.540     1378.548      895.638     1409.276        0.549        0.184       65.974       18.810        0.081      338.304       10.865      863.696
03/19/2014  12:08:00       32.780        6.188       42.261       46.044       23.493       29.006     2120.014      551.905      841.344        0.321        0.176       33.359       26.802        0.646      338.285       10.833      863.700
03/19/2014  12:09:00        8.290        8.391       12.784       29.694       22.524       26.095      881.745      507.335      680.949        0.119        0.104       11.796       19.306        2.679      338.311       10.877      863.674
03/19/2014  12:10:00        7.971       49.679        5.775       44.520       63.712       28.226     1982.043     4059.164      796.681        0.470        0.342       50.315       27.351        0.295      338.541       11.264      863.651
03/19/2014  12:11:00       87.940       71.614       46.458       62.486       40.990       39.258     3904.554     1680.174     1541.207        1.107        0.356      113.411       29.439        0.067      338.661       11.465      863.649
03/19/2014  12:12:00       60.358       33.670       49.852       68.301       42.087       38.852     4665.039     1771.347     1509.498        0.760        0.397       69.114       34.950        0.256      338.780       11.665      863.633
03/19/2014  12:13:00      125.892      109.199       50.032       60.518       60.932       52.939     3662.379     3712.685     2802.544        2.022        0.509      166.653       40.903        0.060      338.199       10.687      863.620
03/19/2014  12:14:00       20.810       17.704       33.905       41.866       47.711       33.955     1752.726     2276.360     1152.947        0.354        0.259       27.322       23.802        0.759      339.054       12.126      863.610
03/19/2014  12:15:00      -14.435      -11.302       31.239       26.484       43.758       31.445      701.391     1914.747      988.758        0.246        0.180       18.334       26.776        2.133      339.096       12.197      863.609
03/19/2014  12:16:00        2.673      -35.903       26.585       25.773       65.541       38.497      664.247     4295.620     1481.992        0.422        0.322       36.003       44.434        1.523      339.026       12.079      863.597
03/19/2014  12:17:00      -22.365       -6.056       36.034       25.727       54.484       41.263      661.879     2968.460     1702.612        0.358        0.267       23.171       41.166        3.157      339.139       12.269      863.585
03/19/2014  12:18:00       -2.402       42.817       56.159       28.257       50.027       41.221      798.450     2502.712     1699.143        0.500        0.250       42.884       23.451        0.299      338.963       11.972      863.570
03/19/2014  12:19:00       45.195      102.754        6.372       57.154       44.135       56.175     3266.527     1947.865     3155.620        1.050        0.419      112.254       28.770        0.066      338.447       11.105      863.547
03/19/2014  12:20:00       39.409       25.466       21.999       25.590       45.062       33.428      654.840     2030.584     1117.438        0.324        0.190       46.921       31.892        0.462      338.472       11.146      863.526
03/19/2014  12:21:00       54.424       52.962       28.024       29.400       24.124       30.987      864.378      581.983      960.205        0.448        0.120       75.941        8.014        0.011      338.484       11.166      863.510
03/19/2014  12:22:00       55.705       46.045       14.443       72.368       72.591       58.789     5237.124     5269.392     3456.159        0.969        0.698       72.271       37.896        0.275      338.739       11.597      863.502
03/19/2014  12:23:00       81.424       72.816       21.536       63.663       52.927       57.186     4053.034     2801.314     3270.238        1.126        0.506      109.234       23.184        0.045      338.488       11.173      863.499
03/19/2014  12:24:00       66.278       60.058       -7.209       50.597       22.474       26.372     2560.054      505.077      695.490        0.591        0.188       89.441       12.111        0.018      338.489       11.178      863.490
03/19/2014  12:25:00       96.183       75.669       25.887       37.125       27.880       43.458     1378.293      777.283     1888.593        0.984        0.202      122.381       26.028        0.045      338.322       10.895      863.473
03/19/2014  12:26:00       66.280       28.086       16.275       29.858       32.299       43.869      891.512     1043.230     1924.461        0.465        0.193       71.986       23.796        0.109      338.490       11.178      863.453
03/19/2014  12:27:00       70.675       54.806       14.448       38.812       37.486       51.829     1506.345     1405.192     2686.280        0.690        0.280       89.435       36.296        0.165      338.871       11.817      863.424
03/19/2014  12:28:00       62.325       40.605       41.814       33.120       38.754       34.439     1096.957     1501.909     1186.066        0.553        0.189       74.385       19.008        0.065      338.763       11.636      863.401
03/19/2014  12:29:00       28.198       24.355       41.250       78.901       59.920       36.642     6225.314     3590.379     1342.650        0.712        0.558       37.259       30.407        0.666      339.314       12.563      863.380
03/19/2014  12:30:00       88.275      116.602      110.871       98.601       64.684       50.685     9722.183     4184.007     2568.961        2.507        0.824      146.248       43.527        0.089      338.740       11.596      863.354
03/19/2014  12:31:00      133.119       92.415       55.191       89.576       74.111       61.125     8023.837     5492.375     3736.229        2.328        0.863      162.053       60.452        0.139      338.728       11.574      863.353
03/19/2014  12:32:00       94.710       35.528       -0.809       46.114       43.257       41.266     2126.471     1871.167     1702.923        0.797        0.285      101.154       27.085        0.072      338.485       11.169      863.353
03/19/2014  12:33:00       24.426       -4.443        6.997       31.530       33.888       24.438      994.165     1148.390      597.232        0.170        0.137       24.826       13.698        0.304      338.749       11.613      863.345
03/19/2014  12:34:00      -12.238       56.732        4.517       30.544       43.365       25.544      932.950     1880.565      652.489        0.343        0.173       58.037       23.863        0.169      339.157       12.299      863.325
03/19/2014  12:35:00       15.029       40.585       -1.381       35.070       40.119       32.690     1229.887     1609.560     1068.634        0.289        0.195       43.279       24.559        0.322      339.052       12.122      863.326
03/19/2014  12:36:00      -45.456       11.599      -21.017       37.486       35.243       23.427     1405.237     1242.074      548.817        0.292        0.160       46.913       17.752        0.143      338.529       11.243      863.312
03/19/2014  12:37:00      -16.400       -5.600        9.069       24.875       26.897       27.421      618.783      723.473      751.886        0.124        0.105       17.330       19.384        1.251      339.397       12.702      863.300
03/19/2014  12:38:00       -6.028        6.903       22.880       12.605       20.493       19.740      158.881      419.951      389.666        0.079        0.048        9.165       12.063        1.732      339.556       12.972      863.295
03/19/2014  12:39:00       -3.953       24.877       26.463       42.479       52.959       28.262     1804.440     2804.641      798.720        0.337        0.270       25.189       16.265        0.417      339.497       12.871      863.281
03/19/2014  12:40:00       47.139       27.633       23.085       57.125       51.420       47.958     3263.254     2643.975     2299.926        0.586        0.410       54.641       28.893        0.280      339.601       13.045      863.253
03/19/2014  12:41:00       80.564       68.726       32.925       85.963       56.411       60.258     7389.605     3182.222     3631.045        1.325        0.710      105.895       44.779        0.179      339.428       12.754      863.244
03/19/2014  12:42:00       28.416       19.955       89.639       56.597      107.356       65.801     3203.272    11525.327     4329.707        1.415        0.953       34.723       66.030        3.616      339.398       12.704      863.220
03/19/2014  12:43:00       31.560       80.070       90.383       45.204       48.395       55.629     2043.393     2342.057     3094.550        1.153        0.374       86.066       19.852        0.053      339.056       12.127      863.202
03/19/2014  12:44:00      -13.942      -72.426        6.052       65.789       97.490       42.036     4328.222     9504.379     1767.044        1.053        0.780       73.756       35.833        0.236      339.452       12.793      863.190
03/19/2014  12:45:00       71.630       55.889       84.993       91.790      142.523      102.862     8425.386    20312.835    10580.637        2.739        1.966       90.854       91.966        1.025      339.301       12.540      863.174
03/19/2014  12:46:00       25.486       45.990       10.512       54.373       34.749       24.730     2956.399     1207.478      611.582        0.382        0.239       52.580       21.317        0.164      338.793       11.688      863.179
03/19/2014  12:47:00       13.419       70.915       93.526       42.349       63.568       53.791     1793.471     4040.952     2893.514        1.134        0.436       72.173       47.901        0.440      339.584       13.017      863.147
03/19/2014  12:48:00       40.332       39.191      102.783       57.309       62.919       43.657     3284.303     3958.799     1905.903        1.144        0.457       56.237       36.550        0.422      339.665       13.154      863.134
03/19/2014  12:49:00       22.428       63.958       67.872       46.923       59.261       38.237     2201.774     3511.849     1462.098        0.819        0.359       67.776       28.689        0.179      339.244       12.444      863.106
03/19/2014  12:50:00       41.075      -71.322       -3.708       43.413       43.703       32.199     1884.688     1909.993     1036.754        0.581        0.242       82.304       28.219        0.118      338.965       11.975      863.090
03/19/2014  12:51:00       39.100       19.772       34.796       37.836       37.013       39.441     1431.561     1369.993     1555.616        0.374        0.218       43.815       25.702        0.344      339.340       12.607      863.052
03/19/2014  12:52:00       83.262       83.394       93.615       86.925       67.099       59.159     7556.007     4502.262     3499.836        1.910        0.778      117.844       54.346        0.213      339.253       12.457      863.061
03/19/2014  12:53:00      100.148      115.313      105.820       78.040       54.790       55.716     6090.252     3001.979     3104.276        2.336        0.610      152.731       45.099        0.087      338.973       11.988      863.038
03/19/2014  12:54:00       68.394       24.279       58.568       34.938       37.920       31.050     1220.661     1437.910      964.102        0.616        0.181       72.575       26.034        0.129      339.161       12.305      863.029
03/19/2014  12:55:00       81.490       52.614       28.882       50.220       68.813       45.810     2522.027     4735.204     2098.577        0.980        0.468       96.999        5.036        0.003      339.302       12.543      862.992
03/19/2014  12:56:00       42.821      -91.452       -8.956       45.660       60.881       36.372     2084.879     3706.552     1322.902        0.869        0.356      100.981       34.255        0.115      339.207       12.385      862.990
03/19/2014  12:57:00       14.278      -82.463        8.167       36.552       62.208       36.208     1336.044     3869.851     1311.015        0.679        0.326       83.690       36.216        0.187      339.565       12.984      862.960
03/19/2014  12:58:00        9.731       62.040      105.603       49.650       60.521       45.349     2465.130     3662.848     2056.502        1.164        0.409       62.799       43.749        0.485      339.681       13.180      862.944
03/19/2014  12:59:00      118.883       93.112       92.237       68.718       69.008       65.087     4722.104     4762.115     4236.344        2.251        0.686      151.006       54.076        0.128      339.169       12.317      862.954
03/19/2014  13:00:00       85.519       69.688       49.743       82.744       50.735       47.715     6846.594     2574.048     2276.713        1.317        0.585      110.317       46.488        0.178      339.426       12.751      862.937
03/19/2014  13:01:00      186.687      122.862       43.432       54.725       33.570       41.712     2994.861     1126.978     1739.881        2.885        0.293      223.489       22.352        0.010      339.118       12.231      862.921
03/19/2014  13:02:00       50.316       54.462       -8.044       82.260       47.311       35.417     6766.681     2238.356     1254.384        0.791        0.513       74.147       29.714        0.161      339.118       12.233      862.922
03/19/2014  13:03:00       18.154       21.254       -7.767       45.193       54.250       28.633     2042.416     2943.056      819.828        0.332        0.290       27.952       23.475        0.705      339.358       12.635      862.892
03/19/2014  13:04:00       67.140       50.056       16.176       68.374       54.904       52.507     4674.981     3014.483     2756.957        0.886        0.522       83.746       40.461        0.233      339.470       12.825      862.868
03/19/2014  13:05:00       96.839       69.380       12.325       40.589       37.668       34.360     1647.430     1418.854     1180.621        0.929        0.212      119.127       22.101        0.034      339.245       12.446      862.863
03/19/2014  13:06:00       81.119      109.507      119.353      101.971       73.744       57.461    10398.114     5438.188     3301.808        2.597        0.957      136.279       35.463        0.068      339.721       13.247      862.842
03/19/2014  13:07:00       19.676       79.481       84.031       45.515       55.117       47.526     2071.590     3037.850     2258.727        1.057        0.368       81.881       40.744        0.248      340.147       13.967      862.844
03/19/2014  13:08:00       58.208       34.817       42.634       56.085       41.799       42.044     3145.478     1747.188     1767.712        0.654        0.333       67.826       34.934        0.265      339.612       13.064      862.856
03/19/2014  13:09:00       33.786       43.016       45.728       36.454       40.519       32.842     1328.865     1641.811     1078.598        0.457        0.202       54.698       21.077        0.148      339.777       13.343      862.830
03/19/2014  13:10:00       76.009       69.004       23.509       69.905       38.305       35.351     4886.761     1467.277     1249.724        0.935        0.380      102.659       26.011        0.064      339.466       12.819      862.822
03/19/2014  13:11:00       71.288       71.578       14.030       59.470       44.869       49.909     3536.630     2013.201     2490.877        0.922        0.402      101.022       29.873        0.087      339.579       13.011      862.804
03/19/2014  13:12:00       14.991      167.723      -16.278       55.939       80.317       35.968     3129.205     6450.806     1293.683        1.975        0.544      168.392       38.596        0.053      339.396       12.699      862.782
03/19/2014  13:13:00       41.369       76.419      -14.339       45.472       40.819       35.288     2067.698     1666.162     1245.257        0.637        0.249       86.898       27.098        0.097      339.625       13.087      862.766
03/19/2014  13:14:00       17.582      -28.928       -1.813       23.400       43.146       17.830      547.557     1861.598      317.891        0.194        0.136       33.852       15.560        0.211      339.447       12.786      862.748
03/19/2014  13:15:00       23.010      -17.252       26.262       34.307       50.972       28.745     1176.974     2598.116      826.279        0.306        0.230       28.759       25.665        0.796      340.244       14.132      862.703
03/19/2014  13:16:00       21.285       45.164       19.674       20.240       27.800       22.879      409.664      772.826      523.458        0.229        0.085       49.928       18.681        0.140      340.156       13.984      862.693
03/19/2014  13:17:00      119.517       85.039       15.720       53.901       51.947       42.649     2905.296     2698.458     1818.941        1.459        0.371      146.683       23.614        0.026      339.881       13.518      862.670
03/19/2014  13:18:00       10.086      107.058      103.270       43.758       49.382       47.003     1914.775     2438.580     2209.276        1.439        0.328      107.532       35.673        0.110      340.320       14.261      862.657
03/19/2014  13:19:00       52.381       43.461       58.280       51.218       46.646       27.947     2623.309     2175.804      781.055        0.680        0.279       68.064       22.376        0.108      340.296       14.219      862.652
03/19/2014  13:20:00       25.583       23.896       47.393       38.804       24.461       27.813     1505.712      598.330      773.581        0.317        0.144       35.007       15.619        0.199      340.363       14.334      862.629
03/19/2014  13:21:00       16.857       14.453      -19.780       45.699       48.613       38.666     2088.407     2363.179     1495.028        0.341        0.297       22.205       38.845        3.060      339.668       13.160      862.606
03/19/2014  13:22:00      -13.104       68.925       16.116       52.568       65.400       45.184     2763.403     4277.144     2041.616        0.713        0.454       70.160       35.075        0.250      340.325       14.268      862.564
03/19/2014  13:23:00      131.074      149.785      110.760      105.169       51.721       74.649    11060.518     2675.064     5572.456        3.559        0.965      199.037       73.135        0.135      339.856       13.473      862.541
03/19/2014  13:24:00       36.070       70.020       87.653       46.582       53.472       32.146     2169.888     2859.230     1033.386        0.997        0.303       78.764       29.485        0.140      340.107       13.898      862.528
03/19/2014  13:25:00      103.272       68.245       38.749       89.693       48.008       48.343     8044.764     2304.771     2337.089        1.475        0.634      123.784       38.816        0.098      340.033       13.774      862.497
03/19/2014  13:26:00      233.670      167.551       66.727       96.281       64.629       70.005     9269.981     4176.925     4900.642        5.273        0.917      287.533       53.318        0.034      339.955       13.637      862.483
03/19/2014  13:27:00      250.664      154.870       33.314       60.911       52.663       50.950     3710.210     2773.418     2595.866        4.850        0.454      294.647       28.626        0.009      339.911       13.564      862.479
03/19/2014  13:28:00      250.693      147.530       28.692       79.089       61.513       59.026     6255.014     3783.869     3484.025        4.948        0.676      290.881       32.028        0.012      339.802       13.381      862.458
03/19/2014  13:29:00      125.972       99.723       -0.073       50.310       47.508       42.332     2531.087     2256.986     1792.037        1.620        0.329      160.666       26.085        0.026      339.916       13.576      862.451
03/19/2014  13:30:00       75.227       57.824        0.740       55.383       40.038       26.440     3067.311     1603.047      699.084        0.719        0.268       94.882       22.465        0.056      339.947       13.630      862.432
03/19/2014  13:31:00       64.601       75.299       34.968       70.597       54.194       51.925     4983.991     2937.010     2696.248        1.084        0.531       99.213       31.330        0.100      340.132       13.940      862.400
03/19/2014  13:32:00       46.685       88.679       67.157       40.466       49.614       48.875     1637.477     2461.590     2388.760        1.052        0.324      100.217       39.703        0.157      340.115       13.913      862.381
03/19/2014  13:33:00       76.573      105.539       67.615       62.247       45.869       49.856     3874.661     2103.973     2485.631        1.502        0.423      130.391       37.023        0.081      340.196       14.050      862.356
03/19/2014  13:34:00      172.380       96.626       53.602       83.820       53.751       62.142     7025.864     2889.182     3861.668        2.785        0.689      197.615       36.232        0.034      340.357       14.318      862.346
03/19/2014  13:35:00      208.482      141.421       53.816       74.567       58.460       62.053     5560.271     3417.588     3850.606        3.959        0.641      251.922       36.346        0.021      340.094       13.875      862.332
03/19/2014  13:36:00      120.804       75.612       35.795       60.173       43.371       46.581     3620.739     1881.084     2169.763        1.463        0.384      142.516       20.187        0.020      339.953       13.639      862.330
03/19/2014  13:37:00       82.714      168.916      156.160       75.430       83.311       65.456     5689.632     6940.755     4284.435        3.833        0.846      188.081       58.425        0.096      340.088       13.864      862.304
03/19/2014  13:38:00      108.589       85.133       67.453       60.440       53.901       57.099     3652.985     2905.314     3260.269        1.670        0.491      137.983       51.354        0.139      340.135       13.944      862.316
03/19/2014  13:39:00       44.971       44.748       70.207       44.925       60.439       40.402     2018.270     3652.852     1632.326        0.813        0.365       63.441       43.586        0.472      340.304       14.232      862.298
03/19/2014  13:40:00        4.862       23.708       24.436       47.237       27.803       31.422     2231.344      772.991      987.343        0.259        0.200       24.201       19.881        0.675      340.389       14.376      862.263
03/19/2014  13:41:00       78.740       72.568       51.194       58.259       43.990       49.618     3394.126     1935.144     2461.916        1.094        0.390      107.080       33.540        0.098      340.476       14.522      862.243
03/19/2014  13:42:00       30.724      -35.550       51.510       45.323       88.823       44.479     2054.167     7889.610     1978.338        0.839        0.596       46.987       56.062        1.424      340.812       15.091      862.212
03/19/2014  13:43:00       51.094       -6.469       33.561       60.363       87.982       44.663     3643.751     7740.768     1994.805        0.858        0.669       51.502       46.521        0.816      340.600       14.732      862.182
03/19/2014  13:44:00      112.848      -87.104       29.585       72.786       54.210       38.067     5297.806     2938.678     1449.099        1.544        0.484      142.555       37.507        0.069      340.394       14.383      862.156
03/19/2014  13:45:00       86.786      -31.084       25.014       66.193      113.344       45.742     4381.527    12846.754     2092.330        1.422        0.966       92.185       57.964        0.395      340.422       14.431      862.137
03/19/2014  13:46:00       30.232      -57.344        4.968       48.890       66.656       45.073     2390.213     4443.037     2031.558        0.654        0.443       64.825       41.176        0.403      340.814       15.094      862.119
03/19/2014  13:47:00       72.970       68.381       52.803       66.228       65.697       57.074     4386.181     4316.097     3257.408        1.237        0.598      100.002       49.294        0.243      340.424       14.434      862.127
03/19/2014  13:48:00      116.994      120.754      124.779      101.078      107.733       81.723    10216.787    11606.386     6678.586        3.616        1.425      168.134       75.807        0.203      340.474       14.518      862.103
03/19/2014  13:49:00      103.858      121.811      130.902       91.326       71.654       54.451     8340.473     5134.271     2964.901        2.960        0.822      160.076       47.590        0.088      340.546       14.639      862.099
03/19/2014  13:50:00       77.765     -101.481       26.566       74.394      133.516       53.178     5534.526    17826.557     2827.905        2.162        1.309      127.851       73.591        0.331      340.593       14.720      862.103
03/19/2014  13:51:00       29.267      -83.581       24.318       32.345       74.857       49.662     1046.207     5603.548     2466.363        0.877        0.456       88.557       50.529        0.326      340.499       14.563      862.108
03/19/2014  13:52:00       79.754       60.338       91.895       79.015       85.021       61.834     6243.317     7228.608     3823.464        1.787        0.865      100.007       64.150        0.411      340.644       14.805      862.102
03/19/2014  13:53:00       45.718       56.012       68.973       44.832       45.161       32.167     2009.898     2039.536     1034.734        0.753        0.254       72.301       17.747        0.060      340.497       14.559      862.111
03/19/2014  13:54:00       31.391      113.559        7.809       60.811       65.239       49.209     3697.954     4256.083     2421.571        1.216        0.519      117.817       47.147        0.160      340.482       14.532      862.095
03/19/2014  13:55:00       77.185       80.530       -4.487       66.002       46.302       38.090     4356.241     2143.833     1450.862        1.021        0.398      111.546       26.818        0.058      340.585       14.707      862.051
03/19/2014  13:56:00      125.565      124.727       38.975       94.691       53.720       44.290     8966.322     2885.785     1961.647        2.333        0.691      176.984       41.701        0.056      340.479       14.526      862.007
03/19/2014  13:57:00       88.465       55.001       62.198       85.167       56.500       41.747     7253.395     3192.247     1742.786        1.345        0.609      104.169       29.439        0.080      340.919       15.271      861.974
03/19/2014  13:58:00       33.055       83.299      101.194       59.373       45.037       27.810     3525.192     2028.375      773.418        1.230        0.316       89.618       26.699        0.089      341.098       15.576      861.964
03/19/2014  13:59:00       27.916       25.402       26.552       42.558       47.850       46.673     1811.181     2289.660     2178.377        0.420        0.314       37.744       36.296        0.925      341.065       15.519      861.953
03/19/2014  14:00:00       86.621       53.427       21.598       52.409       50.689       39.721     2746.664     2569.424     1577.791        0.886        0.345      101.772       27.102        0.071      340.756       14.998      861.946
03/19/2014  14:01:00        5.430       58.313       88.947       51.896       81.109       55.443     2693.224     6578.623     3073.973        1.184        0.617       58.565       50.834        0.753      341.220       15.782      861.922
03/19/2014  14:02:00       59.732      218.731      183.209       63.708       79.632       52.775     4058.739     6341.222     2785.207        4.908        0.659      226.741       47.279        0.043      340.738       14.962      861.911
03/19/2014  14:03:00       75.986      107.430      128.347       82.720       76.536       59.216     6842.541     5857.696     3506.536        2.499        0.810      131.587       53.685        0.166      340.749       14.984      861.918
03/19/2014  14:04:00       31.233       13.689       68.841       57.509       71.882       40.591     3307.282     5166.957     1647.612        0.801        0.506       34.101       38.094        1.248      341.039       15.476      861.898
03/19/2014  14:05:00      168.164      101.698       38.828      100.794       82.935       55.118    10159.497     6878.191     3037.939        3.010        1.004      196.524       49.708        0.064      340.735       14.958      861.867
03/19/2014  14:06:00      154.056      143.968       87.824      114.502       90.014       97.930    13110.729     8102.577     9590.218        4.148        1.540      210.855       80.015        0.144      340.977       15.366      861.841
03/19/2014  14:07:00      127.716      131.065       98.115      100.276       76.307       74.115    10055.312     5822.825     5493.088        3.224        1.069      183.001       61.623        0.113      340.887       15.215      861.832
03/19/2014  14:08:00       47.945       24.513       58.387       75.402       94.045       56.084     5685.397     8844.496     3145.402        1.199        0.884       53.848       50.588        0.883      341.197       15.742      861.826
03/19/2014  14:09:00       95.681       40.877       72.252       81.290      117.881       82.988     6608.027    13895.834     6886.965        2.171        1.370      104.047       77.255        0.551      341.057       15.504      861.830
03/19/2014  14:10:00       40.763       53.894       66.605       49.779       41.621       38.529     2477.906     1732.328     1484.504        0.735        0.285       67.573       28.972        0.184      340.793       15.059      861.849
03/19/2014  14:11:00       78.215       61.396       24.247       38.775       26.183       31.470     1503.530      685.549      990.359        0.683        0.159       99.433       27.496        0.076      340.498       14.559      861.831
03/19/2014  14:12:00       23.025      -14.349       18.301       26.732       44.479       41.728      714.614     1978.419     1741.200        0.275        0.222       27.130       30.643        1.276      341.142       15.649      861.802
03/19/2014  14:13:00       -8.732      -74.305      -18.775       32.032       38.688       20.846     1026.058     1496.789      434.539        0.445        0.148       74.816        7.846        0.011      341.441       16.158      861.791
03/19/2014  14:14:00       33.739      -56.445       10.051       57.585       54.708       41.495     3315.980     2992.957     1721.796        0.623        0.402       65.760       31.991        0.237      341.110       15.595      861.785
03/19/2014  14:15:00       76.716     -110.056        3.271       59.498       79.715       54.493     3539.991     6354.481     2969.445        1.543        0.643      134.155       48.871        0.133      341.066       15.521      861.769
03/19/2014  14:16:00      113.598     -276.559      -19.929      110.075      111.167       57.124    12116.570    12358.053     3263.122        5.876        1.387      298.981       56.849        0.036      340.892       15.223      861.729
03/19/2014  14:17:00      119.172     -169.765       -9.303       89.406      140.808       65.760     7993.478    19826.760     4324.393        3.762        1.607      207.418       77.580        0.140      341.030       15.458      861.735
03/19/2014  14:18:00      176.626     -243.973      -37.853       74.635       66.033       47.494     5570.424     4360.381     2255.654        5.217        0.609      301.197       46.193        0.024      340.754       14.991      861.754
03/19/2014  14:19:00       32.670        1.780       55.072       72.949       69.933       36.341     5321.539     4890.650     1320.674        0.782        0.577       32.718       49.528        2.291      341.293       15.906      861.780
03/19/2014  14:20:00      -44.542       31.772       23.806       70.542       40.982       37.857     4976.155     1679.516     1433.179        0.582        0.404       54.712       42.533        0.604      341.206       15.760      861.749
03/19/2014  14:21:00     -128.410       15.987       -8.931       59.007       61.482       30.608     3481.787     3780.003      936.845        1.251        0.410      129.401       20.350        0.025      341.381       16.053      861.730
03/19/2014  14:22:00      -42.978       36.511       11.012       83.890       36.184       31.326     7037.472     1309.315      981.338        0.631        0.466       56.393       26.322        0.218      341.177       15.708      861.716
03/19/2014  14:23:00        0.134       14.197       32.640       32.635       31.489       24.947     1065.060      991.566      622.358        0.197        0.134       14.197       18.063        1.619      341.665       16.535      861.702
03/19/2014  14:24:00       31.374       58.711       72.935       60.564       54.733       48.842     3668.031     2995.747     2385.523        0.940        0.452       66.568       37.542        0.318      341.570       16.375      861.691
03/19/2014  14:25:00       49.674       67.746       34.566       56.756       43.598       41.078     3221.232     1900.779     1687.367        0.753        0.340       84.006       33.298        0.157      341.548       16.338      861.679
03/19/2014  14:26:00      125.462       88.759       69.320      106.991       71.976       77.302    11447.119     5180.521     5975.547        2.551        1.130      153.685       54.725        0.127      341.402       16.088      861.662
03/19/2014  14:27:00      122.558       90.776       65.025       94.414       60.872       64.356     8914.064     3705.434     4141.681        2.212        0.838      152.514       46.797        0.094      341.516       16.281      861.640
03/19/2014  14:28:00       27.112       63.213       72.968       61.508       57.990       59.816     3783.188     3362.877     3577.909        1.039        0.536       68.782       56.272        0.669      341.856       16.859      861.625
03/19/2014  14:29:00       19.310       95.309        6.431       38.148       64.750       40.493     1455.294     4192.570     1639.716        0.839        0.364       97.246       36.837        0.143      341.319       15.948      861.624
03/19/2014  14:30:00       33.550       73.187       12.887       60.508       47.112       40.923     3661.261     2219.499     1674.687        0.710        0.378       80.510       36.002        0.200      341.175       15.706      861.624
03/19/2014  14:31:00       16.434       52.533        7.719       42.895       47.037       32.521     1839.997     2212.487     1057.638        0.410        0.256       55.043       22.154        0.162      341.367       16.030      861.601
03/19/2014  14:32:00      -17.041       74.845       -5.919       38.585       47.569       25.538     1488.773     2262.817      652.189        0.516        0.220       76.760       24.410        0.101      341.239       15.813      861.573
03/19/2014  14:33:00      -13.607      109.207      -12.662       32.972       49.057       23.619     1087.152     2406.604      557.865        0.816        0.203      110.051       28.415        0.067      341.066       15.522      861.565
03/19/2014  14:34:00       22.679       64.407       14.015       53.911       44.589       30.878     2906.419     1988.201      953.475        0.535        0.292       68.283       30.241        0.196      341.564       16.365      861.555
03/19/2014  14:35:00       80.768       61.706       24.795       54.534       35.614       46.349     2973.976     1268.323     2148.268        0.867        0.320      101.642       27.035        0.071      341.772       16.716      861.534
03/19/2014  14:36:00      175.130      107.992       16.970      120.435       76.318       58.438    14504.664     5824.463     3414.957        3.318        1.187      205.749       35.558        0.030      341.214       15.769      861.516
03/19/2014  14:37:00      185.708       99.602       15.335       86.567       58.129       51.858     7493.774     3378.973     2689.280        2.910        0.678      210.732       48.568        0.053      341.089       15.557      861.499
03/19/2014  14:38:00       67.409       96.600        8.891       61.625       68.466       61.746     3797.627     4687.561     3812.579        1.312        0.615      117.794       46.575        0.156      341.389       16.068      861.483
03/19/2014  14:39:00       20.068      157.576      -12.335       47.328       84.576       39.016     2239.893     7153.145     1522.249        1.815        0.546      158.849       47.584        0.090      341.225       15.789      861.455
03/19/2014  14:40:00      -16.147       78.601       -0.623       41.197       86.689       31.122     1697.176     7514.957      968.606        0.831        0.509       80.243       33.143        0.171      341.538       16.320      861.434
03/19/2014  14:41:00       -7.849      180.889      -12.685       43.328       63.583       34.716     1877.314     4042.825     1205.211        2.003        0.356      181.059       32.895        0.033      341.428       16.132      861.423
03/19/2014  14:42:00      -18.349      157.835      -20.743       36.152       71.916       27.289     1306.965     5171.845      744.703        1.645        0.361      158.898       31.293        0.039      341.281       15.882      861.406
03/19/2014  14:43:00       51.444       60.283       -2.745       40.230       52.752       30.487     1618.481     2782.785      929.483        0.581        0.267       79.250       33.882        0.183      341.523       16.296      861.405
03/19/2014  14:44:00      -12.427       84.235       -6.928       50.568       75.894       36.844     2557.172     5759.966     1357.454        0.848        0.484       85.147       41.099        0.233      341.539       16.322      861.420
03/19/2014  14:45:00        6.722       30.634       16.779       44.502       37.470       30.249     1980.431     1403.979      915.014        0.278        0.215       31.363       22.704        0.524      341.789       16.747      861.414
03/19/2014  14:46:00       -2.626       28.059       14.430       23.721       44.333       23.030      562.700     1965.387      530.369        0.203        0.153       28.182       16.483        0.342      341.569       16.374      861.426
03/19/2014  14:47:00     -137.556     -107.972       -7.114       82.283       65.336       31.020     6770.566     4268.818      962.230        2.131        0.600      174.870       27.954        0.026      341.582       16.393      861.399
03/19/2014  14:48:00     -210.599     -131.311      -16.003       55.773       66.993       33.670     3110.644     4488.064     1133.672        3.529        0.437      248.182       33.700        0.018      341.206       15.754      861.387
03/19/2014  14:49:00     -139.433      -58.773      -10.117       53.402       34.211       27.614     2851.745     1170.406      762.549        1.389        0.239      151.313       24.880        0.027      341.482       16.225      861.400
03/19/2014  14:50:00     -103.311      -39.345        2.936       63.848       64.679       33.911     4076.618     4183.329     1149.961        1.082        0.470      110.550       42.362        0.147      341.647       16.505      861.387
03/19/2014  14:51:00     -129.936      -24.368      -14.158       30.465       29.622       23.520      928.113      877.476      553.179        1.002        0.118      132.201       16.422        0.015      341.421       16.122      861.382
03/19/2014  14:52:00     -116.356      -52.669        0.170       72.140       41.996       29.668     5204.182     1763.688      880.191        1.208        0.392      127.722       38.573        0.091      341.563       16.362      861.356
03/19/2014  14:53:00      -59.866     -114.260       15.990       58.410       63.610       35.879     3411.769     4046.171     1287.333        1.282        0.437      128.994       39.224        0.092      341.598       16.420      861.356
03/19/2014  14:54:00       14.422     -110.164       -5.323       61.800       76.853       53.434     3819.182     5906.311     2855.209        1.247        0.629      111.104       46.536        0.175      341.732       16.648      861.342
03/19/2014  14:55:00       74.927      -88.435        4.453       73.582       69.420       41.840     5414.269     4819.106     1750.598        1.272        0.599      115.908       46.631        0.162      341.786       16.739      861.349
03/19/2014  14:56:00       24.644      -90.730       -8.125       66.172       95.160       44.751     4378.762     9055.508     2002.636        1.217        0.772       94.018       50.017        0.283      341.813       16.786      861.344
03/19/2014  14:57:00       39.086      -92.760       -6.235       73.007       98.409       55.818     5330.037     9684.381     3115.685        1.415        0.907      100.658       65.679        0.426      341.778       16.726      861.326
03/19/2014  14:58:00       38.194      -15.137       54.477       54.168       62.554       56.147     2934.143     3913.002     3152.531        0.733        0.500       41.084       54.581        1.765      341.739       16.661      861.312
03/19/2014  14:59:00        8.761       38.508       67.457       24.382       28.449       19.602      594.467      809.329      384.241        0.395        0.089       39.492       14.703        0.139      341.923       16.974      861.296
03/19/2014  15:00:00       48.177       60.956       35.961       45.711       33.739       32.256     2089.456     1138.312     1040.428        0.580        0.213       77.696       16.008        0.042      341.415       16.113      861.268
03/19/2014  15:01:00       18.943       -8.530       -6.243       24.789       17.457       22.581      614.518      304.746      509.895        0.095        0.071       20.775       12.857        0.383      341.556       16.352      861.249
03/19/2014  15:02:00       37.157      -24.618        2.174       19.041       28.353       26.118      362.572      803.886      682.150        0.192        0.092       44.573       20.869        0.219      341.486       16.232      861.230
03/19/2014  15:03:00        2.196       32.521       11.855       37.149       25.052       26.670     1380.050      627.582      711.279        0.196        0.136       32.595       15.032        0.213      341.591       16.410      861.195
03/19/2014  15:04:00      -73.229      -17.371       -2.191       59.004       62.084       26.443     3481.515     3854.436      699.257        0.685        0.402       75.261       30.955        0.169      342.033       17.160      861.180
03/19/2014  15:05:00      -25.868      -68.091        9.408       59.789       47.570       33.444     3574.720     2262.923     1118.497        0.617        0.348       72.839       25.050        0.118      341.731       16.647      861.169
03/19/2014  15:06:00        7.897     -105.283      -13.079       27.001       34.319       28.710      729.060     1177.821      824.264        0.702        0.137      105.579       11.800        0.012      341.363       16.025      861.149
03/19/2014  15:07:00       26.163      -77.188        5.484       19.883       35.139       16.734      395.347     1234.779      280.038        0.429        0.096       81.502        7.368        0.008      341.352       16.005      861.140
03/19/2014  15:08:00       21.459      -62.416       -2.956       35.018       27.660       27.691     1226.250      765.089      766.769        0.356        0.138       66.002       17.665        0.072      341.583       16.397      861.119
03/19/2014  15:09:00       11.418       -4.307       33.782       31.549       32.093       23.532      995.334     1029.930      553.732        0.193        0.129       12.203       20.574        2.842      341.984       17.077      861.092
03/19/2014  15:10:00       38.169       23.811       38.879       32.741       29.398       31.713     1071.965      864.218     1005.717        0.324        0.147       44.987       25.827        0.330      341.947       17.014      861.088
03/19/2014  15:11:00       -5.787       27.865       63.581       22.003       28.979       18.677      484.127      839.769      348.840        0.326        0.084       28.460       12.103        0.181      342.434       17.841      861.072
03/19/2014  15:12:00       19.100       37.821       -7.535       43.727       43.938       23.525     1912.079     1930.505      553.424        0.312        0.220       42.370       13.816        0.106      341.790       16.748      861.050
03/19/2014  15:13:00       48.169        5.521       28.590       69.641       55.373       38.410     4849.850     3066.131     1475.331        0.628        0.470       48.484       18.890        0.152      342.079       17.239      861.034
03/19/2014  15:14:00      -13.438      -12.358       65.131       47.748       88.131       58.465     2279.868     7767.116     3418.160        0.902        0.673       18.257       58.195       10.161      342.299       17.609      861.024
03/19/2014  15:15:00        8.232       13.789       37.924       55.808       97.083       48.373     3114.497     9425.059     2339.972        0.828        0.744       16.059       43.576        7.363      342.094       17.262      861.030
03/19/2014  15:16:00       66.038     -139.488      -20.169      138.574      105.116       56.660    19202.858    11049.477     3210.357        2.884        1.673      154.330       49.581        0.103      341.917       16.960      861.006
03/19/2014  15:17:00      -52.233      -94.817       10.164       66.388       85.221       40.818     4407.348     7262.561     1666.111        1.258        0.667      108.252       13.044        0.015      342.104       17.280      861.014
03/19/2014  15:18:00      -25.717      -26.979        3.596       43.372       34.577       21.251     1881.157     1195.558      451.617        0.246        0.176       37.272       15.240        0.167      342.275       17.572      860.992
03/19/2014  15:19:00       -5.644      -73.191        1.623       50.449       45.223       23.839     2545.061     2045.092      568.310        0.527        0.258       73.408       23.375        0.101      341.970       17.054      860.972
03/19/2014  15:20:00      -80.850      -36.125       10.431       59.142       65.817       34.788     3497.727     4331.864     1210.202        0.849        0.452       88.553       40.840        0.213      342.081       17.244      860.952
03/19/2014  15:21:00      -92.436       -4.370       -0.233       54.542       37.534       27.230     2974.869     1408.777      741.458        0.684        0.256       92.539       30.298        0.107      341.941       17.005      860.941
03/19/2014  15:22:00      -29.147      -59.244       16.310       57.859       55.447       30.478     3347.638     3074.379      928.882        0.599        0.368       66.025       27.307        0.171      342.211       17.462      860.948
03/19/2014  15:23:00     -118.408      -75.764       14.299       75.866       67.964       41.165     5755.701     4619.094     1694.594        1.601        0.603      140.573       40.936        0.085      342.043       17.177      860.947
03/19/2014  15:24:00     -145.136      -65.472        3.986       95.111       61.048       45.131     9046.106     3726.855     2036.829        2.009        0.740      159.220       49.309        0.096      341.871       16.882      860.934
03/19/2014  15:25:00     -127.466     -107.202       -0.431       74.698       62.487       39.435     5579.747     3904.563     1555.128        1.939        0.552      166.552       39.085        0.055      341.810       16.779      860.925
03/19/2014  15:26:00     -132.905      -67.233        6.439      107.921       71.426       45.298    11646.865     5101.620     2051.875        2.051        0.940      148.943       57.432        0.149      341.948       17.013      860.934
03/19/2014  15:27:00     -105.916     -169.087       -8.337      105.130       67.310       46.883    11052.364     4530.626     2197.990        2.883        0.889      199.521       40.632        0.041      341.727       16.637      860.939
03/19/2014  15:28:00     -164.179     -122.589        6.007       94.748       57.015       37.657     8977.228     3250.729     1418.073        2.783        0.682      204.897       24.371        0.014      341.874       16.887      860.926
03/19/2014  15:29:00      -59.557      -54.244        7.830       75.042       40.228       31.046     5631.279     1618.272      963.837        0.738        0.411       80.557       37.192        0.213      341.860       16.865      860.936
03/19/2014  15:30:00       -6.004      -67.408       -1.382       30.578       50.984       19.618      935.040     2599.394      384.869        0.425        0.196       67.675       24.365        0.130      342.050       17.188      860.927
03/19/2014  15:31:00       -4.652     -108.029       19.497       31.284       35.904       26.027      978.697     1289.122      677.390        0.751        0.147      108.129       21.050        0.038      341.815       16.791      860.914
03/19/2014  15:32:00      -14.278      -54.723        9.919       44.092       34.218       28.302     1944.079     1170.899      800.994        0.361        0.196       56.555       19.302        0.116      342.179       17.408      860.908
03/19/2014  15:33:00     -115.486      -83.432        6.531       92.121       72.021       45.429     8486.276     5186.965     2063.837        1.804        0.787      142.471       47.976        0.113      342.149       17.355      860.912
03/19/2014  15:34:00     -215.613      -86.922        0.208       87.360       64.429       40.965     7631.696     4151.040     1678.132        3.375        0.673      232.474       32.687        0.020      341.717       16.621      860.892
03/19/2014  15:35:00     -242.286      -82.769      -12.756       66.507       51.963       32.183     4423.125     2700.156     1035.736        3.694        0.408      256.034       26.655        0.011      341.651       16.508      860.881
03/19/2014  15:36:00     -107.755      -52.969       -6.167       84.431       52.701       38.351     7128.592     2777.373     1470.781        1.291        0.569      120.070       40.532        0.114      341.961       17.038      860.886
03/19/2014  15:37:00      -36.371      -52.112       -1.608       57.714       46.663       36.852     3330.879     2177.436     1358.060        0.545        0.343       63.550       33.577        0.279      342.157       17.371      860.881
03/19/2014  15:38:00      -41.639      -59.472       15.466       90.660       46.388       43.538     8219.184     2151.803     1895.525        0.889        0.613       72.600       53.678        0.547      342.278       17.577      860.861
03/19/2014  15:39:00     -131.079      -35.217       -8.892       78.197       75.982       41.747     6114.844     5773.266     1742.786        1.606        0.682      135.727       37.013        0.074      342.248       17.524      860.857
03/19/2014  15:40:00     -113.208       -6.814       -5.536       44.938       47.261       33.921     2019.404     2233.575     1150.650        0.915        0.270      113.413       12.168        0.012      342.044       17.179      860.856
03/19/2014  15:41:00       -6.826       11.665       21.445       38.973       35.059       26.585     1518.885     1229.122      706.758        0.205        0.173       13.515       25.168        3.468      342.519       17.986      860.838
03/19/2014  15:42:00      -72.284       16.403        4.921       68.480       62.938       35.401     4689.541     3961.216     1253.259        0.771        0.495       74.122       31.810        0.184      342.334       17.672      860.829
03/19/2014  15:43:00      -39.333      -15.474        0.529       44.473       27.840       22.294     1977.891      775.067      497.013        0.252        0.162       42.268       12.750        0.091      342.597       18.118      860.833
03/19/2014  15:44:00        6.038        9.004       17.366       16.170       13.621       15.645      261.464      185.540      244.757        0.056        0.035       10.841        6.032        0.310      342.681       18.262      860.829
03/19/2014  15:45:00      -80.708      -32.775       11.804       54.420       54.179       26.482     2961.518     2935.327      701.275        0.716        0.330       87.109       21.008        0.058      342.357       17.711      860.825
03/19/2014  15:46:00      -52.857       48.363       12.635       74.894       57.319       31.288     5609.179     3285.485      978.959        0.758        0.494       71.644       29.437        0.169      342.532       18.006      860.808
03/19/2014  15:47:00       -0.625       76.229       12.695       52.689       46.113       34.153     2776.177     2126.433     1166.397        0.602        0.303       76.232       27.848        0.133      342.269       17.560      860.813
03/19/2014  15:48:00     -109.293      101.258      -24.543       69.825       56.056       34.238     4875.528     3142.296     1172.262        1.599        0.460      148.990       42.771        0.082      342.135       17.332      860.817
03/19/2014  15:49:00      -72.976       55.513       -0.401       53.316       34.548       44.041     2842.599     1193.597     1939.625        0.719        0.299       91.691       37.533        0.168      342.230       17.496      860.807
03/19/2014  15:50:00     -146.420      -26.393      -12.820       41.211       57.792       26.661     1698.312     3339.862      710.817        1.402        0.287      148.779       24.617        0.027      342.120       17.308      860.793
03/19/2014  15:51:00     -130.025      -15.530       -8.877       37.209       31.685       24.929     1384.514     1003.952      621.442        1.012        0.150      130.950       17.008        0.017      342.163       17.381      860.785
03/19/2014  15:52:00     -145.015       -3.849       -1.176       54.448       37.029       25.703     2964.608     1371.128      660.629        1.302        0.250      145.066       22.097        0.023      342.445       17.860      860.775
03/19/2014  15:53:00      -89.364      -28.268       -9.962       61.603       33.570       21.711     3794.928     1126.974      471.361        0.714        0.270       93.728       17.832        0.036      342.138       17.338      860.754
03/19/2014  15:54:00      -35.519       20.368        6.752       25.984       22.526       29.778      675.159      507.400      886.731        0.190        0.103       40.945       22.273        0.296      342.475       17.912      860.730
03/19/2014  15:55:00      -10.335      183.835      -25.149       32.719       62.674       27.443     1070.503     3928.015      753.099        2.014        0.288      184.125       27.013        0.022      341.960       17.034      860.728
03/19/2014  15:56:00      -18.800      231.411      -18.931       33.963       64.016       29.984     1153.452     4098.077      899.061        3.021        0.308      232.173       32.918        0.020      342.012       17.121      860.710
03/19/2014  15:57:00      -28.190      186.544      -26.759       21.438       32.877       15.171      459.601     1080.884      230.166        1.904        0.089      188.662       13.158        0.005      341.745       16.671      860.703
03/19/2014  15:58:00        9.191      143.264      -24.575       27.962       29.193       19.519      781.881      852.248      381.002        1.161        0.101      143.559       10.876        0.006      341.843       16.838      860.696
03/19/2014  15:59:00        4.621      181.640      -29.087       43.299       40.692       25.853     1874.838     1655.835      668.380        1.903        0.210      181.699       22.552        0.015      341.967       17.047      860.694
03/19/2014  16:00:00      -27.753      109.393      -12.808       40.991       39.558       22.837     1680.262     1564.821      521.507        0.833        0.188      112.859       12.765        0.013      342.018       17.135      860.705
03/19/2014  16:01:00      -33.881      180.420      -23.988       37.957       43.321       25.292     1440.713     1876.728      639.691        1.912        0.198      183.574       21.286        0.013      341.983       17.073      860.696
03/19/2014  16:02:00      -38.906      148.664      -16.597       32.836       30.189       26.654     1078.201      911.362      710.461        1.329        0.135      153.671       18.559        0.015      341.938       16.999      860.687
03/19/2014  16:03:00       12.723       36.173      -14.263       18.315       26.032       21.643      335.437      677.690      468.420        0.158        0.074       38.345        8.188        0.046      341.953       17.023      860.673
03/19/2014  16:04:00       67.587       46.802       28.505       37.753       24.509       20.336     1425.287      600.676      413.533        0.500        0.122       82.210       17.007        0.043      341.981       17.073      860.658
03/19/2014  16:05:00       73.629       16.194       24.000       56.022       62.826       37.183     3138.443     3947.122     1382.582        0.736        0.423       75.389       33.383        0.196      342.254       17.535      860.637
03/19/2014  16:06:00       50.142       51.961        2.601       30.842       42.643       31.021      951.247     1818.389      962.289        0.448        0.187       72.209       29.262        0.164      342.223       17.481      860.632
03/19/2014  16:07:00       -0.696       61.348      -15.889       36.892       40.699       20.114     1361.025     1656.387      404.574        0.372        0.171       61.352       17.170        0.078      342.139       17.339      860.623
03/19/2014  16:08:00      -12.751       81.282      -18.168       40.215       84.940       25.914     1617.249     7214.766      671.527        0.830        0.475       82.276       38.642        0.221      342.372       17.735      860.619
03/19/2014  16:09:00      -18.267      204.744      -30.759       35.274       54.706       27.745     1244.276     2992.736      769.790        2.410        0.250      205.557       27.366        0.018      341.933       16.986      860.618
03/19/2014  16:10:00      -18.122      188.118      -22.385       38.387       50.223       26.603     1473.555     2522.334      707.738        2.046        0.235      188.989       24.438        0.017      342.116       17.298      860.622
03/19/2014  16:11:00       27.977      116.518        1.409       63.265       77.621       39.890     4002.398     6025.097     1591.188        1.299        0.581      119.830       44.527        0.138      342.250       17.528      860.626
03/19/2014  16:12:00       63.485       87.382      -18.781       44.906       58.814       32.682     2016.566     3459.050     1068.086        0.928        0.327      108.009       32.711        0.092      342.469       17.900      860.636
03/19/2014  16:13:00       23.039      163.210      -18.751       55.173       88.792       36.392     3044.012     7884.058     1324.397        1.988        0.613      164.828       38.268        0.054      342.341       17.683      860.640
03/19/2014  16:14:00       99.927       82.423       10.787      130.445       84.574       49.319    17015.879     7152.745     2432.316        2.174        1.330      129.533       47.905        0.137      342.414       17.806      860.628
03/19/2014  16:15:00      110.948       56.999       23.666       57.598       41.024       41.686     3317.508     1682.939     1737.746        1.143        0.337      124.733       28.603        0.053      342.398       17.779      860.635
03/19/2014  16:16:00       82.058       94.401        6.102       88.191       71.039       43.368     7777.589     5046.561     1880.756        1.519        0.735      125.080       31.684        0.064      342.203       17.447      860.643
03/19/2014  16:17:00       35.215      104.026      -14.327       37.547       44.231       25.989     1409.759     1956.408      675.452        0.815        0.202      109.824       21.547        0.038      342.351       17.700      860.653
03/19/2014  16:18:00        7.869       51.238        7.006       39.236       41.429       22.994     1539.432     1716.392      528.711        0.326        0.189       51.838       23.580        0.207      342.501       17.955      860.649
03/19/2014  16:19:00       47.693       40.152       10.732       27.317       22.969       27.876      746.196      527.572      777.065        0.303        0.103       62.344       18.509        0.088      342.163       17.380      860.643
03/19/2014  16:20:00      -22.862      152.977      -19.336       44.430       60.437       28.908     1974.012     3652.653      835.665        1.538        0.323      154.676       24.246        0.025      342.008       17.117      860.635
03/19/2014  16:21:00      -22.071      144.232      -19.939       35.965       48.195       17.648     1293.504     2322.728      311.461        1.281        0.196      145.911       21.666        0.022      341.984       17.076      860.632
03/19/2014  16:22:00     -119.644      -19.770      -29.984       43.962       63.357       35.762     1932.688     4014.101     1278.920        1.141        0.361      121.266       30.983        0.065      342.056       17.200      860.621
03/19/2014  16:23:00      -36.671       33.995        1.872       57.643       40.862       35.468     3322.720     1669.676     1258.004        0.438        0.313       50.004       35.018        0.490      342.517       17.982      860.599
03/19/2014  16:24:00      -12.892      110.410      -11.328       36.041       80.595       31.545     1298.970     6495.587      995.073        1.064        0.439      111.160       39.904        0.129      342.424       17.822      860.583
03/19/2014  16:25:00      -34.863      273.403      -36.555      107.703       64.706       46.345    11599.984     4186.878     2147.893        4.761        0.897      275.617       38.181        0.019      342.010       17.116      860.594
03/19/2014  16:26:00       61.070      165.742      -17.714       49.398       93.791       47.119     2440.145     8796.746     2220.245        2.248        0.673      176.635       43.634        0.061      341.961       17.037      860.615
03/19/2014  16:27:00       64.399      104.162      -11.759       36.467       53.453       38.543     1329.807     2857.216     1485.600        1.040        0.284      122.463       34.884        0.081      341.990       17.085      860.607
03/19/2014  16:28:00      -78.012      151.546      -34.927       82.807       44.096       29.402     6856.962     1944.476      864.467        1.997        0.483      170.447       29.118        0.029      342.112       17.293      860.598
03/19/2014  16:29:00     -168.016       92.064      -36.791       33.812       43.343       24.786     1143.250     1878.655      614.351        2.085        0.182      191.586       13.279        0.005      342.035       17.162      860.581
03/19/2014  16:30:00     -122.240       62.364      -22.848       34.854       58.518       27.137     1214.767     3424.310      736.425        1.236        0.269      137.229       20.109        0.021      342.046       17.180      860.585
03/19/2014  16:31:00     -123.041      104.346      -13.492       49.582       51.828       43.437     2458.377     2686.140     1886.784        1.662        0.352      161.329       32.569        0.041      342.266       17.556      860.582
03/19/2014  16:32:00     -129.525       36.997      -15.938       31.159       26.945       20.650      970.899      726.008      426.423        1.026        0.106      134.705       14.353        0.011      342.210       17.459      860.582
03/19/2014  16:33:00     -154.665      -28.735      -14.949       38.922       42.338       21.927     1514.885     1792.495      480.780        1.438        0.189      157.312       17.783        0.013      342.245       17.520      860.577
03/19/2014  16:34:00       -5.514      -10.036        8.498       39.141       23.132       30.118     1532.002      535.100      907.107        0.159        0.149       11.451       25.156        4.826      342.560       18.055      860.562
03/19/2014  16:35:00      -84.823      -47.619       -0.326       93.170       71.464       29.924     8680.667     5107.073      895.425        1.207        0.734       97.275       19.048        0.038      342.424       17.823      860.571
03/19/2014  16:36:00     -154.423      -47.839       -8.201       54.833       63.246       31.732     3006.687     4000.009     1006.916        1.711        0.401      161.663       23.214        0.021      342.488       17.932      860.586
03/19/2014  16:37:00     -225.025      -75.894      -11.375       43.313       66.654       29.335     1876.027     4442.768      860.564        3.185        0.359      237.479       18.524        0.006      342.099       17.267      860.576
03/19/2014  16:38:00      -28.677       38.141       -1.514       89.272       39.882       26.454     7969.457     1590.610      699.808        0.627        0.513       47.719       23.564        0.244      342.225       17.485      860.593
03/19/2014  16:39:00      -18.235      267.120      -34.299       68.953       60.870       34.580     4754.580     3705.145     1195.797        4.126        0.483      267.742       21.933        0.007      342.102       17.273      860.601
03/19/2014  16:40:00       21.306      283.132      -35.828       66.755       70.118       43.774     4456.214     4916.502     1916.197        4.659        0.564      283.933       40.938        0.021      342.101       17.272      860.581
03/19/2014  16:41:00      -27.739      263.718      -27.761       77.252      148.678       55.037     5967.801    22105.073     3029.111        5.109        1.555      265.172       74.666        0.079      342.186       17.417      860.558
03/19/2014  16:42:00       71.447      150.108       10.704       93.044      133.101       73.207     8657.164    17715.838     5359.303        2.974        1.587      166.244       82.323        0.245      342.334       17.668      860.555
03/19/2014  16:43:00       23.669      298.423      -46.080       79.634      109.452       46.172     6341.616    11979.736     2131.875        5.609        1.023      299.360       48.998        0.027      342.131       17.322      860.572
03/19/2014  16:44:00      -18.420      263.569      -32.232       51.359       92.161       47.168     2637.770     8493.660     2224.833        4.210        0.668      264.212       52.653        0.040      342.183       17.411      860.584
03/19/2014  16:45:00       43.857      115.438       -4.097       47.972       78.101       43.831     2301.320     6099.844     1921.200        1.279        0.516      123.489       42.666        0.119      342.309       17.628      860.604
03/19/2014  16:46:00      104.461       97.228        4.422       78.748       74.396       50.230     6201.241     5534.727     2523.086        1.732        0.713      142.708       46.601        0.107      342.315       17.638      860.602
03/19/2014  16:47:00      122.703       86.878        5.632       58.117       31.219       30.080     3377.641      974.654      904.825        1.395        0.263      150.346       18.438        0.015      342.062       17.208      860.615
03/19/2014  16:48:00       22.042       41.272        7.421       55.542       36.711       27.320     3084.874     1347.665      746.387        0.371        0.259       46.789        9.793        0.044      342.308       17.627      860.628
03/19/2014  16:49:00        9.063       74.297       -8.869       37.714       49.808       33.105     1422.325     2480.856     1095.946        0.534        0.250       74.848       32.447        0.188      342.228       17.490      860.631
03/19/2014  16:50:00      -32.569       95.525      -24.866       36.903       45.218       40.129     1361.826     2044.642     1610.327        0.791        0.251      100.925       32.540        0.104      342.398       17.780      860.635
03/19/2014  16:51:00     -143.021      132.846      -30.136       88.766      105.614       44.341     7879.396    11154.305     1966.124        3.000        1.050      195.200       52.765        0.073      342.347       17.691      860.636
03/19/2014  16:52:00     -150.879      245.921      -21.279       65.357       81.180       50.746     4271.509     6590.247     2575.128        4.856        0.672      288.516       40.937        0.020      342.245       17.515      860.619
03/19/2014  16:53:00     -175.076      105.345      -30.591       57.981       86.867       47.748     3361.754     7545.888     2279.851        2.793        0.659      204.326       32.931        0.026      342.413       17.804      860.607
03/19/2014  16:54:00     -284.671      -38.947      -33.671       79.115       71.135       43.714     6259.171     5060.128     1910.894        4.846        0.662      287.323       22.957        0.006      342.354       17.701      860.595
03/19/2014  16:55:00     -138.516       78.340      -13.352       51.673       74.660       39.261     2670.067     5574.129     1541.413        1.764        0.489      159.135       28.470        0.032      342.512       17.973      860.600
03/19/2014  16:56:00     -157.152      208.355      -31.198       62.847       88.640       47.142     3949.759     7856.974     2222.364        4.155        0.701      260.976       45.941        0.031      342.386       17.757      860.615
03/19/2014  16:57:00      -89.454      191.582      -37.805       66.497       57.982       30.444     4421.819     3361.901      926.825        2.742        0.436      211.438       30.445        0.021      342.214       17.463      860.622
03/19/2014  16:58:00      -12.696      210.724      -23.584       43.427       77.574       36.726     1885.864     6017.760     1348.788        2.719        0.463      211.106       34.686        0.027      342.085       17.246      860.602
03/19/2014  16:59:00     -125.202      212.060      -30.639       46.966       78.747       38.985     2205.821     6201.149     1519.804        3.575        0.496      246.263       32.417        0.017      342.186       17.415      860.598
03/19/2014  17:00:00      -69.472       72.462      -16.141       37.120       40.780       28.319     1377.918     1662.992      801.983        0.709        0.192      100.385       22.860        0.052      342.368       17.729      860.590
03/19/2014  17:01:00       -0.166      128.131       -5.589       34.010       67.737       34.738     1156.665     4588.241     1206.734        1.170        0.348      128.131       36.382        0.081      342.289       17.594      860.582
03/19/2014  17:02:00        7.054      115.593      -12.708       27.479       75.857       29.951      755.109     5754.297      897.039        1.049        0.370      115.808       30.159        0.068      342.070       17.222      860.568
03/19/2014  17:03:00      -25.602       83.197      -22.768       26.605       50.370       13.799      707.829     2537.115      190.400        0.576        0.172       87.047        7.539        0.008      342.236       17.503      860.551
03/19/2014  17:04:00     -102.644       40.914      -12.504       60.134       43.725       27.826     3616.059     1911.833      774.273        0.933        0.315      110.498       23.284        0.044      342.516       17.980      860.539
03/19/2014  17:05:00      -38.695       41.490        1.771       53.682       43.422       24.946     2881.799     1885.500      622.298        0.430        0.269       56.734       20.094        0.125      342.497       17.948      860.538
03/19/2014  17:06:00      -13.297      123.278      -12.685       50.212       66.770       36.723     2521.200     4458.229     1348.606        1.193        0.416      123.993       42.274        0.116      342.522       17.990      860.536
03/19/2014  17:07:00     -110.278       75.948       -4.651       61.377       54.693       35.767     3767.088     2991.369     1279.308        1.299        0.402      133.900       30.658        0.052      342.610       18.138      860.545
03/19/2014  17:08:00     -141.493      144.268      -35.752       52.414       82.083       38.349     2747.227     6737.607     1470.657        2.653        0.548      202.073       44.367        0.048      342.366       17.723      860.558
03/19/2014  17:09:00      -67.735      123.035      -13.029       63.743       55.362       37.428     4063.181     3064.936     1400.886        1.421        0.426      140.448       35.081        0.062      342.462       17.887      860.559
03/19/2014  17:10:00        8.881      177.788      -17.842       63.509       82.342       49.017     4033.404     6780.243     2402.622        2.261        0.661      178.009       52.165        0.086      342.431       17.834      860.576
03/19/2014  17:11:00      -36.354      233.589      -36.451       52.031       99.049       34.883     2707.243     9810.800     1216.795        3.547        0.687      236.401       46.756        0.039      342.215       17.466      860.581
03/19/2014  17:12:00       13.427      171.670      -26.632       37.806       57.788       25.790     1429.302     3339.397      665.139        1.790        0.272      172.194       30.726        0.032      342.235       17.503      860.572
03/19/2014  17:13:00      -18.630      198.626      -29.859       56.052       65.683       34.774     3141.840     4314.316     1209.203        2.468        0.433      199.498       33.549        0.028      342.410       17.797      860.563
03/19/2014  17:14:00     -108.867       96.551      -14.182       49.621       66.674       37.186     2462.252     4445.476     1382.828        1.483        0.415      145.513       35.012        0.058      342.550       18.036      860.575
03/19/2014  17:15:00      -39.613       80.259       12.080       50.810       50.275       38.760     2581.614     2527.625     1502.308        0.738        0.331       89.502       34.488        0.148      342.423       17.822      860.571
03/19/2014  17:16:00      -13.537      190.061      -24.232       66.948       57.707       38.122     4482.074     3330.125     1453.255        2.308        0.463      190.543       33.642        0.031      342.310       17.627      860.588
03/19/2014  17:17:00      -65.989       98.784      -12.297       61.948       47.671       31.765     3837.579     2272.491     1008.989        1.069        0.356      118.797       15.662        0.017      342.468       17.897      860.603
03/19/2014  17:18:00      -76.103      138.774      -15.533       74.085       86.196       36.687     5488.515     7429.787     1345.947        1.977        0.713      158.272       30.155        0.036      342.303       17.618      860.620
03/19/2014  17:19:00      -51.283      116.341      -23.451       23.521       58.171       13.643      553.224     3383.829      186.143        1.042        0.206      127.142       10.675        0.007      342.115       17.297      860.628
03/19/2014  17:20:00      -52.266       56.807      -21.257       25.055       43.525       22.449      627.747     1894.415      503.935        0.472        0.151       77.194       20.184        0.068      342.273       17.569      860.615
03/19/2014  17:21:00       47.091       88.762       -3.374       66.019       59.792       40.819     4358.533     3575.040     1666.197        0.985        0.480      100.480       31.686        0.099      342.207       17.454      860.618
03/19/2014  17:22:00       32.487      142.442      -22.131       65.283       86.198       41.201     4261.827     7430.113     1697.501        1.761        0.669      146.100       45.797        0.098      342.262       17.547      860.620
03/19/2014  17:23:00       42.901      187.749      -24.705       46.726       87.288       41.439     2183.338     7619.128     1717.164        2.461        0.576      192.588       48.748        0.064      342.201       17.442      860.629
03/19/2014  17:24:00     -102.450      176.237      -38.266       35.657       87.133       13.995     1271.414     7592.212      195.850        2.604        0.453      203.852       14.107        0.005      342.114       17.294      860.649
03/19/2014  17:25:00      -66.692       24.408      -17.387       27.212       22.369       12.017      740.500      500.384      144.417        0.337        0.069       71.019        4.156        0.003      342.159       17.374      860.652
03/19/2014  17:26:00      -68.392       11.392      -15.539       46.215       33.319       17.243     2135.804     1110.134      297.322        0.430        0.177       69.334       14.728        0.045      342.439       17.850      860.658
03/19/2014  17:27:00     -165.608      -32.392       -9.143       44.243       94.847       32.741     1957.448     8996.038     1071.986        2.029        0.601      168.746       25.999        0.024      342.527       17.997      860.664
03/19/2014  17:28:00     -105.784      -25.276       11.101       85.673       37.808       31.321     7339.898     1429.436      980.996        1.085        0.488      108.761       29.247        0.072      342.692       18.279      860.656
03/19/2014  17:29:00      -65.722      -30.853        8.586      103.746       32.144       33.265    10763.217     1033.224     1106.531        0.912        0.645       72.604       50.042        0.475      342.600       18.122      860.654
03/19/2014  17:30:00      -49.380      -57.351        4.291       48.354       66.604       29.504     2338.084     4436.155      870.493        0.669        0.382       75.681       31.530        0.174      342.524       17.994      860.649
03/19/2014  17:31:00       -0.949      -46.426       16.102       50.225       39.526       29.439     2522.509     1562.291      866.644        0.368        0.248       46.435       22.227        0.229      342.575       18.082      860.638
03/19/2014  17:32:00      -16.034      -51.696       12.606       31.489       44.163       22.751      991.533     1950.328      517.627        0.327        0.173       54.126       23.736        0.192      342.587       18.099      860.635
03/19/2014  17:33:00      -25.836      -25.324       -8.623       23.877       40.106       12.828      570.089     1608.473      164.561        0.186        0.117       36.178        5.257        0.021      342.421       17.819      860.640
03/19/2014  17:34:00      -33.754       47.518        5.298       23.709       29.082       16.280      562.125      845.746      265.054        0.255        0.084       58.286       12.547        0.046      342.373       17.737      860.638
03/19/2014  17:35:00      -19.183       31.282        5.274       25.107       25.042       18.133      630.381      627.107      328.806        0.148        0.079       36.695       13.254        0.130      342.476       17.913      860.643
03/19/2014  17:36:00      -33.083       31.019        3.926       39.998       28.636       22.023     1599.810      820.040      485.032        0.249        0.145       45.351       20.734        0.209      342.640       18.191      860.653
03/19/2014  17:37:00      -49.761      103.203      -14.733       33.464       36.224       28.370     1119.824     1312.148      804.847        0.829        0.162      114.573       15.603        0.019      342.290       17.596      860.657
03/19/2014  17:38:00       27.023       39.064       16.240       23.149       19.137       25.676      535.865      366.207      659.244        0.204        0.078       47.500       18.444        0.151      342.288       17.594      860.661
03/19/2014  17:39:00       -5.041      127.066       -9.962       35.051       97.044       22.978     1228.548     9417.462      527.966        1.372        0.559      127.166       37.578        0.087      342.343       17.684      860.665
03/19/2014  17:40:00       10.402      203.136      -18.949       70.455       74.999       42.387     4963.842     5624.875     1796.679        2.706        0.619      203.402       40.173        0.039      342.361       17.713      860.674
03/19/2014  17:41:00       34.338      335.724      -35.065       67.824      136.631       60.462     4600.051    18667.918     3655.688        7.102        1.346      337.475       76.159        0.051      342.188       17.421      860.652
03/19/2014  17:42:00      105.402      204.470      -18.593      115.689       87.341       69.039    13383.990     7628.455     4766.418        3.952        1.289      230.038       68.265        0.088      342.267       17.555      860.631
03/19/2014  17:43:00       49.616      183.898       -9.915       82.729       95.194       58.646     6844.043     9061.981     3439.333        2.786        0.967      190.474       51.033        0.072      342.312       17.631      860.614
03/19/2014  17:44:00      -42.929      150.103      -21.814       69.972       56.836       33.005     4896.141     3230.385     1089.358        1.703        0.461      156.121       24.158        0.024      342.380       17.748      860.622
03/19/2014  17:45:00     -149.088      157.768      -33.910      100.036       58.246       47.627    10007.176     3392.559     2268.334        3.196        0.783      217.067       49.572        0.052      342.446       17.859      860.655
03/19/2014  17:46:00     -163.753      145.354      -32.345       94.594      114.481       51.882     8948.071    13105.787     2691.755        3.686        1.237      218.959       62.068        0.080      342.303       17.616      860.655
03/19/2014  17:47:00      -65.449      147.485      -20.363       54.983      100.428       37.750     3023.138    10085.858     1425.077        2.049        0.727      161.355       50.157        0.097      342.365       17.722      860.653
03/19/2014  17:48:00      -29.552      183.979      -18.258       46.805       52.204       31.804     2190.713     2725.280     1011.515        2.049        0.296      186.337       22.747        0.015      342.215       17.467      860.646
03/19/2014  17:49:00      -53.596      263.217      -28.662       48.670       88.950       33.081     2368.748     7912.160     1094.322        4.217        0.569      268.618       27.829        0.011      342.273       17.565      860.624
03/19/2014  17:50:00       20.300       39.623       24.098       47.236       75.809       37.107     2231.250     5746.977     1376.930        0.596        0.468       44.521       36.471        0.671      342.312       17.632      860.613
03/19/2014  17:51:00       34.781       39.342        3.954       47.853       50.821       33.768     2289.924     2582.724     1140.283        0.439        0.301       52.512       22.520        0.184      342.354       17.706      860.597
03/19/2014  17:52:00       14.019      -14.794        6.114       41.436       25.781       28.515     1716.937      664.650      813.121        0.182        0.160       20.381       21.676        1.131      342.470       17.902      860.577
03/19/2014  17:53:00     -120.589      -84.318        0.873       76.198       61.208       33.534     5806.204     3746.472     1124.515        1.616        0.534      147.144       38.172        0.067      342.572       18.073      860.587
03/19/2014  17:54:00     -123.823     -118.566       12.089       78.438       85.144       49.396     6152.515     7249.460     2439.930        2.269        0.792      171.436       43.750        0.065      342.478       17.914      860.633
03/19/2014  17:55:00     -321.882     -124.372       -4.640      153.570      124.254       82.262    23583.868    15438.956     6767.069        8.243        2.289      345.075       79.687        0.053      342.362       17.716      860.656
03/19/2014  17:56:00     -264.645     -140.933        0.031      130.490      141.075       75.135    17027.770    19902.056     5645.247        6.623        2.129      299.832       66.028        0.048      342.284       17.582      860.672
03/19/2014  17:57:00     -276.564     -192.626       -7.042      152.003      127.769       77.275    23104.976    16324.925     5971.358        7.951        2.270      337.035       77.017        0.052      342.286       17.587      860.669
03/19/2014  17:58:00     -220.028     -201.020       18.238      182.020      133.697       88.930    33131.216    17874.944     7908.538        7.402        2.946      298.029       94.922        0.101      342.341       17.681      860.703
03/19/2014  17:59:00     -324.083     -158.818       -5.074      112.164      128.173       65.673    12580.869    16428.240     4312.964        8.179        1.666      360.906       55.971        0.024      342.210       17.458      860.709
03/19/2014  18:00:00     -403.673     -190.626      -24.225      186.268      131.179       89.707    34695.775    17207.997     8047.256       12.990        2.998      446.419       88.282        0.039      342.205       17.450      860.717
03/19/2014  18:01:00     -282.963       10.163       -7.617      116.176       80.579       60.227    13496.779     6493.025     3627.322        5.192        1.181      283.146       57.938        0.042      342.267       17.553      860.735
03/19/2014  18:02:00     -199.051      -38.009        3.621      103.547       88.320       56.070    10722.008     7800.428     3143.819        3.137        1.083      202.647       59.457        0.086      342.244       17.516      860.740
03/19/2014  18:03:00     -327.954      -56.024       -8.900      199.131      106.627       60.387    39652.963    11369.382     3646.585        8.271        2.733      332.704       60.068        0.033      342.231       17.492      860.745
03/19/2014  18:04:00     -279.064      -54.242      -16.191      164.204      119.743       65.211    26962.839    14338.455     4252.500        6.331        2.278      284.286       64.748        0.052      342.178       17.404      860.739
03/19/2014  18:05:00     -230.506      -37.033      -17.292       97.934       83.370       41.563     9590.985     6950.584     1727.502        3.653        0.913      233.462       34.369        0.022      342.211       17.460      860.746
03/19/2014  18:06:00     -232.861       33.831      -19.951       99.452      107.985       56.332     9890.612    11660.821     3173.275        4.024        1.236      235.306       51.211        0.047      342.188       17.421      860.745
03/19/2014  18:07:00     -228.825      -16.455       -8.255      116.281       78.181       53.731    13521.239     6112.308     2887.033        3.761        1.126      229.416       51.280        0.050      342.191       17.426      860.754
03/19/2014  18:08:00     -201.953      -64.045       -2.320      129.476       74.758       56.640    16764.077     5588.819     3208.130        3.522        1.278      211.865       64.372        0.092      342.267       17.554      860.767
03/19/2014  18:09:00     -422.576       21.641      -39.484      126.625       99.917       50.655    16033.965     9983.429     2565.958       10.458        1.429      423.130       55.469        0.017      342.120       17.304      860.765
03/19/2014  18:10:00     -316.496      -22.518      -23.109      103.328       84.846       45.984    10676.643     7198.768     2114.541        6.060        0.999      317.296       39.737        0.016      342.158       17.369      860.770
03/19/2014  18:11:00     -452.030     -138.968      -27.769      146.169      164.256       82.198    21365.406    26980.105     6756.559       13.975        2.755      472.909       84.132        0.032      342.079       17.232      860.782
03/19/2014  18:12:00     -392.789      -92.812      -21.594      181.000      112.999       75.767    32761.016    12768.883     5740.595       10.731        2.564      403.606       86.307        0.046      342.078       17.235      860.819
03/19/2014  18:13:00     -263.237      -96.030       -7.008      140.745      125.915       56.129    19809.062    15854.587     3150.434        5.868        1.941      280.206       61.276        0.048      342.158       17.369      860.825
03/19/2014  18:14:00     -260.767     -113.160        5.329      179.645      107.450       67.169    32272.291    11545.431     4511.633        6.457        2.416      284.262       70.585        0.062      342.064       17.210      860.827
03/19/2014  18:15:00     -151.135      -39.920        1.010      137.375       83.722       77.626    18871.885     7009.420     6025.799        2.817        1.595      156.318       66.466        0.181      342.118       17.302      860.836
03/19/2014  18:16:00     -126.338      -28.395       -2.235      120.962       89.077       56.307    14631.901     7934.699     3170.514        2.125        1.287      129.490       59.496        0.211      342.165       17.382      860.868
03/19/2014  18:17:00     -124.617       16.346        2.639      105.977       62.939       44.463    11231.035     3961.322     1976.977        1.648        0.858      125.685       53.969        0.184      342.184       17.414      860.866
03/19/2014  18:18:00     -152.103       -5.542        0.427       90.185       73.129       45.811     8133.412     5347.778     2098.683        1.937        0.779      152.204       28.976        0.036      342.298       17.608      860.879
03/19/2014  18:19:00     -262.715        4.912       -8.251      140.615      124.905       54.928    19772.675    15601.283     3017.045        5.374        1.920      262.761       60.712        0.053      342.094       17.260      860.892
03/19/2014  18:20:00     -266.739      -60.307      -14.962      141.629       96.572       51.065    20058.686     9326.211     2607.630        5.349        1.600      273.471       50.418        0.034      342.065       17.211      860.894
03/19/2014  18:21:00     -446.293      -99.453      -20.649      123.936      141.635       63.814    15360.135    20060.367     4072.265       12.449        1.975      457.240       54.643        0.014      341.927       16.975      860.885
03/19/2014  18:22:00     -243.102      -72.632       -8.505      124.014       89.355       52.706    15379.530     7984.339     2777.974        4.529        1.307      253.720       62.827        0.061      341.963       17.037      860.889
03/19/2014  18:23:00     -215.828      -23.520       -6.916      104.325      100.255       48.683    10883.675    10050.969     2369.988        3.524        1.165      217.105       46.421        0.046      342.018       17.130      860.895
03/19/2014  18:24:00     -123.008      -42.883        0.465       82.602       78.554       36.179     6823.162     6170.758     1308.922        1.563        0.715      130.268       32.198        0.061      341.981       17.072      860.887
03/19/2014  18:25:00     -290.174     -119.186      -10.963      177.066      138.898       50.277    31352.542    19292.778     2527.790        7.584        2.659      313.697       69.092        0.049      341.957       17.028      860.883
03/19/2014  18:26:00     -272.585      -52.109       -5.902      115.419      103.534       59.865    13321.636    10719.355     3583.842        5.233        1.381      277.521       55.258        0.040      341.889       16.912      860.878
03/19/2014  18:27:00     -283.130     -160.872        1.290      146.162      128.705       62.934    21363.369    16565.035     3960.720        7.396        2.094      325.641       69.158        0.045      341.798       16.758      860.863
03/19/2014  18:28:00     -112.026      -98.324       10.369      132.190      120.885       60.107    17474.192    14613.069     3612.840        2.901        1.785      149.055       47.564        0.102      341.846       16.839      860.865
03/19/2014  18:29:00     -225.113      -90.216      -14.395      132.742       80.262       62.325    17620.346     6441.960     3884.357        4.348        1.397      242.518       65.039        0.072      341.830       16.812      860.886
03/19/2014  18:30:00     -288.841     -107.577      -22.311       79.003       62.910       40.549     6241.489     3957.680     1644.192        5.367        0.592      308.224       28.999        0.009      341.867       16.873      860.908
03/19/2014  18:31:00     -250.422      -34.576       -7.922       97.580       92.634       51.398     9521.866     8581.148     2641.776        4.235        1.037      252.798       56.369        0.050      341.870       16.878      860.926
03/19/2014  18:32:00     -355.309      -90.273      -29.344      125.469      103.114       55.236    15742.434    10632.442     3050.989        8.233        1.471      366.598       56.622        0.024      341.811       16.779      860.930
03/19/2014  18:33:00     -282.645     -102.803       -1.255      157.628      117.767       60.234    24846.434    13869.062     3628.178        6.639        2.117      300.760       62.913        0.044      341.795       16.752      860.952
03/19/2014  18:34:00     -299.515     -122.886      -16.083      127.707      106.254       53.585    16309.141    11289.885     2871.347        6.776        1.524      323.744       50.951        0.025      341.761       16.694      860.958
03/19/2014  18:35:00     -303.804       -9.997      -23.211       80.111      101.952       53.780     6417.781    10394.216     2892.286        5.632        0.985      303.968       36.863        0.015      341.747       16.672      860.955
03/19/2014  18:36:00     -122.125      -25.104        9.008      117.955       86.197       59.438    13913.374     7429.989     3532.907        2.025        1.244      124.679       58.434        0.220      341.823       16.801      860.968
03/19/2014  18:37:00     -186.017     -139.557      -11.726      141.145      106.441       74.550    19921.846    11329.597     5557.720        4.550        1.840      232.547       80.744        0.121      341.814       16.785      860.992
03/19/2014  18:38:00     -455.376      -38.937       -2.720      179.607      127.895       84.755    32258.807    16357.074     7183.333       13.233        2.790      457.038       88.325        0.037      341.678       16.554      860.967
03/19/2014  18:39:00     -278.441      -21.654        6.044      183.129       89.284       70.834    33536.180     7971.603     5017.438        6.227        2.326      279.282       93.562        0.112      341.689       16.573      860.984
03/19/2014  18:40:00     -249.596     -158.278       -2.442      148.391      141.730       70.799    22019.959    20087.319     5012.498        6.723        2.356      295.551       83.263        0.079      341.625       16.466      861.010
03/19/2014  18:41:00     -237.437      -66.876        4.574      129.424       93.038       63.358    16750.513     8656.098     4014.220        4.514        1.471      246.676       63.094        0.065      341.682       16.562      861.002
03/19/2014  18:42:00     -296.204     -183.354       -0.874      193.718      102.589       81.934    37526.793    10524.404     6713.225        8.805        2.738      348.361       95.473        0.075      341.575       16.380      860.990
03/19/2014  18:43:00     -303.417     -119.194      -15.394      153.169      118.954       66.238    23460.608    14150.076     4387.527        7.424        2.100      325.990       69.940        0.046      341.593       16.408      860.998
03/19/2014  18:44:00     -234.124     -128.938       15.971      142.487      121.096       74.717    20302.407    14664.319     5582.662        5.611        2.027      267.281       75.546        0.080      341.533       16.309      861.018
03/19/2014  18:45:00     -243.039     -183.377       -6.543      166.046      132.111       89.109    27571.199    17453.446     7940.347        7.284        2.648      304.459       92.656        0.093      341.525       16.295      861.018
03/19/2014  18:46:00     -212.871      -91.104        6.183      186.530      131.099       81.814    34793.403    17186.985     6693.479        5.615        2.934      231.547       88.348        0.146      341.536       16.313      861.042
03/19/2014  18:47:00     -270.288     -107.163       -4.985      147.153      112.726       62.513    21653.959    12707.077     3907.890        6.141        1.913      290.757       68.306        0.055      341.579       16.386      861.051
03/19/2014  18:48:00     -411.693       -4.984      -24.079      127.478       98.878       60.894    16250.583     9776.845     3708.061        9.991        1.487      411.723       64.890        0.025      341.491       16.236      861.070
03/19/2014  18:49:00     -213.138      -50.898      -17.019       89.200      105.220       43.585     7956.610    11071.151     1899.651        3.461        1.046      219.131       39.864        0.033      341.552       16.339      861.100
03/19/2014  18:50:00     -295.803      -12.263      -23.834      145.462      122.397       75.368    21159.233    14981.011     5680.399        6.501        2.091      296.057       77.499        0.069      341.506       16.262      861.105
03/19/2014  18:51:00     -327.415      -47.566      -20.790      171.070      132.416       65.792    29265.053    17534.016     4328.561        8.050        2.556      330.852       71.625        0.047      341.445       16.158      861.103
03/19/2014  18:52:00     -316.621      -31.842      -12.847      193.558      133.614       57.307    37464.666    17852.694     3284.146        8.000        2.930      318.218       67.584        0.045      341.432       16.136      861.117
03/19/2014  18:53:00     -342.874       15.493      -16.859      155.114      122.116       67.057    24060.463    14912.409     4496.584        8.077        2.173      343.224       64.135        0.035      341.439       16.149      861.113
03/19/2014  18:54:00     -180.804       -2.545        1.040      145.548       68.008       51.295    21184.158     4625.078     2631.200        3.056        1.422      180.822       59.947        0.110      341.406       16.094      861.130
03/19/2014  18:55:00     -277.491     -120.366       -8.616      103.252       78.101       55.117    10661.069     6099.714     3037.849        5.568        0.990      302.472       51.750        0.029      341.319       15.948      861.132
03/19/2014  18:56:00     -275.465      -81.290       -7.205      134.353      106.228       57.633    18050.801    11284.297     3321.560        5.759        1.633      287.209       72.097        0.063      341.322       15.951      861.131
03/19/2014  18:57:00     -332.182     -114.791      -12.858      152.797      108.256       70.199    23346.821    11719.281     4927.836        8.183        2.000      351.457       68.229        0.038      341.265       15.856      861.135
03/19/2014  18:58:00     -365.828     -114.442      -24.496      129.768      129.997       66.830    16839.785    16899.330     4466.216        9.286        1.910      383.311       70.733        0.034      341.276       15.874      861.136
03/19/2014  18:59:00     -421.008     -144.988      -16.063      149.397      162.704       76.642    22319.508    26472.614     5873.990       12.659        2.733      445.275       80.441        0.033      341.258       15.843      861.121
03/19/2014  19:00:00     -298.322      -65.151       -7.655      163.555       88.765       64.794    26750.200     7879.299     4198.212        6.606        1.941      305.354       73.776        0.058      341.246       15.823      861.131
03/19/2014  19:01:00     -211.466      -43.536        0.615      125.719      103.904       60.909    15805.310    10796.031     3709.930        3.846        1.516      215.901       61.823        0.082      341.267       15.859      861.125
03/19/2014  19:02:00     -267.734      -66.809       11.235      155.958      127.100       79.604    24323.022    16154.470     6336.749        6.153        2.341      275.944       88.263        0.102      341.207       15.758      861.120
03/19/2014  19:03:00     -290.667     -136.963      -16.274      157.221      108.030       61.676    24718.553    11670.458     3803.892        7.184        2.010      321.319       72.600        0.051      341.188       15.725      861.133
03/19/2014  19:04:00     -343.663     -109.001       -4.896      168.369      161.754       75.439    28347.992    26164.316     5691.007        9.509        3.010      360.535       80.691        0.050      341.175       15.703      861.151
03/19/2014  19:05:00     -369.246       10.097      -22.815      193.906      119.609       77.112    37599.373    14306.429     5946.187        9.740        2.893      369.384       92.084        0.062      341.172       15.695      861.177
03/19/2014  19:06:00     -138.702      -13.370        7.094      109.994       67.310       60.293    12098.590     4530.671     3635.210        1.986        1.013      139.345       62.972        0.204      341.189       15.728      861.195
03/19/2014  19:07:00     -310.717        7.977      -22.326      147.825       96.758       65.070    21852.311     9362.115     4234.086        6.627        1.772      310.819       69.027        0.049      341.137       15.637      861.213
03/19/2014  19:08:00     -270.256        7.655      -13.862      132.089       86.819       64.910    17447.386     7537.541     4213.330        5.124        1.460      270.364       71.019        0.069      341.121       15.611      861.226
03/19/2014  19:09:00     -235.470      -18.802      -21.633       88.424       82.724       52.005     7818.809     6843.318     2704.482        3.681        0.868      236.220       43.732        0.034      341.153       15.666      861.236
03/19/2014  19:10:00     -222.174      -15.714      -10.317      103.162      109.162       56.482    10642.465    11916.353     3190.198        3.773        1.287      222.729       50.382        0.051      341.166       15.687      861.251
03/19/2014  19:11:00     -273.070     -105.711        1.225      104.628       97.207       56.575    10946.994     9449.245     3200.697        5.467        1.180      292.817       48.362        0.027      341.067       15.518      861.263
03/19/2014  19:12:00     -312.670     -102.977       -6.876      112.134      108.105       60.747    12574.129    11686.699     3690.169        6.818        1.398      329.190       53.736        0.027      341.047       15.487      861.265
03/19/2014  19:13:00     -249.955      -70.682       -1.113      129.289       90.014       55.364    16715.631     8102.551     3065.142        4.767        1.394      259.757       61.846        0.057      340.985       15.379      861.287
03/19/2014  19:14:00     -324.491      -35.642       -7.738      145.276      146.273       65.958    21105.076    21395.929     4350.426        7.673        2.343      326.442       75.304        0.053      340.986       15.382      861.290
03/19/2014  19:15:00     -370.805     -111.928      -10.909      198.953      124.802       65.925    39582.482    15575.517     4346.053       10.481        2.975      387.330       83.690        0.047      340.983       15.378      861.284
03/19/2014  19:16:00     -309.183      -86.784      -10.448      157.457      118.260       69.778    24792.755    13985.323     4869.018        7.343        2.182      321.132       63.815        0.039      340.968       15.351      861.277
03/19/2014  19:17:00     -296.596      -73.170      -12.354      109.587       99.063       61.385    12009.371     9813.565     3768.142        5.953        1.280      305.488       57.262        0.035      340.933       15.291      861.294
03/19/2014  19:18:00     -223.533      -24.624      -17.574       89.391       74.034       56.010     7990.733     5480.976     3137.075        3.374        0.830      224.885       55.631        0.061      340.925       15.278      861.301
03/19/2014  19:19:00     -251.564      -72.707      -14.428      116.085       90.923       56.770    13475.685     8267.025     3222.819        4.687        1.248      261.860       60.012        0.053      340.928       15.285      861.305
03/19/2014  19:20:00     -255.340      -34.253      -12.430      144.348       80.694       55.046    20836.285     6511.529     3030.007        4.845        1.519      257.628       59.194        0.053      340.928       15.284      861.309
03/19/2014  19:21:00     -164.821      -77.740       -2.388      116.045       84.246       61.266    13466.507     7097.380     3753.534        2.876        1.216      182.235       52.318        0.082      340.870       15.187      861.306
03/19/2014  19:22:00     -219.151     -109.077      -12.668      163.403      120.872       73.235    26700.552    14609.934     5363.414        5.337        2.334      244.795       75.339        0.095      340.831       15.121      861.294
03/19/2014  19:23:00     -328.023       -0.386      -28.757      166.215      123.408       67.655    27627.474    15229.487     4577.233        7.792        2.372      328.023       68.075        0.043      340.861       15.171      861.302
03/19/2014  19:24:00     -274.311      -90.865      -17.916      103.972      101.118       62.262    10810.218    10224.750     3876.511        5.436        1.246      288.969       52.186        0.033      340.781       15.036      861.324
03/19/2014  19:25:00     -332.704      -33.597       -1.814      153.282      114.012       71.266    23495.469    12998.721     5078.856        7.669        2.079      334.396       75.222        0.051      340.799       15.068      861.329
03/19/2014  19:26:00     -314.094      -23.898      -32.912      132.110       75.430       58.437    17452.971     5689.624     3414.902        6.343        1.328      315.001       70.079        0.049      340.760       15.001      861.339
03/19/2014  19:27:00     -310.765      -32.578       -4.120      138.125       90.715       64.654    19078.410     8229.265     4180.111        6.456        1.574      312.468       73.522        0.055      340.740       14.965      861.351
03/19/2014  19:28:00     -343.956      -39.110      -10.068      146.076      114.348       67.551    21338.083    13075.574     4563.163        7.945        1.949      346.172       67.931        0.039      340.747       14.977      861.352
03/19/2014  19:29:00     -288.456      -19.061      -11.518      141.361      123.338       65.196    19982.904    15212.299     4250.505        6.157        1.972      289.085       51.548        0.032      340.734       14.956      861.347
03/19/2014  19:30:00     -406.283     -163.272      -18.422      148.444      122.004       73.493    22035.490    14885.015     5401.197       11.718        2.116      437.862       56.758        0.017      340.716       14.926      861.332
03/19/2014  19:31:00     -220.457      -79.097       -7.575       99.741       85.186       41.358     9948.355     7256.597     1710.503        3.691        0.946      234.217       39.683        0.029      340.677       14.861      861.358
03/19/2014  19:32:00     -315.239      -24.822      -10.421      122.148       92.384       58.709    14920.181     8534.768     3446.748        6.350        1.345      316.215       64.565        0.042      340.675       14.854      861.362
03/19/2014  19:33:00     -406.465       -8.139      -33.609      225.368      113.094       68.058    50790.566    12790.218     4631.882       11.730        3.411      406.546       85.205        0.044      340.681       14.866      861.359
03/19/2014  19:34:00     -464.489      -68.545      -39.463      130.431       95.183       60.965    17012.278     9059.770     3716.693       12.589        1.489      469.519       62.407        0.018      340.648       14.810      861.335
03/19/2014  19:35:00     -278.105      -75.517       -1.146      156.914      100.590       69.457    24622.043    10118.376     4824.213        6.130        1.978      288.176       80.898        0.079      340.607       14.740      861.325
03/19/2014  19:36:00     -253.333      -94.864      -20.982      145.249       85.293       51.793    21097.165     7274.836     2682.497        5.233        1.553      270.512       57.187        0.045      340.580       14.695      861.328
03/19/2014  19:37:00     -307.229      -50.096      -24.219      145.955       99.395       59.723    21302.844     9879.301     3566.779        6.611        1.737      311.286       61.241        0.039      340.565       14.670      861.332
03/19/2014  19:38:00     -283.514      -17.715       -8.671      148.180      103.238       58.328    21957.383    10658.056     3402.202        5.839        1.801      284.067       65.824        0.054      340.587       14.708      861.322
03/19/2014  19:39:00     -361.812     -110.487      -12.125      159.430      119.270       58.204    25417.855    14225.336     3387.706        9.314        2.152      378.305       55.600        0.022      340.519       14.594      861.332
03/19/2014  19:40:00     -336.909      -44.597      -25.627      144.297      126.930       68.595    20821.690    16111.306     4705.251        7.889        2.082      339.848       62.918        0.034      340.541       14.631      861.332
03/19/2014  19:41:00     -348.976     -105.018      -23.557      181.513       94.915       47.923    32946.791     9008.855     2296.608        8.880        2.213      364.435       47.282        0.017      340.506       14.569      861.336
03/19/2014  19:42:00     -346.126      -87.519      -20.296      111.114      115.411       56.805    12346.396    13319.738     3226.849        7.838        1.445      357.019       49.875        0.020      340.473       14.514      861.355
03/19/2014  19:43:00     -245.443     -130.516       -5.016      128.740      113.006       65.222    16574.013    12770.262     4253.941        5.544        1.680      277.987       46.628        0.028      340.473       14.515      861.359
03/19/2014  19:44:00     -467.518     -100.786      -26.531      126.836      126.787       72.464    16087.387    16074.964     5251.072       13.342        1.871      478.258       65.095        0.019      340.455       14.484      861.385
03/19/2014  19:45:00     -329.307      -63.365      -15.629      147.837       96.276       58.172    21855.823     9268.990     3383.962        7.360        1.725      335.348       55.187        0.027      340.459       14.491      861.385
03/19/2014  19:46:00     -247.013      -49.129       -8.820      128.779      115.001       65.468    16583.931    13225.257     4286.076        4.879        1.705      251.851       47.828        0.036      340.435       14.451      861.409
03/19/2014  19:47:00     -454.053      -48.717      -41.760      137.114      105.333       68.491    18800.264    11095.042     4690.996       12.243        1.729      456.659       53.431        0.014      340.412       14.412      861.414
03/19/2014  19:48:00     -413.092      -59.548      -43.847      184.439      111.533       67.953    34017.793    12439.516     4617.572       11.358        2.554      417.362       82.575        0.039      340.416       14.419      861.423
03/19/2014  19:49:00     -367.240        9.019      -25.302      137.133      107.405       42.587    18805.495    11535.746     1813.657        8.386        1.608      367.351       55.062        0.022      340.396       14.385      861.433
03/19/2014  19:50:00     -395.444      -64.990      -37.267      139.657      114.178       60.912    19503.994    13036.609     3710.297        9.911        1.813      400.749       60.453        0.023      340.362       14.326      861.446
03/19/2014  19:51:00     -280.781      -91.284      -12.932      116.389      112.750       59.962    13546.291    12712.511     3595.470        5.859        1.493      295.247       66.612        0.051      340.312       14.242      861.446
03/19/2014  19:52:00     -242.887      -21.339       -6.875      145.712      100.957       70.845    21231.860    10192.262     5018.944        4.796        1.822      243.823       77.026        0.100      340.312       14.244      861.465
03/19/2014  19:53:00     -279.419      -31.638      -25.744      138.492      127.575       55.963    19180.072    16275.255     3131.876        5.916        1.929      281.204       37.312        0.018      340.300       14.224      861.457
03/19/2014  19:54:00     -307.070      -79.955      -14.402      154.139      121.315       62.538    23758.732    14717.361     3911.001        7.163        2.119      317.308       73.556        0.054      340.251       14.139      861.474
03/19/2014  19:55:00     -200.539      -65.917      -14.141       82.607       91.153       52.271     6823.874     8308.820     2732.285        3.131        0.893      211.094       39.883        0.036      340.219       14.084      861.483
03/19/2014  19:56:00     -123.623      -40.160       25.619      143.502      112.614       64.741    20592.858    12681.823     4191.452        2.750        1.873      129.982       68.918        0.281      340.172       14.007      861.477
03/19/2014  19:57:00     -276.508     -166.037       -2.278      198.213       96.291       83.313    39288.225     9272.027     6941.029        7.975        2.775      322.529       99.715        0.096      340.162       13.988      861.503
03/19/2014  19:58:00     -265.777      -33.328       -1.433      191.880      105.049       74.596    36817.850    11035.391     5564.518        6.257        2.671      267.859       81.308        0.092      340.160       13.986      861.524
03/19/2014  19:59:00     -298.057      -51.550      -22.832      188.145      113.653       62.386    35398.681    12917.068     3891.953        7.210        2.610      302.482       87.578        0.084      340.174       14.009      861.563
03/19/2014  20:00:00     -378.287     -127.361      -40.415      105.984      103.956       61.752    11232.669    10806.898     3813.352        9.340        1.293      399.152       55.609        0.019      340.168       13.999      861.572
03/19/2014  20:01:00     -370.535      -95.330      -10.037      166.664      116.135       63.628    27776.932    13487.449     4048.523        9.589        2.266      382.602       63.482        0.028      340.158       13.982      861.596
03/19/2014  20:02:00     -279.329      -59.218      -23.848       99.526      140.402       60.259     9905.356    19712.761     3631.149        5.767        1.662      285.538       45.987        0.026      340.184       14.026      861.606
03/19/2014  20:03:00     -260.032      -38.915      -16.143      119.900      123.936       64.323    14375.893    15360.098     4137.413        5.163        1.694      262.928       67.843        0.067      340.147       13.963      861.631
03/19/2014  20:04:00     -297.777      -58.808      -34.272      125.607       89.932       59.041    15777.204     8087.761     3485.849        6.032        1.368      303.529       57.999        0.037      340.182       14.022      861.655
03/19/2014  20:05:00     -269.571      -87.827       -4.701      185.642       97.067       63.854    34462.943     9422.019     4077.369        6.417        2.398      283.517       75.062        0.070      340.125       13.927      861.677
03/19/2014  20:06:00     -112.526      -31.466      -14.091       82.399       67.078       40.395     6789.587     4499.460     1631.793        1.338        0.646      116.843       29.637        0.064      340.104       13.894      861.677
03/19/2014  20:07:00     -166.859      -29.777       -7.537       93.591       65.746       56.698     8759.261     4322.562     3214.676        2.254        0.815      169.495       42.009        0.061      340.110       13.901      861.678
03/19/2014  20:08:00     -150.834       -1.634       -5.398      101.426       89.551       55.739    10287.284     8019.307     3106.868        2.209        1.071      150.843       39.442        0.068      340.049       13.800      861.690
03/19/2014  20:09:00     -113.004        5.316       -9.483       91.718       61.081       41.887     8412.219     3730.829     1754.538        1.339        0.695      113.129       43.872        0.150      340.064       13.826      861.702
03/19/2014  20:10:00     -180.315      -28.083      -11.894      108.238      115.005       47.874    11715.465    13226.131     2291.912        3.033        1.362      182.488       44.478        0.059      340.038       13.780      861.710
03/19/2014  20:11:00     -259.594       25.356      -30.121      111.760      125.561       61.931    12490.202    15765.575     3835.492        5.051        1.605      260.829       53.664        0.042      339.965       13.657      861.711
03/19/2014  20:12:00     -217.788       55.256      -29.710      119.768      139.210       62.734    14344.286    19379.558     3935.556        4.451        1.883      224.689       63.677        0.080      339.969       13.666      861.721
03/19/2014  20:13:00     -164.691      -46.800      -23.789       83.859       74.000       49.952     7032.328     5476.035     2495.222        2.244        0.750      171.211       35.034        0.042      339.965       13.658      861.733
03/19/2014  20:14:00     -172.396        2.030      -11.361       96.157       90.573       60.035     9246.151     8203.456     3604.210        2.545        1.053      172.408       53.542        0.096      339.931       13.601      861.763
03/19/2014  20:15:00     -176.562       63.622      -22.766       65.352       54.292       29.709     4270.906     2947.606      882.606        2.192        0.405      187.675       19.513        0.011      339.988       13.697      861.775
03/19/2014  20:16:00      -98.838        4.846       -4.969       77.507       48.529       31.567     6007.337     2355.096      996.463        0.959        0.468       98.957       38.892        0.154      339.888       13.530      861.763
03/19/2014  20:17:00     -160.356      -39.280      -20.080       52.407       48.567       41.628     2746.477     2358.718     1732.883        1.725        0.342      165.096       31.736        0.037      339.840       13.449      861.766
03/19/2014  20:18:00     -191.435      -36.440      -34.126       77.537       79.491       36.380     6011.935     6318.814     1323.527        2.639        0.683      194.872       32.620        0.028      339.840       13.446      861.771
03/19/2014  20:19:00     -153.053      -38.569      -11.252       99.807       59.756       44.044     9961.377     3570.835     1939.858        2.025        0.774      157.838       52.144        0.109      339.801       13.382      861.765
03/19/2014  20:20:00     -204.171      -58.458      -16.337       94.445       63.707       53.070     8919.865     4058.629     2816.432        3.058        0.790      212.375       48.222        0.052      339.754       13.303      861.783
03/19/2014  20:21:00     -261.117       -6.812      -24.556      133.003       95.557       53.388    17689.849     9131.062     2850.277        4.925        1.484      261.206       58.864        0.051      339.749       13.294      861.770
03/19/2014  20:22:00     -233.029      -52.898      -26.099      155.463      101.914       64.194    24168.733    10386.377     4120.864        4.822        1.934      238.957       63.449        0.071      339.745       13.286      861.797
03/19/2014  20:23:00     -279.228      -82.142      -15.000      105.597      107.497       54.663    11150.663    11555.585     2988.055        5.531        1.285      291.060       52.335        0.032      339.734       13.267      861.817
03/19/2014  20:24:00      -98.656      -62.610        8.116      124.189       90.309       63.198    15422.911     8155.689     3994.008        2.064        1.379      116.846       54.170        0.215      339.753       13.300      861.791
03/19/2014  20:25:00     -335.045     -109.597      -28.729      153.531      106.686       58.207    23571.759    11381.850     3388.052        8.171        1.917      352.514       61.083        0.030      339.791       13.364      861.851
03/19/2014  20:26:00     -151.762      -86.786        1.207      135.195      103.754       62.915    18277.627    10764.913     3958.350        3.178        1.650      174.824       75.887        0.188      339.795       13.373      861.851
03/19/2014  20:27:00     -254.392      -66.814       -6.398       93.651       86.995       50.247     8770.548     7568.078     2524.713        4.404        0.943      263.019       27.268        0.011      339.832       13.432      861.837
03/19/2014  20:28:00     -343.519     -101.136      -14.876      123.877       78.567       53.142    15345.589     6172.825     2824.100        7.639        1.217      358.097       59.845        0.028      339.811       13.397      861.852
03/19/2014  20:29:00     -335.108      -61.987      -23.001      164.979      140.667       60.483    27218.007    19787.325     3658.192        8.366        2.533      340.793       69.033        0.041      339.828       13.426      861.860
03/19/2014  20:30:00     -294.755     -111.795      -24.217      132.073      135.062       77.550    17443.209    18241.642     6014.065        7.082        2.085      315.243       64.234        0.042      339.829       13.427      861.844
03/19/2014  20:31:00     -323.610      -32.253       -4.659      130.466      147.166       55.939    17021.272    21657.818     3129.204        7.379        2.090      325.213       58.287        0.032      339.845       13.455      861.865
03/19/2014  20:32:00     -333.050      -41.077      -12.402      126.140      123.872       59.989    15911.246    15344.205     3598.667        7.380        1.743      335.574       53.684        0.026      339.893       13.536      861.868
03/19/2014  20:33:00     -203.742        3.332       14.800      150.833      114.425       79.563    22750.682    13093.150     6330.193        4.195        2.109      203.769       77.150        0.143      339.866       13.490      861.881
03/19/2014  20:34:00     -177.642      -54.277        2.751      117.146       83.034       48.109    13723.159     6894.621     2314.472        2.872        1.147      185.749       41.736        0.050      339.985       13.691      861.841
03/19/2014  20:35:00     -420.469     -130.530       -7.512      206.736      151.875      104.392    42739.858    23065.937    10897.630       13.528        3.835      440.264      118.599        0.073      339.924       13.588      861.818
03/19/2014  20:36:00     -381.658     -154.202       -9.361      157.836      141.996       79.437    24912.359    20162.795     6310.236       11.045        2.569      411.632       69.560        0.029      339.919       13.579      861.807
03/19/2014  20:37:00     -392.669      -71.164      -29.386      182.308      144.887       79.562    33236.078    20992.324     6330.187       11.033        3.028      399.065       72.094        0.033      339.939       13.613      861.815
03/19/2014  20:38:00     -261.024      -71.833        1.960      162.350      120.614       77.011    26357.638    14547.801     5930.766        6.006        2.342      270.728       87.046        0.103      339.890       13.530      861.835
03/19/2014  20:39:00     -201.654      -83.268      -11.060      144.051       97.841       62.151    20750.715     9572.814     3862.730        4.095        1.709      218.169       69.394        0.101      339.939       13.613      861.816
03/19/2014  20:40:00     -265.741      -66.390      -22.030      143.853      110.311       61.212    20693.582    12168.421     3746.951        5.605        1.830      273.909       70.445        0.066      339.908       13.562      861.819
03/19/2014  20:41:00     -184.962      -18.213        1.751      155.703      130.975       62.608    24243.425    17154.539     3919.799        3.992        2.266      185.857       67.799        0.133      339.917       13.574      861.841
03/19/2014  20:42:00     -277.902      -15.972      -17.214      159.521       99.165       62.922    25446.845     9833.763     3959.139        5.850        1.962      278.360       71.854        0.067      339.889       13.529      861.820
03/19/2014  20:43:00     -454.883      -48.213      -13.675      210.691      166.068       87.813    44390.768    27578.511     7711.106       14.454        3.984      457.431      104.303        0.052      339.887       13.524      861.815
03/19/2014  20:44:00     -436.617      -76.130       -5.387      204.251      152.655       90.020    41718.580    23303.524     8103.554       13.478        3.656      443.204      101.114        0.052      339.899       13.544      861.842
03/19/2014  20:45:00     -411.653      -45.821       -9.719      192.536      143.484       80.478    37070.119    20587.649     6476.654       11.788        3.207      414.195       77.074        0.035      339.910       13.562      861.870
03/19/2014  20:46:00     -367.439      -71.874       -5.300      207.849      122.149       80.519    43201.093    14920.297     6483.247       10.239        3.230      374.402       86.516        0.053      339.883       13.518      861.893
03/19/2014  20:47:00     -359.473        9.312      -26.187      155.329       75.568       56.892    24127.046     5710.471     3236.753        8.153        1.654      359.594       53.917        0.022      339.951       13.633      861.862
03/19/2014  20:48:00     -415.263     -104.003      -27.109      154.482      160.465       70.814    23864.651    25748.916     5014.566       11.930        2.731      428.089       56.612        0.017      339.878       13.508      861.843
03/19/2014  20:49:00     -435.305     -105.407      -23.821      172.699      154.476       71.683    29824.909    23862.766     5138.481       12.999        2.941      447.885       71.118        0.025      339.853       13.466      861.864
03/19/2014  20:50:00     -370.119      -30.408       -6.760      181.200      111.470       76.624    32833.351    12425.460     5871.278        9.453        2.557      371.366       91.046        0.060      339.897       13.541      861.883
03/19/2014  20:51:00     -410.327      -54.674      -30.054      213.113       97.711       67.022    45416.962     9547.375     4491.882       11.585        2.973      413.953       87.740        0.045      339.936       13.606      861.861
03/19/2014  20:52:00     -198.650      -58.707       17.504      187.177      101.076       73.786    35035.211    10216.278     5444.303        4.695        2.535      207.143       93.124        0.202      339.856       13.473      861.853
03/19/2014  20:53:00     -241.741      -54.204      -12.833      168.658       90.933       52.348    28445.515     8268.730     2740.344        5.049        1.973      247.743       67.743        0.075      339.925       13.588      861.876
03/19/2014  20:54:00     -418.469      -36.246       -3.985      152.238      129.271       78.015    23176.398    16711.025     6086.404       11.120        2.299      420.035       76.064        0.033      339.867       13.490      861.897
03/19/2014  20:55:00     -318.707     -109.520      -16.423      179.703      122.941       65.454    32293.167    15114.453     4284.290        8.275        2.585      337.000       71.656        0.045      339.870       13.494      861.889
03/19/2014  20:56:00     -453.862     -100.030      -28.065      167.779      153.632       73.810    28149.817    23602.889     5447.894       13.698        2.860      464.754       73.980        0.025      339.849       13.460      861.922
03/19/2014  20:57:00     -293.330      -29.454       -9.035      142.729       95.792       58.273    20371.445     9176.038     3395.785        5.996        1.647      294.805       63.685        0.047      339.923       13.584      861.918
03/19/2014  20:58:00     -377.595     -108.499      -30.672      185.002      107.674       58.015    34225.642    11593.711     3365.739       10.223        2.459      392.874       72.868        0.034      339.849       13.461      861.860
03/19/2014  20:59:00     -332.971      -85.721       -0.233      217.060      131.922       85.259    47115.077    17403.365     7269.076        9.499        3.589      343.828       97.074        0.080      339.800       13.379      861.890
03/19/2014  21:00:00     -288.737      -71.704      -20.027      139.580      172.148       76.216    19482.629    29634.768     5808.822        7.191        2.746      297.508       53.008        0.032      339.869       13.495      861.861
03/19/2014  21:01:00     -367.315     -121.099      -18.643      175.436      129.096       76.574    30777.770    16665.817     5863.618       10.161        2.665      386.762       84.745        0.048      339.825       13.422      861.886
03/19/2014  21:02:00     -525.633       -0.246      -35.405      217.446      147.415       81.385    47282.610    21731.230     6623.599       17.658        3.782      525.633       98.744        0.035      339.813       13.400      861.875
03/19/2014  21:03:00     -381.852      -64.283      -30.217      194.749      123.533       70.840    37927.227    15260.438     5018.319       10.452        2.910      387.225       85.001        0.048      339.796       13.369      861.883
03/19/2014  21:04:00     -408.437     -119.247       -2.296      149.938      121.774       66.343    22481.393    14828.874     4401.424       11.137        2.086      425.489       67.388        0.025      339.762       13.315      861.879
03/19/2014  21:05:00     -427.203      -64.247      -16.680      203.759      112.537       79.885    41517.796    12664.657     6381.588       12.372        3.028      432.007       98.473        0.052      339.787       13.356      861.895
03/19/2014  21:06:00     -461.589      -92.604      -11.603      245.305      195.993       78.142    60174.630    38413.207     6106.119       16.321        5.235      470.786       98.846        0.044      339.853       13.468      861.916
03/19/2014  21:07:00     -342.638      -45.395      -31.298      160.778      125.299       54.169    25849.502    15699.939     2934.335        8.245        2.224      345.632       71.717        0.043      339.861       13.479      861.946
03/19/2014  21:08:00      -69.196       28.562       25.619      113.971       82.271       45.439    12989.413     6768.531     2064.744        1.404        1.091       74.859       53.754        0.516      339.787       13.358      861.958
03/19/2014  21:09:00     -146.099      -30.232      -15.620       92.424       71.366       32.555     8542.264     5093.076     1059.851        1.860        0.735      149.194       35.337        0.056      339.875       13.506      861.945
03/19/2014  21:10:00     -256.708      -59.676      -21.070       94.512       73.977       40.935     8932.574     5472.555     1675.671        4.299        0.804      263.553       33.826        0.016      339.777       13.341      861.951
03/19/2014  21:11:00     -218.783     -157.633        0.885      221.398      136.381       66.676    49017.216    18599.901     4445.728        7.237        3.603      269.656       96.269        0.127      339.786       13.358      861.959
03/19/2014  21:12:00     -409.651     -147.150      -20.198      111.693      132.392       68.790    12475.255    17527.557     4732.126       11.230        1.737      435.278       59.823        0.019      339.767       13.323      861.960
03/19/2014  21:13:00     -306.155       41.882      -19.327      187.627      113.475       59.665    35204.018    12876.679     3559.878        7.374        2.582      309.007       65.292        0.045      339.843       13.452      861.998
03/19/2014  21:14:00      -74.275      -27.262        3.184       87.606       70.968       42.236     7674.891     5036.491     1783.872        1.038        0.725       79.120       39.183        0.245      339.755       13.306      861.995
03/19/2014  21:15:00     -137.254      -89.042       -0.855       73.455       75.023       40.552     5395.596     5628.412     1644.427        1.972        0.633      163.607       37.890        0.054      339.742       13.283      861.997
03/19/2014  21:16:00     -182.083      -52.093       -7.331      119.634       78.765       41.967    14312.180     6203.871     1761.251        2.910        1.114      189.389       27.285        0.021      339.741       13.280      862.005
03/19/2014  21:17:00     -250.607      -55.793      -24.832      135.427      111.694       60.007    18340.580    12475.632     3600.895        5.047        1.721      256.742       71.853        0.078      339.789       13.360      862.009
03/19/2014  21:18:00     -267.363      -68.692        7.342      156.019      122.968       68.365    24342.018    15121.126     4673.823        6.019        2.207      276.047       76.619        0.077      339.743       13.283      861.991
03/19/2014  21:19:00     -171.634      -89.074       -1.485      156.763      104.121       62.820    24574.704    10841.185     3946.291        3.837        1.968      193.371       72.915        0.142      339.691       13.196      861.991
03/19/2014  21:20:00     -417.969      -78.326      -29.801      155.152      158.465       65.337    24072.257    25111.003     4268.880       11.758        2.673      425.244       64.757        0.023      339.731       13.261      861.993
03/19/2014  21:21:00     -261.257      -28.829       -2.369      167.040      130.339       68.684    27902.221    16988.183     4717.510        5.934        2.480      262.843       76.441        0.085      339.735       13.269      862.022
03/19/2014  21:22:00     -296.308      -36.068       -9.683      149.175       93.248       66.040    22253.032     8695.253     4361.324        6.224        1.765      298.495       74.537        0.062      339.748       13.291      862.020
03/19/2014  21:23:00     -281.027      -47.421      -16.614      125.338      112.127       60.497    15709.583    12572.374     3659.915        5.672        1.597      285.000       58.065        0.042      339.725       13.254      862.023
03/19/2014  21:24:00     -287.302      -44.553       -8.918      127.990      141.223       64.115    16381.419    19943.908     4110.743        6.251        2.022      290.736       63.766        0.048      339.696       13.202      862.031
03/19/2014  21:25:00     -339.698      -69.992       -0.565      135.963       91.933       61.670    18485.954     8451.601     3803.180        7.551        1.537      346.834       61.294        0.031      339.643       13.115      862.040
03/19/2014  21:26:00     -269.591      -95.130      -18.186      121.615       82.737       57.353    14790.288     6845.472     3289.353        5.349        1.246      285.883       58.887        0.042      339.627       13.086      862.047
03/19/2014  21:27:00     -258.758      -25.505      -20.834       85.854       89.638       44.167     7370.930     8034.982     1950.747        4.269        0.868      260.012       37.037        0.020      339.643       13.115      862.042
03/19/2014  21:28:00     -285.825      -22.549        0.998      124.351       89.891       57.144    15463.288     8080.338     3265.410        5.450        1.340      286.714       62.686        0.048      339.564       12.980      862.060
03/19/2014  21:29:00     -281.096      -13.497      -19.604      134.699      101.560       63.174    18143.806    10314.427     3990.922        5.601        1.622      281.420       72.553        0.066      339.693       13.199      862.068
03/19/2014  21:30:00     -260.044     -123.051        4.777      150.001      122.934       72.452    22500.182    15112.721     5249.321        6.282        2.143      287.688       73.090        0.065      339.654       13.132      862.058
03/19/2014  21:31:00     -469.129      -18.789      -39.759      192.652      115.973       74.798    37114.855    13449.751     5594.718       13.908        2.808      469.505       89.729        0.037      339.677       13.170      862.071
03/19/2014  21:32:00     -252.615     -113.584        7.318      119.244       94.156       53.333    14219.191     8865.413     2844.382        5.134        1.296      276.976       48.287        0.030      339.660       13.143      862.057
03/19/2014  21:33:00     -318.094      -79.055       -6.404      133.044      135.468       68.210    17700.709    18351.633     4652.667        7.408        2.035      327.771       57.703        0.031      339.619       13.075      862.062
03/19/2014  21:34:00     -291.622      -48.277      -15.571      148.994      135.851       66.775    22199.190    18455.573     4458.958        6.636        2.256      295.591       70.574        0.057      339.666       13.152      862.057
03/19/2014  21:35:00     -322.998     -108.439      -12.638      116.517       79.182       52.095    13576.248     6269.803     2713.898        6.940        1.128      340.715       53.352        0.025      339.617       13.069      862.081
03/19/2014  21:36:00     -126.886      -66.827        6.699       98.418      101.480       53.206     9686.130    10298.122     2830.921        2.171        1.141      143.408       63.353        0.195      339.620       13.077      862.112
03/19/2014  21:37:00     -177.499      -63.253       -4.830       81.009       74.867       41.427     6562.469     5605.039     1716.176        2.470        0.694      188.433       42.856        0.052      339.674       13.166      862.130
03/19/2014  21:38:00     -264.694      -97.938      -11.857       80.875       95.941       45.339     6540.755     9204.709     2055.619        4.879        0.890      282.232       48.216        0.029      339.624       13.081      862.130
03/19/2014  21:39:00     -201.730      -22.471       -9.600      112.923       99.402       51.361    12751.523     9880.792     2637.958        3.328        1.264      202.978       52.402        0.067      339.637       13.103      862.136
03/19/2014  21:40:00     -212.424      -52.323       -1.603      148.652       92.851       54.750    22097.304     8621.307     2997.551        4.078        1.686      218.773       57.202        0.068      339.584       13.015      862.142
03/19/2014  21:41:00     -372.357     -107.637      -18.160      162.487       88.137       59.677    26401.872     7768.117     3561.326        9.414        1.887      387.602       62.135        0.026      339.585       13.017      862.159
03/19/2014  21:42:00     -471.056     -120.339      -31.314      107.607       96.736       49.101    11579.302     9357.786     2410.885       13.035        1.167      486.184       40.704        0.007      339.665       13.149      862.151
03/19/2014  21:43:00     -293.514     -112.796      -10.572      147.755       88.760       70.124    21831.493     7878.280     4917.400        6.680        1.731      314.442       72.632        0.053      339.614       13.065      862.146
03/19/2014  21:44:00     -205.819      -10.891       -2.843      110.428      100.489       51.473    12194.336    10098.108     2649.482        3.371        1.247      206.107       42.921        0.043      339.641       13.110      862.155
03/19/2014  21:45:00     -175.044       33.247        4.692      139.706       91.078       59.485    19517.705     8295.274     3538.430        3.155        1.568      178.173       65.763        0.136      339.593       13.030      862.163
03/19/2014  21:46:00     -308.523      -44.199      -30.200      114.870      101.617       46.995    13195.138    10326.028     2208.545        6.189        1.286      311.673       48.895        0.025      339.592       13.028      862.166
03/19/2014  21:47:00     -344.116      -57.528      -27.833      111.351       76.776       56.592    12398.960     5894.624     3202.602        7.199        1.075      348.891       56.399        0.026      339.531       12.924      862.159
03/19/2014  21:48:00     -257.218      -18.711      -21.216      108.754       75.103       47.945    11827.467     5640.470     2298.696        4.336        0.988      257.898       45.430        0.031      339.550       12.958      862.155
03/19/2014  21:49:00     -228.469      -34.744      -13.286      103.364       80.733       46.559    10684.103     6517.826     2167.747        3.647        0.968      231.096       46.375        0.040      339.456       12.799      862.159
03/19/2014  21:50:00     -268.259      -91.848       -7.972       80.950       81.897       41.959     6552.956     6707.072     1760.577        4.774        0.751      283.547       38.497        0.018      339.448       12.783      862.169
03/19/2014  21:51:00     -280.597      -62.883      -11.968       98.291       75.817       45.705     9661.176     5748.185     2088.920        5.016        0.875      287.557       48.698        0.029      339.486       12.848      862.166
03/19/2014  21:52:00     -190.862      -70.838        3.324      104.231       78.452       44.149    10864.069     6154.679     1949.148        3.021        0.948      203.584       54.679        0.072      339.487       12.853      862.167
03/19/2014  21:53:00     -171.949        3.528       -9.236       71.741       49.265       39.024     5146.836     2427.082     1522.881        1.938        0.455      171.985       42.282        0.060      339.571       12.994      862.166
03/19/2014  21:54:00     -181.766      -26.661       -1.929       95.090       71.275       44.695     9042.103     5080.057     1997.638        2.493        0.806      183.711       52.066        0.080      339.477       12.833      862.170
03/19/2014  21:55:00     -179.036      -88.625       -5.793      102.172       76.512       51.647    10439.071     5854.107     2667.389        2.945        0.948      199.770       44.862        0.050      339.437       12.768      862.174
03/19/2014  21:56:00     -124.617        7.670       -5.116       97.810       59.261       50.324     9566.785     3511.907     2532.528        1.561        0.781      124.853       46.467        0.139      339.471       12.825      862.180
03/19/2014  21:57:00     -161.306      -13.553      -17.061       60.383       72.657       43.733     3646.164     5279.036     1912.602        1.866        0.542      161.874       30.075        0.035      339.497       12.870      862.180
03/19/2014  21:58:00     -261.466      -48.113      -12.065      127.746       61.279       43.649    16319.133     3755.160     1905.260        4.640        1.099      265.855       53.710        0.041      339.413       12.728      862.200
03/19/2014  21:59:00     -229.007      -46.724       -0.000      126.607       85.362       47.522    16029.315     7286.699     2258.342        4.010        1.279      233.725       56.181        0.058      339.349       12.617      862.223
03/19/2014  22:00:00     -113.241      -67.243        8.319       91.842       71.647       43.058     8434.987     5133.286     1854.014        1.642        0.771      131.701       47.934        0.132      339.395       12.697      862.227
03/19/2014  22:01:00     -178.686      -59.053       -2.688       88.155       92.783       42.478     7771.236     8608.663     1804.347        2.680        0.909      188.192       33.138        0.031      339.491       12.857      862.253
03/19/2014  22:02:00      -48.610        4.186        1.613       58.292       28.499       27.217     3397.987      812.210      740.777        0.367        0.248       48.790       33.530        0.472      339.470       12.825      862.276
03/19/2014  22:03:00      -80.523      -14.230      -12.531       61.169       43.091       25.181     3741.627     1856.832      634.084        0.654        0.312       81.771       22.502        0.076      339.471       12.826      862.323
03/19/2014  22:04:00      -44.717       20.268       -2.516       33.160       45.671       31.450     1099.577     2085.821      989.110        0.329        0.209       49.096       23.153        0.222      339.404       12.715      862.333
03/19/2014  22:05:00      -12.393       71.612      -16.453       29.739       25.345       20.621      884.426      642.383      425.224        0.375        0.098       72.677        8.975        0.015      339.403       12.713      862.323
03/19/2014  22:06:00       -3.839       63.681      -12.656       25.095       26.229       13.500      629.750      687.952      182.241        0.286        0.075       63.797       14.449        0.051      339.277       12.498      862.336
03/19/2014  22:07:00      -82.843      -19.041       -4.740       54.276       34.948       19.604     2945.906     1221.368      384.326        0.590        0.228       85.003       12.958        0.023      339.392       12.692      862.351
03/19/2014  22:08:00     -122.033      -26.711      -19.723       19.455       24.902       16.271      378.502      620.101      264.761        0.863        0.063      124.922       13.659        0.012      339.314       12.563      862.372
03/19/2014  22:09:00      -84.355      -33.148       -5.250       33.968       27.882       20.160     1153.793      777.407      406.443        0.529        0.117       90.635       17.890        0.039      339.271       12.488      862.388
03/19/2014  22:10:00      -16.386       -9.396       -1.143       30.427       16.740       16.871      925.783      280.235      284.639        0.092        0.075       18.889        8.501        0.203      339.247       12.449      862.400
03/19/2014  22:11:00       33.004       34.019       11.404       26.616       22.346       19.770      708.397      499.341      390.850        0.199        0.080       47.398       16.534        0.122      339.332       12.592      862.411
03/19/2014  22:12:00      -34.206       82.514      -13.041       46.396       67.199       22.912     2152.563     4515.671      524.974        0.767        0.360       89.323       30.209        0.114      339.217       12.398      862.420
03/19/2014  22:13:00      -74.786      159.246      -21.933       60.259       61.460       34.678     3631.181     3777.283     1202.550        2.002        0.431      175.932       32.773        0.035      339.235       12.428      862.453
03/19/2014  22:14:00      -45.652      100.938       -1.279       64.132       52.454       35.466     4112.864     2751.455     1257.822        1.020        0.406      110.782       29.937        0.073      339.263       12.478      862.467
03/19/2014  22:15:00      -47.626      167.695      -30.838       47.164       69.213       28.855     2224.398     4790.390      832.585        1.959        0.392      174.327       32.601        0.035      339.167       12.313      862.470
03/19/2014  22:16:00       14.498      180.048      -32.415       40.400       59.412       24.147     1632.195     3529.745      583.064        1.971        0.287      180.631       25.379        0.020      339.036       12.093      862.465
03/19/2014  22:17:00       23.819       95.795      -21.560       33.762       59.652       18.512     1139.864     3558.355      342.706        0.762        0.252       98.712       20.652        0.044      339.007       12.045      862.472
03/19/2014  22:18:00      -15.097       93.054      -22.454       41.636       36.165       21.913     1733.544     1307.886      480.197        0.646        0.176       94.270       20.371        0.047      339.120       12.235      862.494
03/19/2014  22:19:00      -12.020       93.936      -16.082       19.717       32.789       10.760      388.764     1075.136      115.775        0.540        0.079       94.702       11.285        0.014      339.033       12.090      862.516
03/19/2014  22:20:00      -16.255      112.767      -17.140       35.273       26.551       20.628     1244.189      704.936      425.504        0.782        0.119      113.933       17.295        0.023      339.075       12.161      862.519
03/19/2014  22:21:00      -43.193      126.459      -25.681       64.919       46.173       26.276     4214.486     2131.937      690.406        1.278        0.352      133.632       24.161        0.033      339.079       12.167      862.518
03/19/2014  22:22:00        9.290       84.458      -10.087       20.604       26.805       17.840      424.510      718.529      318.263        0.439        0.073       84.967       14.326        0.028      339.064       12.141      862.520
03/19/2014  22:23:00        5.135       23.826       15.507       20.379       31.916       17.353      415.289     1018.642      301.140        0.128        0.087       24.373       12.449        0.261      338.980       12.000      862.524
03/19/2014  22:24:00      -65.757       55.078      -17.771       45.138       50.055       30.270     2037.402     2505.548      916.284        0.657        0.273       85.776       19.116        0.050      339.116       12.229      862.552
03/19/2014  22:25:00      -72.598      -17.647       -4.603       55.367       44.551       23.430     3065.527     1984.822      548.983        0.560        0.280       74.712       27.919        0.140      339.133       12.259      862.578
03/19/2014  22:26:00      -30.520      -31.076       12.379       49.415       30.399       22.978     2441.813      924.109      528.011        0.297        0.195       43.557       29.104        0.446      338.952       11.952      862.604
03/19/2014  22:27:00     -102.401      -54.257       -6.795       27.748       27.094       18.862      769.946      734.104      355.757        0.767        0.093      115.887       17.018        0.022      339.000       12.032      862.617
03/19/2014  22:28:00      -74.245      -11.514      -19.001       30.671       14.658       11.648      940.718      214.857      135.670        0.365        0.065       75.132       11.345        0.023      338.996       12.030      862.622
03/19/2014  22:29:00      -35.151      -25.911        0.095       17.614       21.781       14.040      310.236      474.426      197.130        0.144        0.049       43.669        9.923        0.052      339.110       12.219      862.622
03/19/2014  22:30:00      -50.057      -14.460        0.974       25.367       38.487       17.318      643.463     1481.260      299.922        0.257        0.121       52.104        9.891        0.036      339.088       12.182      862.623
03/19/2014  22:31:00      -37.280       50.864       -4.036       24.898       37.951       16.279      619.906     1440.314      265.005        0.316        0.116       63.063       19.539        0.096      339.145       12.278      862.615
03/19/2014  22:32:00      -72.039        9.205       -6.809       52.725       20.009       15.997     2779.888      400.364      255.906        0.438        0.172       72.624       20.938        0.083      339.219       12.402      862.606
03/19/2014  22:33:00      -67.585       -8.170       -1.885       33.386       34.288       16.043     1114.632     1175.663      257.391        0.359        0.127       68.077       16.485        0.059      339.076       12.162      862.601
03/19/2014  22:34:00      -96.151      -28.972       -3.495       38.646       34.039       17.882     1493.484     1158.672      319.750        0.653        0.149      100.421       19.403        0.037      338.940       11.932      862.593
03/19/2014  22:35:00      -80.690      -53.192        5.743       45.689       40.598       25.342     2087.491     1648.198      642.242        0.687        0.219       96.645       23.975        0.062      338.934       11.923      862.589
03/19/2014  22:36:00     -101.419      -73.229        5.268       75.195       42.477       28.691     5654.348     1804.264      823.180        1.198        0.414      125.093       36.379        0.085      339.000       12.033      862.585
03/19/2014  22:37:00     -142.322      -98.042       -3.789       52.963       59.658       29.462     2805.078     3559.091      867.992        1.856        0.362      172.823       27.854        0.026      338.975       11.991      862.589
03/19/2014  22:38:00     -118.699      -87.929        4.282       92.874       57.874       42.638     8625.548     3349.367     1818.015        1.781        0.690      147.719       51.403        0.121      338.981       12.000      862.595
03/19/2014  22:39:00      -66.031      -35.860       12.281       61.564       48.294       47.784     3790.112     2332.343     2283.340        0.710        0.420       75.140       37.283        0.246      339.023       12.074      862.594
03/19/2014  22:40:00     -110.838       -2.109       -7.127       49.904       34.217       26.388     2490.413     1170.817      696.341        0.835        0.218      110.858       28.612        0.067      339.117       12.231      862.603
03/19/2014  22:41:00     -169.837        5.358      -15.787       43.568       32.251       25.064     1898.171     1040.104      628.209        1.634        0.178      169.921       22.428        0.017      339.087       12.181      862.610
03/19/2014  22:42:00     -135.222      -39.935      -12.937       37.280       27.289       17.190     1389.822      744.714      295.508        1.124        0.122      140.996       17.969        0.016      338.881       11.834      862.609
03/19/2014  22:43:00      -65.329      -41.310       -3.756       17.446       15.009        9.497      304.375      225.272       90.188        0.330        0.031       77.294        9.153        0.014      338.852       11.784      862.615
03/19/2014  22:44:00      -77.398      -35.673       -8.399       17.867       21.345       10.764      319.221      455.612      115.865        0.411        0.045       85.224        7.246        0.007      338.887       11.843      862.616
03/19/2014  22:45:00      -39.130      -28.060       -8.468       12.839        7.199        8.878      164.829       51.830       78.819        0.134        0.015       48.151        4.300        0.008      338.917       11.893      862.633
03/19/2014  22:46:00       -5.888      -27.647       -4.507       14.088       12.126        8.803      198.480      147.041       77.501        0.062        0.021       28.267        6.278        0.049      338.984       12.006      862.646
03/19/2014  22:47:00      -11.893      -26.636      -10.491       19.826       10.086        8.578      393.053      101.731       73.588        0.076        0.028       29.171       10.312        0.125      339.087       12.180      862.650
03/19/2014  22:48:00      -27.483      -13.787        4.776       26.928       22.334       11.915      725.125      498.809      141.966        0.117        0.068       30.747       10.859        0.125      339.003       12.038      862.667
03/19/2014  22:49:00      -90.999      -54.020        1.175       44.346       31.850       23.707     1966.593     1014.441      562.038        0.737        0.177      105.825       25.041        0.056      338.931       11.920      862.687
03/19/2014  22:50:00     -119.342      -11.976       -7.881       31.050       26.923       19.160      964.090      724.861      367.115        0.825        0.103      119.941       16.774        0.020      338.632       11.415      862.699
03/19/2014  22:51:00     -120.112      -25.538       -3.044       30.682       29.427       18.321      941.412      865.976      335.649        0.862        0.107      122.797       15.833        0.017      338.627       11.408      862.705
03/19/2014  22:52:00     -119.689      -37.197        7.780       65.963       52.119       27.131     4351.073     2716.341      736.096        1.178        0.390      125.336       27.372        0.048      338.745       11.604      862.707
03/19/2014  22:53:00     -113.282      -44.309       10.663       85.906       47.007       32.761     7379.903     2209.659     1073.284        1.278        0.533      121.639       32.750        0.072      338.869       11.813      862.711
03/19/2014  22:54:00      -70.675      -33.371       11.894       65.399       37.501       27.586     4277.007     1406.340      760.998        0.635        0.322       78.157       26.524        0.115      338.818       11.728      862.716
03/19/2014  22:55:00      -83.624      -34.339        2.270       58.451       33.300       25.256     3416.558     1108.913      637.845        0.667        0.258       90.400       28.450        0.099      338.861       11.800      862.716
03/19/2014  22:56:00      -96.976      -34.778       -9.683       26.041       22.955       17.853      678.141      526.938      318.730        0.612        0.076      103.023       10.193        0.010      338.912       11.886      862.712
03/19/2014  22:57:00     -196.197      -76.731        2.302       92.890       56.697       31.677     8628.516     3214.556     1003.407        2.861        0.642      210.668       30.231        0.021      338.998       12.029      862.711
03/19/2014  22:58:00     -159.575      -58.803        3.206       94.626       67.421       43.272     8954.174     4545.526     1872.462        2.215        0.769      170.065       46.606        0.075      339.189       12.351      862.707
03/19/2014  22:59:00     -114.950      -66.643        8.431       67.000       44.129       37.529     4488.980     1947.362     1408.408        1.278        0.392      132.871       35.587        0.072      339.101       12.204      862.713
03/19/2014  23:00:00     -126.461      -53.503       -7.165       59.920       64.395       44.318     3590.411     4146.758     1964.060        1.430        0.485      137.313       28.130        0.042      339.075       12.159      862.721
03/19/2014  23:01:00      -56.221      -48.942        7.264       49.099       59.569       30.619     2410.715     3548.453      937.500        0.625        0.345       74.540       25.674        0.119      339.163       12.307      862.701
03/19/2014  23:02:00      -55.012      -48.647       -5.709       36.501       30.611       21.721     1332.348      937.020      471.786        0.408        0.137       73.437       16.616        0.051      339.018       12.065      862.696
03/19/2014  23:03:00      -73.898      -82.171        6.310       37.706       39.500       23.783     1421.713     1560.263      565.640        0.790        0.177      110.513       19.305        0.031      339.111       12.219      862.688
03/19/2014  23:04:00     -116.129      -57.597        1.235       67.924       47.289       32.890     4613.710     2236.266     1081.734        1.237        0.397      129.627       34.771        0.072      338.998       12.030      862.691
03/19/2014  23:05:00     -188.856     -134.656       -8.881       81.826       49.435       39.816     6695.516     2443.798     1585.286        3.230        0.536      231.945       38.679        0.028      338.904       11.867      862.714
03/19/2014  23:06:00      -71.829      -89.396       -1.682       39.440       53.357       23.889     1555.477     2847.014      570.661        0.906        0.249      114.678       27.513        0.058      338.858       11.794      862.723
03/19/2014  23:07:00      -29.670     -134.140        4.705       66.385       71.881       35.562     4406.942     5166.941     1264.670        1.487        0.542      137.382       32.594        0.056      338.961       11.967      862.735
03/19/2014  23:08:00     -105.705     -106.990       -5.719       69.899       71.164       32.088     4885.847     5064.347     1029.649        1.681        0.549      150.401       31.906        0.045      338.974       11.990      862.721
03/19/2014  23:09:00     -209.492     -165.051      -12.469       85.812       68.377       39.318     7363.717     4675.414     1545.885        4.243        0.679      266.700       43.690        0.027      338.899       11.860      862.727
03/19/2014  23:10:00     -181.459      -91.003       -7.900       76.198       77.407       42.382     5806.153     5991.894     1796.216        2.743        0.680      202.999       37.062        0.033      338.854       11.785      862.725
03/19/2014  23:11:00     -107.841     -103.213       -0.690       52.949       46.629       29.548     2803.572     2174.286      873.111        1.407        0.293      149.274       23.225        0.024      338.829       11.746      862.728
03/19/2014  23:12:00      -73.043     -105.915        8.818       90.591       97.217       27.826     8206.645     9451.050      774.272        1.753        0.922      128.660       32.741        0.065      338.886       11.840      862.721
03/19/2014  23:13:00     -154.226     -113.980      -11.184       81.282       59.501       42.457     6606.772     3540.407     1802.580        2.442        0.597      191.774       39.207        0.042      338.838       11.760      862.730
03/19/2014  23:14:00     -253.310      -87.719      -16.252      119.000       73.652       44.253    14161.041     5424.649     1958.310        4.683        1.077      268.069       43.334        0.026      338.815       11.719      862.738
03/19/2014  23:15:00     -148.291      -72.667       -2.658       62.744       54.100       36.142     3936.775     2926.808     1306.232        1.772        0.408      165.138       35.458        0.046      338.767       11.642      862.744
03/19/2014  23:16:00      -91.482      -73.734        3.440       49.502       54.481       27.874     2450.480     2968.207      776.944        1.001        0.310      117.498       23.064        0.039      338.751       11.616      862.759
03/19/2014  23:17:00      -91.414      -72.010       -1.049       34.017       49.129       24.374     1157.154     2413.698      594.108        0.885        0.208      116.370       13.420        0.013      338.729       11.577      862.779
03/19/2014  23:18:00      -89.261      -88.049       -0.338       59.701       52.081       29.293     3564.167     2712.441      858.086        1.143        0.357      125.380       27.238        0.047      338.649       11.444      862.790
03/19/2014  23:19:00      -57.737      -81.848       -0.713       45.697       50.516       31.978     2088.260     2551.841     1022.600        0.785        0.283      100.163       29.716        0.088      338.558       11.290      862.797
03/19/2014  23:20:00     -125.582     -115.832       -0.998       52.559       54.687       29.004     2762.491     2990.649      841.248        1.789        0.330      170.845       22.515        0.017      338.502       11.196      862.797
03/19/2014  23:21:00     -147.909      -82.421       -3.780       45.795       47.964       24.246     2097.210     2300.561      587.844        1.683        0.249      169.323       21.565        0.016      338.477       11.155      862.775
03/19/2014  23:22:00      -60.421      -75.958       -1.652       58.642       37.937       29.870     3438.862     1439.230      892.242        0.760        0.289       97.058       24.435        0.063      338.504       11.202      862.769
03/19/2014  23:23:00      -55.854      -26.530       11.938       67.535       31.478       27.866     4561.013      990.864      776.506        0.515        0.316       61.835       37.125        0.360      338.494       11.183      862.771
03/19/2014  23:24:00      -82.549      -15.963        5.165       56.844       35.852       25.173     3231.192     1285.388      633.694        0.612        0.258       84.078       28.857        0.118      338.427       11.072      862.774
03/19/2014  23:25:00     -156.353      -90.151       -5.668       40.390       40.272       26.380     1631.335     1621.856      695.910        1.828        0.197      180.481       24.516        0.018      338.450       11.109      862.778
03/19/2014  23:26:00     -124.522      -48.753       -0.599       76.922       42.842       30.513     5916.937     1835.467      931.051        1.328        0.434      133.725       32.313        0.058      338.411       11.044      862.775
03/19/2014  23:27:00     -126.976      -52.579       -1.994       50.008       40.364       26.793     2500.834     1629.232      717.849        1.187        0.242      137.431       21.178        0.024      338.454       11.118      862.766
03/19/2014  23:28:00     -100.841      -40.004       -3.143       36.846       34.282       20.384     1357.641     1175.279      415.521        0.736        0.147      108.486       21.265        0.038      338.347       10.937      862.753
03/19/2014  23:29:00      -49.633      -30.017        6.471       49.855       37.301       23.551     2485.568     1391.385      554.664        0.392        0.222       58.004       25.793        0.198      338.363       10.964      862.757
03/19/2014  23:30:00      -91.834      -29.884       -1.029       52.887       38.515       21.437     2797.012     1483.425      459.537        0.703        0.237       96.574       24.847        0.066      338.295       10.850      862.758
03/19/2014  23:31:00     -109.530      -33.553        2.877       31.758       31.742       17.972     1008.602     1007.581      323.004        0.773        0.117      114.554       15.417        0.018      338.164       10.630      862.765
03/19/2014  23:32:00      -86.756      -21.010       -5.523       35.781       26.892       17.011     1280.307      723.183      289.357        0.515        0.115       89.264        6.983        0.006      338.165       10.631      862.765
03/19/2014  23:33:00     -110.193      -32.058        2.995       32.213       28.975       18.769     1037.678      839.555      352.282        0.770        0.111      114.761       17.820        0.024      338.141       10.591      862.771
03/19/2014  23:34:00     -111.487      -13.583       -3.092       36.707       27.541       23.767     1347.397      758.532      564.890        0.765        0.134      112.311       19.733        0.031      337.953       10.277      862.762
03/19/2014  23:35:00      -91.860       -3.696        3.963       46.831       25.839       26.110     2193.143      667.656      681.752        0.600        0.177       91.935       26.841        0.085      337.849       10.102      862.763
03/19/2014  23:36:00      -98.315        1.380       -9.623       31.922       27.164       19.388     1018.998      737.907      375.896        0.595        0.107       98.325       16.237        0.027      337.931       10.238      862.750
03/19/2014  23:37:00      -99.798      -27.330        0.933       37.678       31.178       18.543     1419.633      972.063      343.860        0.672        0.137      103.472       17.272        0.028      337.951       10.272      862.742
03/19/2014  23:38:00      -85.099      -63.781        4.371       43.682       29.650       20.150     1908.082      879.096      406.021        0.726        0.160      106.348       21.556        0.041      337.821       10.053      862.748
03/19/2014  23:39:00      -89.979      -37.496       -0.921       33.762       30.798       21.029     1139.866      948.494      442.240        0.602        0.127       97.479       18.485        0.036      337.752        9.939      862.744
03/19/2014  23:40:00      -92.152      -33.582       -7.938       27.821       21.947       13.359      774.033      481.672      178.471        0.556        0.072       98.081        6.816        0.005      337.900       10.187      862.723
03/19/2014  23:41:00      -75.061      -33.092       -1.742       34.201       23.376       12.922     1169.731      546.434      166.983        0.431        0.094       82.032       12.140        0.022      337.960       10.288      862.709
03/19/2014  23:42:00      -50.143      -25.193        3.859       41.325       26.650       18.154     1707.751      710.248      329.577        0.296        0.137       56.116       20.812        0.138      337.916       10.214      862.695
03/19/2014  23:43:00      -70.162      -26.623        1.252       25.714       21.297       14.273      661.227      453.583      203.713        0.348        0.066       75.043        8.055        0.012      337.994       10.344      862.678
03/19/2014  23:44:00      -60.789      -30.560       -1.111       30.886       24.665       18.550      953.931      608.339      344.110        0.327        0.095       68.038       17.464        0.066      337.994       10.345      862.668
03/19/2014  23:45:00      -76.121      -19.303       -4.942       45.378       25.286       19.249     2059.168      639.394      370.528        0.463        0.153       78.531       18.735        0.057      337.917       10.216      862.657
03/19/2014  23:46:00      -60.048      -22.894       -4.102       40.622       18.256       13.657     1650.113      333.264      186.505        0.316        0.108       64.264       19.531        0.092      337.958       10.284      862.636
03/19/2014  23:47:00      -87.347      -16.624      -13.185       12.686       15.038       11.608      160.936      226.127      134.755        0.430        0.026       88.915        6.421        0.005      337.878       10.149      862.627
03/19/2014  23:48:00      -75.502       -2.049       -4.981       24.140       21.932       14.629      582.721      481.008      214.004        0.350        0.064       75.530       14.019        0.034      337.907       10.198      862.620
03/19/2014  23:49:00      -45.003      -50.982       -0.044       30.489       28.519       16.583      929.586      813.320      275.000        0.332        0.101       68.003       18.366        0.073      337.547        9.594      862.619
03/19/2014  23:50:00      -92.621      -19.357        1.072       69.297       39.357       23.081     4802.079     1549.001      532.725        0.792        0.344       94.622       24.117        0.065      337.892       10.174      862.625
03/19/2014  23:51:00      -45.412      -55.920       -2.211       37.937       48.109       28.255     1439.209     2314.458      798.357        0.487        0.228       72.037       26.832        0.139      338.105       10.530      862.613
03/19/2014  23:52:00      -40.087      -56.054        3.882       31.795       33.329       18.406     1010.954     1110.806      338.781        0.361        0.123       68.913       12.515        0.033      338.032       10.408      862.614
03/19/2014  23:53:00      -64.308       -1.948        2.665       27.517       21.461       19.292      757.183      460.569      372.181        0.287        0.079       64.338       16.570        0.066      337.538        9.579      862.602
03/19/2014  23:54:00      -37.872       -7.195       -0.342       17.506       21.391       12.907      306.471      457.592      166.603        0.121        0.047       38.549        8.264        0.046      337.655        9.776      862.594
03/19/2014  23:55:00      -71.838        0.353       -5.083       22.699       21.411       13.961      515.249      458.445      194.903        0.318        0.058       71.839       11.447        0.025      337.616        9.709      862.590
03/19/2014  23:56:00      -64.915      -11.835       -6.438       14.731        9.344        9.322      217.016       87.317       86.901        0.239        0.020       65.985        5.147        0.006      337.562        9.619      862.588
03/19/2014  23:57:00      -51.941      -13.840       -0.809       22.230       16.437        8.880      494.183      270.186       78.861        0.187        0.042       53.753        9.063        0.028      337.579        9.648      862.583
03/19/2014  23:58:00        0.392        2.346       -3.695       21.185       20.765       10.346      448.791      431.164      107.031        0.050        0.049        2.378       11.832       24.747      337.565        9.624      862.575
03/19/2014  23:59:00        7.947       18.281       27.513       25.894       12.930       15.289      670.501      167.197      233.762        0.111        0.054       19.933        7.786        0.153      337.264        9.119      862.566
